<?xml version="1.0" encoding="UTF-8" standalone="no" ?>
<gpx xmlns="http://www.topografix.com/GPX/1/1" xmlns:xsi="http://www.w3.org/2001/XMLSchema-instance" xsi:schemaLocation="http://www.topografix.com/GPX/1/1 http://www.topografix.com/GPX/1/1/gpx.xsd" version="1.1" creator="VisuGPX - https://www.visugpx.com">
  <metadata>
    <name>Vélo bleu - Circuit 14</name>
    <desc><![CDATA[Petit patrimoine sur ce circuit :
- Chapelle Sainte-Barbe à Epizon, Chapelle Saint-Thiébault à ChambroncourtChapelle Saint-Jean-Baptiste dans le cimetière d'Aillanville, Chapelle ND de Pitié et chapelle Sépulcrale de vesaignes-sous-Lafauche.
- Château de Lafauche.]]></desc>
  </metadata>
  <trk>
    <name><![CDATA[Sortie vélo le matin 46]]></name>
    <trkseg>
      <trkpt lat="48.27115" lon="5.41345">
        <ele>291.36</ele>
        <time>2025-01-04T13:47:53.000Z</time>
      </trkpt>
      <trkpt lat="48.27113" lon="5.41341">
        <ele>291.68</ele>
        <time>2025-01-04T13:47:53.001Z</time>
      </trkpt>
      <trkpt lat="48.27117" lon="5.41336">
        <ele>292.02</ele>
        <time>2025-01-04T13:47:53.002Z</time>
      </trkpt>
      <trkpt lat="48.27116" lon="5.41308">
        <ele>292.4</ele>
        <time>2025-01-04T13:47:53.006Z</time>
      </trkpt>
      <trkpt lat="48.27116" lon="5.41308">
        <ele>292.78</ele>
        <time>2025-01-04T13:47:53.010Z</time>
      </trkpt>
      <trkpt lat="48.27119" lon="5.41308">
        <ele>293.18</ele>
        <time>2025-01-04T13:47:53.015Z</time>
      </trkpt>
      <trkpt lat="48.27133" lon="5.41305">
        <ele>293.65</ele>
        <time>2025-01-04T13:47:53.022Z</time>
      </trkpt>
      <trkpt lat="48.27151" lon="5.41301">
        <ele>294.23</ele>
        <time>2025-01-04T13:47:53.032Z</time>
      </trkpt>
      <trkpt lat="48.27173" lon="5.41297">
        <ele>294.97</ele>
        <time>2025-01-04T13:47:53.046Z</time>
      </trkpt>
      <trkpt lat="48.27193" lon="5.41285">
        <ele>295.76</ele>
        <time>2025-01-04T13:47:53.063Z</time>
      </trkpt>
      <trkpt lat="48.27202" lon="5.41264">
        <ele>296.48</ele>
        <time>2025-01-04T13:47:53.083Z</time>
      </trkpt>
      <trkpt lat="48.27205" lon="5.4124">
        <ele>297.13</ele>
        <time>2025-01-04T13:47:53.105Z</time>
      </trkpt>
      <trkpt lat="48.27206" lon="5.41234">
        <ele>297.62</ele>
        <time>2025-01-04T13:47:53.128Z</time>
      </trkpt>
      <trkpt lat="48.27208" lon="5.41206">
        <ele>297.99</ele>
        <time>2025-01-04T13:47:53.154Z</time>
      </trkpt>
      <trkpt lat="48.2721" lon="5.41179">
        <ele>298.22</ele>
        <time>2025-01-04T13:47:53.183Z</time>
      </trkpt>
      <trkpt lat="48.27212" lon="5.41149">
        <ele>298.25</ele>
        <time>2025-01-04T13:47:53.215Z</time>
      </trkpt>
      <trkpt lat="48.27215" lon="5.41107">
        <ele>298.2</ele>
        <time>2025-01-04T13:47:53.252Z</time>
      </trkpt>
      <trkpt lat="48.27218" lon="5.41077">
        <ele>298.11</ele>
        <time>2025-01-04T13:47:53.292Z</time>
      </trkpt>
      <trkpt lat="48.2722" lon="5.41047">
        <ele>297.97</ele>
        <time>2025-01-04T13:47:53.335Z</time>
      </trkpt>
      <trkpt lat="48.27223" lon="5.41013">
        <ele>297.79</ele>
        <time>2025-01-04T13:47:53.382Z</time>
      </trkpt>
      <trkpt lat="48.27225" lon="5.40979">
        <ele>297.64</ele>
        <time>2025-01-04T13:47:53.432Z</time>
      </trkpt>
      <trkpt lat="48.27227" lon="5.40965">
        <ele>297.43</ele>
        <time>2025-01-04T13:47:53.484Z</time>
      </trkpt>
      <trkpt lat="48.27231" lon="5.40948">
        <ele>297.19</ele>
        <time>2025-01-04T13:47:53.538Z</time>
      </trkpt>
      <trkpt lat="48.27243" lon="5.4092">
        <ele>296.88</ele>
        <time>2025-01-04T13:47:53.595Z</time>
      </trkpt>
      <trkpt lat="48.27256" lon="5.40892">
        <ele>296.61</ele>
        <time>2025-01-04T13:47:53.656Z</time>
      </trkpt>
      <trkpt lat="48.27268" lon="5.40863">
        <ele>296.3</ele>
        <time>2025-01-04T13:47:53.721Z</time>
      </trkpt>
      <trkpt lat="48.27281" lon="5.40834">
        <ele>296.11</ele>
        <time>2025-01-04T13:47:53.789Z</time>
      </trkpt>
      <trkpt lat="48.2729" lon="5.40813">
        <ele>295.9</ele>
        <time>2025-01-04T13:47:53.860Z</time>
      </trkpt>
      <trkpt lat="48.27299" lon="5.40792">
        <ele>295.7</ele>
        <time>2025-01-04T13:47:53.934Z</time>
      </trkpt>
      <trkpt lat="48.27316" lon="5.40753">
        <ele>295.51</ele>
        <time>2025-01-04T13:47:54.013Z</time>
      </trkpt>
      <trkpt lat="48.27324" lon="5.40731">
        <ele>295.38</ele>
        <time>2025-01-04T13:47:54.094Z</time>
      </trkpt>
      <trkpt lat="48.27332" lon="5.4071">
        <ele>295.28</ele>
        <time>2025-01-04T13:47:54.178Z</time>
      </trkpt>
      <trkpt lat="48.27342" lon="5.40681">
        <ele>295.15</ele>
        <time>2025-01-04T13:47:54.265Z</time>
      </trkpt>
      <trkpt lat="48.27346" lon="5.40659">
        <ele>295</ele>
        <time>2025-01-04T13:47:54.355Z</time>
      </trkpt>
      <trkpt lat="48.27348" lon="5.40632">
        <ele>294.8</ele>
        <time>2025-01-04T13:47:54.448Z</time>
      </trkpt>
      <trkpt lat="48.2735" lon="5.40605">
        <ele>294.58</ele>
        <time>2025-01-04T13:47:54.544Z</time>
      </trkpt>
      <trkpt lat="48.27352" lon="5.40576">
        <ele>294.47</ele>
        <time>2025-01-04T13:47:54.643Z</time>
      </trkpt>
      <trkpt lat="48.27353" lon="5.40558">
        <ele>294.3</ele>
        <time>2025-01-04T13:47:54.744Z</time>
      </trkpt>
      <trkpt lat="48.27353" lon="5.40529">
        <ele>294.13</ele>
        <time>2025-01-04T13:47:54.848Z</time>
      </trkpt>
      <trkpt lat="48.27354" lon="5.405">
        <ele>293.89</ele>
        <time>2025-01-04T13:47:54.955Z</time>
      </trkpt>
      <trkpt lat="48.27355" lon="5.40468">
        <ele>293.68</ele>
        <time>2025-01-04T13:47:55.065Z</time>
      </trkpt>
      <trkpt lat="48.27356" lon="5.40436">
        <ele>293.47</ele>
        <time>2025-01-04T13:47:55.179Z</time>
      </trkpt>
      <trkpt lat="48.27357" lon="5.40403">
        <ele>293.26</ele>
        <time>2025-01-04T13:47:55.296Z</time>
      </trkpt>
      <trkpt lat="48.27358" lon="5.40369">
        <ele>293.04</ele>
        <time>2025-01-04T13:47:55.417Z</time>
      </trkpt>
      <trkpt lat="48.27358" lon="5.4033">
        <ele>292.83</ele>
        <time>2025-01-04T13:47:55.542Z</time>
      </trkpt>
      <trkpt lat="48.27357" lon="5.4029">
        <ele>292.62</ele>
        <time>2025-01-04T13:47:55.671Z</time>
      </trkpt>
      <trkpt lat="48.27357" lon="5.4026">
        <ele>292.41</ele>
        <time>2025-01-04T13:47:55.804Z</time>
      </trkpt>
      <trkpt lat="48.27356" lon="5.40229">
        <ele>292.19</ele>
        <time>2025-01-04T13:47:55.940Z</time>
      </trkpt>
      <trkpt lat="48.27356" lon="5.40191">
        <ele>291.91</ele>
        <time>2025-01-04T13:47:56.080Z</time>
      </trkpt>
      <trkpt lat="48.27355" lon="5.40153">
        <ele>291.56</ele>
        <time>2025-01-04T13:47:56.224Z</time>
      </trkpt>
      <trkpt lat="48.27355" lon="5.40109">
        <ele>291.31</ele>
        <time>2025-01-04T13:47:56.373Z</time>
      </trkpt>
      <trkpt lat="48.27354" lon="5.40065">
        <ele>291.08</ele>
        <time>2025-01-04T13:47:56.527Z</time>
      </trkpt>
      <trkpt lat="48.27354" lon="5.40054">
        <ele>290.86</ele>
        <time>2025-01-04T13:47:56.682Z</time>
      </trkpt>
      <trkpt lat="48.27353" lon="5.40016">
        <ele>290.59</ele>
        <time>2025-01-04T13:47:56.841Z</time>
      </trkpt>
      <trkpt lat="48.27353" lon="5.39979">
        <ele>290.39</ele>
        <time>2025-01-04T13:47:57.004Z</time>
      </trkpt>
      <trkpt lat="48.27352" lon="5.39935">
        <ele>290.22</ele>
        <time>2025-01-04T13:47:57.171Z</time>
      </trkpt>
      <trkpt lat="48.27352" lon="5.39891">
        <ele>290.07</ele>
        <time>2025-01-04T13:47:57.343Z</time>
      </trkpt>
      <trkpt lat="48.27351" lon="5.39862">
        <ele>289.94</ele>
        <time>2025-01-04T13:47:57.518Z</time>
      </trkpt>
      <trkpt lat="48.27351" lon="5.39834">
        <ele>289.83</ele>
        <time>2025-01-04T13:47:57.696Z</time>
      </trkpt>
      <trkpt lat="48.2735" lon="5.3979">
        <ele>289.69</ele>
        <time>2025-01-04T13:47:57.879Z</time>
      </trkpt>
      <trkpt lat="48.2735" lon="5.39746">
        <ele>289.67</ele>
        <time>2025-01-04T13:47:58.067Z</time>
      </trkpt>
      <trkpt lat="48.27351" lon="5.39715">
        <ele>289.6</ele>
        <time>2025-01-04T13:47:58.258Z</time>
      </trkpt>
      <trkpt lat="48.27352" lon="5.39684">
        <ele>289.5</ele>
        <time>2025-01-04T13:47:58.452Z</time>
      </trkpt>
      <trkpt lat="48.27354" lon="5.39641">
        <ele>289.38</ele>
        <time>2025-01-04T13:47:58.651Z</time>
      </trkpt>
      <trkpt lat="48.27355" lon="5.39598">
        <ele>289.41</ele>
        <time>2025-01-04T13:47:58.854Z</time>
      </trkpt>
      <trkpt lat="48.27355" lon="5.39587">
        <ele>289.42</ele>
        <time>2025-01-04T13:47:59.059Z</time>
      </trkpt>
      <trkpt lat="48.27357" lon="5.39553">
        <ele>289.45</ele>
        <time>2025-01-04T13:47:59.267Z</time>
      </trkpt>
      <trkpt lat="48.27358" lon="5.39518">
        <ele>289.56</ele>
        <time>2025-01-04T13:47:59.479Z</time>
      </trkpt>
      <trkpt lat="48.27359" lon="5.39482">
        <ele>289.67</ele>
        <time>2025-01-04T13:47:59.695Z</time>
      </trkpt>
      <trkpt lat="48.2736" lon="5.39447">
        <ele>289.81</ele>
        <time>2025-01-04T13:47:59.915Z</time>
      </trkpt>
      <trkpt lat="48.27362" lon="5.394">
        <ele>289.95</ele>
        <time>2025-01-04T13:48:00.140Z</time>
      </trkpt>
      <trkpt lat="48.27363" lon="5.39372">
        <ele>290.03</ele>
        <time>2025-01-04T13:48:00.368Z</time>
      </trkpt>
      <trkpt lat="48.27364" lon="5.39345">
        <ele>290.1</ele>
        <time>2025-01-04T13:48:00.599Z</time>
      </trkpt>
      <trkpt lat="48.27365" lon="5.39317">
        <ele>290.13</ele>
        <time>2025-01-04T13:48:00.833Z</time>
      </trkpt>
      <trkpt lat="48.27366" lon="5.39289">
        <ele>290.19</ele>
        <time>2025-01-04T13:48:01.069Z</time>
      </trkpt>
      <trkpt lat="48.27367" lon="5.39252">
        <ele>290.24</ele>
        <time>2025-01-04T13:48:01.310Z</time>
      </trkpt>
      <trkpt lat="48.27368" lon="5.39214">
        <ele>290.23</ele>
        <time>2025-01-04T13:48:01.555Z</time>
      </trkpt>
      <trkpt lat="48.27371" lon="5.39176">
        <ele>290.26</ele>
        <time>2025-01-04T13:48:01.804Z</time>
      </trkpt>
      <trkpt lat="48.27374" lon="5.39137">
        <ele>290.28</ele>
        <time>2025-01-04T13:48:02.057Z</time>
      </trkpt>
      <trkpt lat="48.27378" lon="5.39102">
        <ele>290.22</ele>
        <time>2025-01-04T13:48:02.314Z</time>
      </trkpt>
      <trkpt lat="48.27382" lon="5.39066">
        <ele>290.22</ele>
        <time>2025-01-04T13:48:02.574Z</time>
      </trkpt>
      <trkpt lat="48.27388" lon="5.39034">
        <ele>290.21</ele>
        <time>2025-01-04T13:48:02.838Z</time>
      </trkpt>
      <trkpt lat="48.27395" lon="5.39002">
        <ele>290.21</ele>
        <time>2025-01-04T13:48:03.106Z</time>
      </trkpt>
      <trkpt lat="48.27403" lon="5.38979">
        <ele>290.19</ele>
        <time>2025-01-04T13:48:03.376Z</time>
      </trkpt>
      <trkpt lat="48.27411" lon="5.38955">
        <ele>290.16</ele>
        <time>2025-01-04T13:48:03.649Z</time>
      </trkpt>
      <trkpt lat="48.27424" lon="5.3893">
        <ele>290.06</ele>
        <time>2025-01-04T13:48:03.926Z</time>
      </trkpt>
      <trkpt lat="48.27437" lon="5.38904">
        <ele>290</ele>
        <time>2025-01-04T13:48:04.206Z</time>
      </trkpt>
      <trkpt lat="48.27455" lon="5.38875">
        <ele>289.93</ele>
        <time>2025-01-04T13:48:04.490Z</time>
      </trkpt>
      <trkpt lat="48.27473" lon="5.38846">
        <ele>289.82</ele>
        <time>2025-01-04T13:48:04.779Z</time>
      </trkpt>
      <trkpt lat="48.27488" lon="5.38823">
        <ele>289.61</ele>
        <time>2025-01-04T13:48:05.071Z</time>
      </trkpt>
      <trkpt lat="48.27502" lon="5.38799">
        <ele>289.4</ele>
        <time>2025-01-04T13:48:05.366Z</time>
      </trkpt>
      <trkpt lat="48.27519" lon="5.38772">
        <ele>289.12</ele>
        <time>2025-01-04T13:48:05.666Z</time>
      </trkpt>
      <trkpt lat="48.27536" lon="5.38744">
        <ele>288.91</ele>
        <time>2025-01-04T13:48:05.970Z</time>
      </trkpt>
      <trkpt lat="48.27555" lon="5.38714">
        <ele>288.69</ele>
        <time>2025-01-04T13:48:06.278Z</time>
      </trkpt>
      <trkpt lat="48.27574" lon="5.38684">
        <ele>288.45</ele>
        <time>2025-01-04T13:48:06.590Z</time>
      </trkpt>
      <trkpt lat="48.27585" lon="5.38666">
        <ele>288.19</ele>
        <time>2025-01-04T13:48:06.905Z</time>
      </trkpt>
      <trkpt lat="48.27604" lon="5.38635">
        <ele>287.85</ele>
        <time>2025-01-04T13:48:07.224Z</time>
      </trkpt>
      <trkpt lat="48.27623" lon="5.38604">
        <ele>287.6</ele>
        <time>2025-01-04T13:48:07.548Z</time>
      </trkpt>
      <trkpt lat="48.27629" lon="5.38595">
        <ele>287.35</ele>
        <time>2025-01-04T13:48:07.873Z</time>
      </trkpt>
      <trkpt lat="48.27648" lon="5.38564">
        <ele>287.1</ele>
        <time>2025-01-04T13:48:08.203Z</time>
      </trkpt>
      <trkpt lat="48.27667" lon="5.38533">
        <ele>286.85</ele>
        <time>2025-01-04T13:48:08.537Z</time>
      </trkpt>
      <trkpt lat="48.27687" lon="5.38501">
        <ele>286.58</ele>
        <time>2025-01-04T13:48:08.876Z</time>
      </trkpt>
      <trkpt lat="48.27708" lon="5.38468">
        <ele>286.32</ele>
        <time>2025-01-04T13:48:09.220Z</time>
      </trkpt>
      <trkpt lat="48.27713" lon="5.38459">
        <ele>286.13</ele>
        <time>2025-01-04T13:48:09.565Z</time>
      </trkpt>
      <trkpt lat="48.27731" lon="5.3843">
        <ele>285.92</ele>
        <time>2025-01-04T13:48:09.914Z</time>
      </trkpt>
      <trkpt lat="48.27749" lon="5.38402">
        <ele>285.82</ele>
        <time>2025-01-04T13:48:10.267Z</time>
      </trkpt>
      <trkpt lat="48.27766" lon="5.38374">
        <ele>285.75</ele>
        <time>2025-01-04T13:48:10.625Z</time>
      </trkpt>
      <trkpt lat="48.27783" lon="5.38346">
        <ele>285.69</ele>
        <time>2025-01-04T13:48:10.987Z</time>
      </trkpt>
      <trkpt lat="48.27801" lon="5.38318">
        <ele>285.62</ele>
        <time>2025-01-04T13:48:11.353Z</time>
      </trkpt>
      <trkpt lat="48.27818" lon="5.3829">
        <ele>285.6</ele>
        <time>2025-01-04T13:48:11.723Z</time>
      </trkpt>
      <trkpt lat="48.27833" lon="5.38271">
        <ele>285.52</ele>
        <time>2025-01-04T13:48:12.096Z</time>
      </trkpt>
      <trkpt lat="48.27847" lon="5.38252">
        <ele>285.43</ele>
        <time>2025-01-04T13:48:12.472Z</time>
      </trkpt>
      <trkpt lat="48.27851" lon="5.38247">
        <ele>285.3</ele>
        <time>2025-01-04T13:48:12.849Z</time>
      </trkpt>
      <trkpt lat="48.27872" lon="5.38231">
        <ele>285.11</ele>
        <time>2025-01-04T13:48:13.230Z</time>
      </trkpt>
      <trkpt lat="48.27888" lon="5.38224">
        <ele>284.88</ele>
        <time>2025-01-04T13:48:13.613Z</time>
      </trkpt>
      <trkpt lat="48.27905" lon="5.38217">
        <ele>284.62</ele>
        <time>2025-01-04T13:48:13.999Z</time>
      </trkpt>
      <trkpt lat="48.27929" lon="5.38207">
        <ele>284.27</ele>
        <time>2025-01-04T13:48:14.389Z</time>
      </trkpt>
      <trkpt lat="48.27952" lon="5.38197">
        <ele>283.95</ele>
        <time>2025-01-04T13:48:14.783Z</time>
      </trkpt>
      <trkpt lat="48.27982" lon="5.38185">
        <ele>283.59</ele>
        <time>2025-01-04T13:48:15.182Z</time>
      </trkpt>
      <trkpt lat="48.28012" lon="5.38173">
        <ele>283.23</ele>
        <time>2025-01-04T13:48:15.586Z</time>
      </trkpt>
      <trkpt lat="48.28038" lon="5.38162">
        <ele>282.85</ele>
        <time>2025-01-04T13:48:15.994Z</time>
      </trkpt>
      <trkpt lat="48.28064" lon="5.38151">
        <ele>282.46</ele>
        <time>2025-01-04T13:48:16.406Z</time>
      </trkpt>
      <trkpt lat="48.28092" lon="5.3814">
        <ele>282.07</ele>
        <time>2025-01-04T13:48:16.823Z</time>
      </trkpt>
      <trkpt lat="48.28119" lon="5.38128">
        <ele>281.67</ele>
        <time>2025-01-04T13:48:17.245Z</time>
      </trkpt>
      <trkpt lat="48.28133" lon="5.38122">
        <ele>281.32</ele>
        <time>2025-01-04T13:48:17.669Z</time>
      </trkpt>
      <trkpt lat="48.28161" lon="5.38111">
        <ele>281</ele>
        <time>2025-01-04T13:48:18.098Z</time>
      </trkpt>
      <trkpt lat="48.28189" lon="5.38099">
        <ele>280.67</ele>
        <time>2025-01-04T13:48:18.531Z</time>
      </trkpt>
      <trkpt lat="48.28217" lon="5.38088">
        <ele>280.3</ele>
        <time>2025-01-04T13:48:18.969Z</time>
      </trkpt>
      <trkpt lat="48.28245" lon="5.38076">
        <ele>279.95</ele>
        <time>2025-01-04T13:48:19.412Z</time>
      </trkpt>
      <trkpt lat="48.28272" lon="5.3806">
        <ele>279.6</ele>
        <time>2025-01-04T13:48:19.859Z</time>
      </trkpt>
      <trkpt lat="48.28299" lon="5.38044">
        <ele>279.25</ele>
        <time>2025-01-04T13:48:20.311Z</time>
      </trkpt>
      <trkpt lat="48.28326" lon="5.38026">
        <ele>278.96</ele>
        <time>2025-01-04T13:48:20.768Z</time>
      </trkpt>
      <trkpt lat="48.28352" lon="5.38009">
        <ele>278.7</ele>
        <time>2025-01-04T13:48:21.229Z</time>
      </trkpt>
      <trkpt lat="48.28365" lon="5.38">
        <ele>278.44</ele>
        <time>2025-01-04T13:48:21.692Z</time>
      </trkpt>
      <trkpt lat="48.2839" lon="5.37984">
        <ele>278.2</ele>
        <time>2025-01-04T13:48:22.160Z</time>
      </trkpt>
      <trkpt lat="48.28416" lon="5.37967">
        <ele>277.97</ele>
        <time>2025-01-04T13:48:22.632Z</time>
      </trkpt>
      <trkpt lat="48.28441" lon="5.3795">
        <ele>277.75</ele>
        <time>2025-01-04T13:48:23.109Z</time>
      </trkpt>
      <trkpt lat="48.28466" lon="5.37933">
        <ele>277.54</ele>
        <time>2025-01-04T13:48:23.590Z</time>
      </trkpt>
      <trkpt lat="48.28472" lon="5.37929">
        <ele>277.31</ele>
        <time>2025-01-04T13:48:24.072Z</time>
      </trkpt>
      <trkpt lat="48.28493" lon="5.37911">
        <ele>277.06</ele>
        <time>2025-01-04T13:48:24.558Z</time>
      </trkpt>
      <trkpt lat="48.28514" lon="5.37894">
        <ele>276.85</ele>
        <time>2025-01-04T13:48:25.048Z</time>
      </trkpt>
      <trkpt lat="48.28534" lon="5.37877">
        <ele>276.59</ele>
        <time>2025-01-04T13:48:25.541Z</time>
      </trkpt>
      <trkpt lat="48.28547" lon="5.37866">
        <ele>276.33</ele>
        <time>2025-01-04T13:48:26.037Z</time>
      </trkpt>
      <trkpt lat="48.28547" lon="5.37859">
        <ele>276.11</ele>
        <time>2025-01-04T13:48:26.534Z</time>
      </trkpt>
      <trkpt lat="48.28546" lon="5.37856">
        <ele>275.89</ele>
        <time>2025-01-04T13:48:27.031Z</time>
      </trkpt>
      <trkpt lat="48.28534" lon="5.37821">
        <ele>275.65</ele>
        <time>2025-01-04T13:48:27.532Z</time>
      </trkpt>
      <trkpt lat="48.28523" lon="5.37798">
        <ele>275.45</ele>
        <time>2025-01-04T13:48:28.036Z</time>
      </trkpt>
      <trkpt lat="48.28511" lon="5.37776">
        <ele>275.26</ele>
        <time>2025-01-04T13:48:28.543Z</time>
      </trkpt>
      <trkpt lat="48.28507" lon="5.3777">
        <ele>275.04</ele>
        <time>2025-01-04T13:48:29.051Z</time>
      </trkpt>
      <trkpt lat="48.28495" lon="5.37751">
        <ele>274.81</ele>
        <time>2025-01-04T13:48:29.562Z</time>
      </trkpt>
      <trkpt lat="48.28481" lon="5.37738">
        <ele>274.54</ele>
        <time>2025-01-04T13:48:30.076Z</time>
      </trkpt>
      <trkpt lat="48.28466" lon="5.37728">
        <ele>274.27</ele>
        <time>2025-01-04T13:48:30.592Z</time>
      </trkpt>
      <trkpt lat="48.28454" lon="5.37724">
        <ele>274.04</ele>
        <time>2025-01-04T13:48:31.110Z</time>
      </trkpt>
      <trkpt lat="48.28437" lon="5.37718">
        <ele>273.8</ele>
        <time>2025-01-04T13:48:31.631Z</time>
      </trkpt>
      <trkpt lat="48.28418" lon="5.37718">
        <ele>273.54</ele>
        <time>2025-01-04T13:48:32.155Z</time>
      </trkpt>
      <trkpt lat="48.28399" lon="5.37718">
        <ele>273.3</ele>
        <time>2025-01-04T13:48:32.682Z</time>
      </trkpt>
      <trkpt lat="48.28377" lon="5.37719">
        <ele>273.07</ele>
        <time>2025-01-04T13:48:33.213Z</time>
      </trkpt>
      <trkpt lat="48.28354" lon="5.3772">
        <ele>272.85</ele>
        <time>2025-01-04T13:48:33.747Z</time>
      </trkpt>
      <trkpt lat="48.28332" lon="5.37715">
        <ele>272.62</ele>
        <time>2025-01-04T13:48:34.285Z</time>
      </trkpt>
      <trkpt lat="48.28309" lon="5.3771">
        <ele>272.4</ele>
        <time>2025-01-04T13:48:34.827Z</time>
      </trkpt>
      <trkpt lat="48.28286" lon="5.37698">
        <ele>272.21</ele>
        <time>2025-01-04T13:48:35.373Z</time>
      </trkpt>
      <trkpt lat="48.28263" lon="5.37685">
        <ele>272.01</ele>
        <time>2025-01-04T13:48:35.922Z</time>
      </trkpt>
      <trkpt lat="48.28237" lon="5.37672">
        <ele>271.79</ele>
        <time>2025-01-04T13:48:36.476Z</time>
      </trkpt>
      <trkpt lat="48.28211" lon="5.37658">
        <ele>271.5</ele>
        <time>2025-01-04T13:48:37.034Z</time>
      </trkpt>
      <trkpt lat="48.28185" lon="5.37641">
        <ele>271.18</ele>
        <time>2025-01-04T13:48:37.597Z</time>
      </trkpt>
      <trkpt lat="48.28159" lon="5.37624">
        <ele>270.97</ele>
        <time>2025-01-04T13:48:38.164Z</time>
      </trkpt>
      <trkpt lat="48.28146" lon="5.37615">
        <ele>270.79</ele>
        <time>2025-01-04T13:48:38.734Z</time>
      </trkpt>
      <trkpt lat="48.28121" lon="5.37597">
        <ele>270.65</ele>
        <time>2025-01-04T13:48:39.308Z</time>
      </trkpt>
      <trkpt lat="48.28096" lon="5.3758">
        <ele>270.5</ele>
        <time>2025-01-04T13:48:39.887Z</time>
      </trkpt>
      <trkpt lat="48.28078" lon="5.37567">
        <ele>270.33</ele>
        <time>2025-01-04T13:48:40.469Z</time>
      </trkpt>
      <trkpt lat="48.28073" lon="5.37558">
        <ele>270.17</ele>
        <time>2025-01-04T13:48:41.052Z</time>
      </trkpt>
      <trkpt lat="48.2807" lon="5.3755">
        <ele>270.02</ele>
        <time>2025-01-04T13:48:41.636Z</time>
      </trkpt>
      <trkpt lat="48.2806" lon="5.37524">
        <ele>269.88</ele>
        <time>2025-01-04T13:48:42.223Z</time>
      </trkpt>
      <trkpt lat="48.28051" lon="5.37485">
        <ele>269.73</ele>
        <time>2025-01-04T13:48:42.815Z</time>
      </trkpt>
      <trkpt lat="48.28041" lon="5.37446">
        <ele>269.54</ele>
        <time>2025-01-04T13:48:43.411Z</time>
      </trkpt>
      <trkpt lat="48.2803" lon="5.37412">
        <ele>269.37</ele>
        <time>2025-01-04T13:48:44.011Z</time>
      </trkpt>
      <trkpt lat="48.28018" lon="5.37378">
        <ele>269.18</ele>
        <time>2025-01-04T13:48:44.615Z</time>
      </trkpt>
      <trkpt lat="48.28006" lon="5.3734">
        <ele>269.12</ele>
        <time>2025-01-04T13:48:45.224Z</time>
      </trkpt>
      <trkpt lat="48.27993" lon="5.37302">
        <ele>269.08</ele>
        <time>2025-01-04T13:48:45.837Z</time>
      </trkpt>
      <trkpt lat="48.2798" lon="5.37266">
        <ele>269.12</ele>
        <time>2025-01-04T13:48:46.455Z</time>
      </trkpt>
      <trkpt lat="48.27968" lon="5.37229">
        <ele>269.11</ele>
        <time>2025-01-04T13:48:47.077Z</time>
      </trkpt>
      <trkpt lat="48.27964" lon="5.37219">
        <ele>269.13</ele>
        <time>2025-01-04T13:48:47.700Z</time>
      </trkpt>
      <trkpt lat="48.27952" lon="5.37182">
        <ele>269.24</ele>
        <time>2025-01-04T13:48:48.328Z</time>
      </trkpt>
      <trkpt lat="48.27939" lon="5.37146">
        <ele>269.32</ele>
        <time>2025-01-04T13:48:48.960Z</time>
      </trkpt>
      <trkpt lat="48.27927" lon="5.3711">
        <ele>269.39</ele>
        <time>2025-01-04T13:48:49.596Z</time>
      </trkpt>
      <trkpt lat="48.27914" lon="5.37073">
        <ele>269.47</ele>
        <time>2025-01-04T13:48:50.237Z</time>
      </trkpt>
      <trkpt lat="48.279" lon="5.37037">
        <ele>269.56</ele>
        <time>2025-01-04T13:48:50.882Z</time>
      </trkpt>
      <trkpt lat="48.27885" lon="5.37001">
        <ele>269.7</ele>
        <time>2025-01-04T13:48:51.532Z</time>
      </trkpt>
      <trkpt lat="48.27882" lon="5.36992">
        <ele>269.83</ele>
        <time>2025-01-04T13:48:52.183Z</time>
      </trkpt>
      <trkpt lat="48.27867" lon="5.36955">
        <ele>269.96</ele>
        <time>2025-01-04T13:48:52.838Z</time>
      </trkpt>
      <trkpt lat="48.27852" lon="5.36918">
        <ele>270.05</ele>
        <time>2025-01-04T13:48:53.498Z</time>
      </trkpt>
      <trkpt lat="48.27849" lon="5.36909">
        <ele>270.17</ele>
        <time>2025-01-04T13:48:54.159Z</time>
      </trkpt>
      <trkpt lat="48.27836" lon="5.36876">
        <ele>270.25</ele>
        <time>2025-01-04T13:48:54.824Z</time>
      </trkpt>
      <trkpt lat="48.27823" lon="5.36843">
        <ele>270.39</ele>
        <time>2025-01-04T13:48:55.493Z</time>
      </trkpt>
      <trkpt lat="48.27812" lon="5.36817">
        <ele>270.54</ele>
        <time>2025-01-04T13:48:56.166Z</time>
      </trkpt>
      <trkpt lat="48.27802" lon="5.36791">
        <ele>270.67</ele>
        <time>2025-01-04T13:48:56.842Z</time>
      </trkpt>
      <trkpt lat="48.27791" lon="5.36762">
        <ele>270.77</ele>
        <time>2025-01-04T13:48:57.521Z</time>
      </trkpt>
      <trkpt lat="48.27784" lon="5.36754">
        <ele>270.87</ele>
        <time>2025-01-04T13:48:58.202Z</time>
      </trkpt>
      <trkpt lat="48.27776" lon="5.36747">
        <ele>270.96</ele>
        <time>2025-01-04T13:48:58.884Z</time>
      </trkpt>
      <trkpt lat="48.27771" lon="5.36747">
        <ele>271.07</ele>
        <time>2025-01-04T13:48:59.567Z</time>
      </trkpt>
      <trkpt lat="48.27754" lon="5.3675">
        <ele>271.17</ele>
        <time>2025-01-04T13:49:00.253Z</time>
      </trkpt>
      <trkpt lat="48.27737" lon="5.36753">
        <ele>271.26</ele>
        <time>2025-01-04T13:49:00.942Z</time>
      </trkpt>
      <trkpt lat="48.27719" lon="5.36759">
        <ele>271.34</ele>
        <time>2025-01-04T13:49:01.634Z</time>
      </trkpt>
      <trkpt lat="48.27701" lon="5.36766">
        <ele>271.4</ele>
        <time>2025-01-04T13:49:02.328Z</time>
      </trkpt>
      <trkpt lat="48.2768" lon="5.36778">
        <ele>271.48</ele>
        <time>2025-01-04T13:49:03.026Z</time>
      </trkpt>
      <trkpt lat="48.27659" lon="5.36789">
        <ele>271.55</ele>
        <time>2025-01-04T13:49:03.728Z</time>
      </trkpt>
      <trkpt lat="48.27641" lon="5.36799">
        <ele>271.6</ele>
        <time>2025-01-04T13:49:04.433Z</time>
      </trkpt>
      <trkpt lat="48.27623" lon="5.36809">
        <ele>271.64</ele>
        <time>2025-01-04T13:49:05.141Z</time>
      </trkpt>
      <trkpt lat="48.27604" lon="5.36816">
        <ele>271.64</ele>
        <time>2025-01-04T13:49:05.852Z</time>
      </trkpt>
      <trkpt lat="48.27594" lon="5.36817">
        <ele>271.61</ele>
        <time>2025-01-04T13:49:06.565Z</time>
      </trkpt>
      <trkpt lat="48.27588" lon="5.36818">
        <ele>271.56</ele>
        <time>2025-01-04T13:49:07.278Z</time>
      </trkpt>
      <trkpt lat="48.27578" lon="5.36819">
        <ele>271.49</ele>
        <time>2025-01-04T13:49:07.993Z</time>
      </trkpt>
      <trkpt lat="48.27573" lon="5.36816">
        <ele>271.4</ele>
        <time>2025-01-04T13:49:08.709Z</time>
      </trkpt>
      <trkpt lat="48.27567" lon="5.36812">
        <ele>271.28</ele>
        <time>2025-01-04T13:49:09.426Z</time>
      </trkpt>
      <trkpt lat="48.27553" lon="5.36799">
        <ele>271.13</ele>
        <time>2025-01-04T13:49:10.146Z</time>
      </trkpt>
      <trkpt lat="48.2754" lon="5.36778">
        <ele>270.92</ele>
        <time>2025-01-04T13:49:10.869Z</time>
      </trkpt>
      <trkpt lat="48.27536" lon="5.36771">
        <ele>270.72</ele>
        <time>2025-01-04T13:49:11.593Z</time>
      </trkpt>
      <trkpt lat="48.27534" lon="5.36762">
        <ele>270.5</ele>
        <time>2025-01-04T13:49:12.318Z</time>
      </trkpt>
      <trkpt lat="48.27529" lon="5.36744">
        <ele>270.25</ele>
        <time>2025-01-04T13:49:13.045Z</time>
      </trkpt>
      <trkpt lat="48.27526" lon="5.3673">
        <ele>270.01</ele>
        <time>2025-01-04T13:49:13.773Z</time>
      </trkpt>
      <trkpt lat="48.27524" lon="5.36714">
        <ele>269.74</ele>
        <time>2025-01-04T13:49:14.503Z</time>
      </trkpt>
      <trkpt lat="48.27526" lon="5.36694">
        <ele>269.44</ele>
        <time>2025-01-04T13:49:15.235Z</time>
      </trkpt>
      <trkpt lat="48.27529" lon="5.36687">
        <ele>269.11</ele>
        <time>2025-01-04T13:49:15.968Z</time>
      </trkpt>
      <trkpt lat="48.27542" lon="5.36655">
        <ele>268.71</ele>
        <time>2025-01-04T13:49:16.705Z</time>
      </trkpt>
      <trkpt lat="48.27546" lon="5.36625">
        <ele>268.43</ele>
        <time>2025-01-04T13:49:17.445Z</time>
      </trkpt>
      <trkpt lat="48.2755" lon="5.36594">
        <ele>268.1</ele>
        <time>2025-01-04T13:49:18.189Z</time>
      </trkpt>
      <trkpt lat="48.27551" lon="5.36584">
        <ele>267.75</ele>
        <time>2025-01-04T13:49:18.934Z</time>
      </trkpt>
      <trkpt lat="48.27556" lon="5.36549">
        <ele>267.27</ele>
        <time>2025-01-04T13:49:19.683Z</time>
      </trkpt>
      <trkpt lat="48.2756" lon="5.36513">
        <ele>266.78</ele>
        <time>2025-01-04T13:49:20.436Z</time>
      </trkpt>
      <trkpt lat="48.27563" lon="5.36484">
        <ele>266.32</ele>
        <time>2025-01-04T13:49:21.192Z</time>
      </trkpt>
      <trkpt lat="48.27567" lon="5.36456">
        <ele>265.9</ele>
        <time>2025-01-04T13:49:21.951Z</time>
      </trkpt>
      <trkpt lat="48.27575" lon="5.36416">
        <ele>265.49</ele>
        <time>2025-01-04T13:49:22.714Z</time>
      </trkpt>
      <trkpt lat="48.27582" lon="5.36376">
        <ele>265.16</ele>
        <time>2025-01-04T13:49:23.482Z</time>
      </trkpt>
      <trkpt lat="48.27589" lon="5.36338">
        <ele>264.76</ele>
        <time>2025-01-04T13:49:24.254Z</time>
      </trkpt>
      <trkpt lat="48.27596" lon="5.363">
        <ele>264.39</ele>
        <time>2025-01-04T13:49:25.030Z</time>
      </trkpt>
      <trkpt lat="48.27602" lon="5.36271">
        <ele>264.08</ele>
        <time>2025-01-04T13:49:25.809Z</time>
      </trkpt>
      <trkpt lat="48.27608" lon="5.36242">
        <ele>263.79</ele>
        <time>2025-01-04T13:49:26.592Z</time>
      </trkpt>
      <trkpt lat="48.27609" lon="5.36232">
        <ele>263.53</ele>
        <time>2025-01-04T13:49:27.376Z</time>
      </trkpt>
      <trkpt lat="48.27616" lon="5.36199">
        <ele>263.3</ele>
        <time>2025-01-04T13:49:28.163Z</time>
      </trkpt>
      <trkpt lat="48.27622" lon="5.36166">
        <ele>263.11</ele>
        <time>2025-01-04T13:49:28.954Z</time>
      </trkpt>
      <trkpt lat="48.27628" lon="5.36134">
        <ele>262.9</ele>
        <time>2025-01-04T13:49:29.749Z</time>
      </trkpt>
      <trkpt lat="48.27634" lon="5.36103">
        <ele>262.74</ele>
        <time>2025-01-04T13:49:30.547Z</time>
      </trkpt>
      <trkpt lat="48.27639" lon="5.36078">
        <ele>262.59</ele>
        <time>2025-01-04T13:49:31.348Z</time>
      </trkpt>
      <trkpt lat="48.27644" lon="5.36052">
        <ele>262.49</ele>
        <time>2025-01-04T13:49:32.152Z</time>
      </trkpt>
      <trkpt lat="48.27652" lon="5.36016">
        <ele>262.43</ele>
        <time>2025-01-04T13:49:32.960Z</time>
      </trkpt>
      <trkpt lat="48.27659" lon="5.3598">
        <ele>262.44</ele>
        <time>2025-01-04T13:49:33.772Z</time>
      </trkpt>
      <trkpt lat="48.27665" lon="5.35946">
        <ele>262.51</ele>
        <time>2025-01-04T13:49:34.587Z</time>
      </trkpt>
      <trkpt lat="48.2767" lon="5.35913">
        <ele>262.66</ele>
        <time>2025-01-04T13:49:35.406Z</time>
      </trkpt>
      <trkpt lat="48.27671" lon="5.3588">
        <ele>262.87</ele>
        <time>2025-01-04T13:49:36.229Z</time>
      </trkpt>
      <trkpt lat="48.27672" lon="5.35847">
        <ele>263.15</ele>
        <time>2025-01-04T13:49:37.055Z</time>
      </trkpt>
      <trkpt lat="48.27671" lon="5.35832">
        <ele>263.48</ele>
        <time>2025-01-04T13:49:37.883Z</time>
      </trkpt>
      <trkpt lat="48.2767" lon="5.35817">
        <ele>263.85</ele>
        <time>2025-01-04T13:49:38.712Z</time>
      </trkpt>
      <trkpt lat="48.27683" lon="5.35804">
        <ele>264.3</ele>
        <time>2025-01-04T13:49:39.544Z</time>
      </trkpt>
      <trkpt lat="48.27688" lon="5.35803">
        <ele>264.78</ele>
        <time>2025-01-04T13:49:40.377Z</time>
      </trkpt>
      <trkpt lat="48.27698" lon="5.35799">
        <ele>265.34</ele>
        <time>2025-01-04T13:49:41.211Z</time>
      </trkpt>
      <trkpt lat="48.27715" lon="5.35794">
        <ele>265.96</ele>
        <time>2025-01-04T13:49:42.048Z</time>
      </trkpt>
      <trkpt lat="48.27732" lon="5.35788">
        <ele>266.66</ele>
        <time>2025-01-04T13:49:42.888Z</time>
      </trkpt>
      <trkpt lat="48.27749" lon="5.35782">
        <ele>267.41</ele>
        <time>2025-01-04T13:49:43.731Z</time>
      </trkpt>
      <trkpt lat="48.27766" lon="5.35773">
        <ele>268.15</ele>
        <time>2025-01-04T13:49:44.577Z</time>
      </trkpt>
      <trkpt lat="48.27783" lon="5.35764">
        <ele>268.9</ele>
        <time>2025-01-04T13:49:45.426Z</time>
      </trkpt>
      <trkpt lat="48.27791" lon="5.35757">
        <ele>269.66</ele>
        <time>2025-01-04T13:49:46.276Z</time>
      </trkpt>
      <trkpt lat="48.27799" lon="5.3575">
        <ele>270.44</ele>
        <time>2025-01-04T13:49:47.127Z</time>
      </trkpt>
      <trkpt lat="48.278" lon="5.35749">
        <ele>271.18</ele>
        <time>2025-01-04T13:49:47.979Z</time>
      </trkpt>
      <trkpt lat="48.27802" lon="5.35745">
        <ele>271.92</ele>
        <time>2025-01-04T13:49:48.831Z</time>
      </trkpt>
      <trkpt lat="48.27806" lon="5.35734">
        <ele>272.68</ele>
        <time>2025-01-04T13:49:49.685Z</time>
      </trkpt>
      <trkpt lat="48.27807" lon="5.3573">
        <ele>273.39</ele>
        <time>2025-01-04T13:49:50.539Z</time>
      </trkpt>
      <trkpt lat="48.27807" lon="5.35727">
        <ele>274.08</ele>
        <time>2025-01-04T13:49:51.393Z</time>
      </trkpt>
      <trkpt lat="48.27808" lon="5.35692">
        <ele>274.8</ele>
        <time>2025-01-04T13:49:52.251Z</time>
      </trkpt>
      <trkpt lat="48.27806" lon="5.35659">
        <ele>275.39</ele>
        <time>2025-01-04T13:49:53.113Z</time>
      </trkpt>
      <trkpt lat="48.27803" lon="5.35627">
        <ele>275.96</ele>
        <time>2025-01-04T13:49:53.978Z</time>
      </trkpt>
      <trkpt lat="48.27801" lon="5.35601">
        <ele>276.47</ele>
        <time>2025-01-04T13:49:54.846Z</time>
      </trkpt>
      <trkpt lat="48.27799" lon="5.35576">
        <ele>276.96</ele>
        <time>2025-01-04T13:49:55.717Z</time>
      </trkpt>
      <trkpt lat="48.27797" lon="5.3555">
        <ele>277.41</ele>
        <time>2025-01-04T13:49:56.590Z</time>
      </trkpt>
      <trkpt lat="48.27795" lon="5.35524">
        <ele>277.93</ele>
        <time>2025-01-04T13:49:57.466Z</time>
      </trkpt>
      <trkpt lat="48.27793" lon="5.35495">
        <ele>278.36</ele>
        <time>2025-01-04T13:49:58.345Z</time>
      </trkpt>
      <trkpt lat="48.27791" lon="5.35467">
        <ele>278.74</ele>
        <time>2025-01-04T13:49:59.227Z</time>
      </trkpt>
      <trkpt lat="48.27788" lon="5.35425">
        <ele>279.02</ele>
        <time>2025-01-04T13:50:00.114Z</time>
      </trkpt>
      <trkpt lat="48.27786" lon="5.35401">
        <ele>279.19</ele>
        <time>2025-01-04T13:50:01.003Z</time>
      </trkpt>
      <trkpt lat="48.27784" lon="5.35377">
        <ele>279.22</ele>
        <time>2025-01-04T13:50:01.895Z</time>
      </trkpt>
      <trkpt lat="48.27783" lon="5.3533">
        <ele>279.21</ele>
        <time>2025-01-04T13:50:02.792Z</time>
      </trkpt>
      <trkpt lat="48.27783" lon="5.35293">
        <ele>279.13</ele>
        <time>2025-01-04T13:50:03.693Z</time>
      </trkpt>
      <trkpt lat="48.27786" lon="5.35255">
        <ele>278.98</ele>
        <time>2025-01-04T13:50:04.598Z</time>
      </trkpt>
      <trkpt lat="48.27789" lon="5.35222">
        <ele>278.81</ele>
        <time>2025-01-04T13:50:05.507Z</time>
      </trkpt>
      <trkpt lat="48.27791" lon="5.35189">
        <ele>278.54</ele>
        <time>2025-01-04T13:50:06.419Z</time>
      </trkpt>
      <trkpt lat="48.27793" lon="5.35164">
        <ele>278.13</ele>
        <time>2025-01-04T13:50:07.334Z</time>
      </trkpt>
      <trkpt lat="48.27795" lon="5.35139">
        <ele>277.66</ele>
        <time>2025-01-04T13:50:08.252Z</time>
      </trkpt>
      <trkpt lat="48.27798" lon="5.35101">
        <ele>277.08</ele>
        <time>2025-01-04T13:50:09.174Z</time>
      </trkpt>
      <trkpt lat="48.278" lon="5.35062">
        <ele>276.31</ele>
        <time>2025-01-04T13:50:10.100Z</time>
      </trkpt>
      <trkpt lat="48.27801" lon="5.35016">
        <ele>275.43</ele>
        <time>2025-01-04T13:50:11.031Z</time>
      </trkpt>
      <trkpt lat="48.27802" lon="5.34971">
        <ele>274.7</ele>
        <time>2025-01-04T13:50:11.967Z</time>
      </trkpt>
      <trkpt lat="48.27801" lon="5.3493">
        <ele>274.15</ele>
        <time>2025-01-04T13:50:12.907Z</time>
      </trkpt>
      <trkpt lat="48.27801" lon="5.34889">
        <ele>273.68</ele>
        <time>2025-01-04T13:50:13.851Z</time>
      </trkpt>
      <trkpt lat="48.27799" lon="5.34856">
        <ele>273.16</ele>
        <time>2025-01-04T13:50:14.799Z</time>
      </trkpt>
      <trkpt lat="48.27798" lon="5.34824">
        <ele>272.57</ele>
        <time>2025-01-04T13:50:15.750Z</time>
      </trkpt>
      <trkpt lat="48.27797" lon="5.34784">
        <ele>271.96</ele>
        <time>2025-01-04T13:50:16.706Z</time>
      </trkpt>
      <trkpt lat="48.27795" lon="5.34743">
        <ele>271.45</ele>
        <time>2025-01-04T13:50:17.666Z</time>
      </trkpt>
      <trkpt lat="48.27794" lon="5.34704">
        <ele>271.06</ele>
        <time>2025-01-04T13:50:18.630Z</time>
      </trkpt>
      <trkpt lat="48.27796" lon="5.34674">
        <ele>270.86</ele>
        <time>2025-01-04T13:50:19.597Z</time>
      </trkpt>
      <trkpt lat="48.27798" lon="5.34643">
        <ele>270.75</ele>
        <time>2025-01-04T13:50:20.568Z</time>
      </trkpt>
      <trkpt lat="48.27804" lon="5.34603">
        <ele>270.74</ele>
        <time>2025-01-04T13:50:21.543Z</time>
      </trkpt>
      <trkpt lat="48.2781" lon="5.34563">
        <ele>270.83</ele>
        <time>2025-01-04T13:50:22.522Z</time>
      </trkpt>
      <trkpt lat="48.27812" lon="5.34551">
        <ele>270.96</ele>
        <time>2025-01-04T13:50:23.503Z</time>
      </trkpt>
      <trkpt lat="48.27815" lon="5.34519">
        <ele>271.18</ele>
        <time>2025-01-04T13:50:24.487Z</time>
      </trkpt>
      <trkpt lat="48.27817" lon="5.34486">
        <ele>271.51</ele>
        <time>2025-01-04T13:50:25.475Z</time>
      </trkpt>
      <trkpt lat="48.27812" lon="5.34458">
        <ele>271.89</ele>
        <time>2025-01-04T13:50:26.466Z</time>
      </trkpt>
      <trkpt lat="48.27807" lon="5.3444">
        <ele>272.3</ele>
        <time>2025-01-04T13:50:27.459Z</time>
      </trkpt>
      <trkpt lat="48.27796" lon="5.34398">
        <ele>272.97</ele>
        <time>2025-01-04T13:50:28.457Z</time>
      </trkpt>
      <trkpt lat="48.27788" lon="5.34376">
        <ele>273.56</ele>
        <time>2025-01-04T13:50:29.457Z</time>
      </trkpt>
      <trkpt lat="48.27781" lon="5.34354">
        <ele>274.14</ele>
        <time>2025-01-04T13:50:30.460Z</time>
      </trkpt>
      <trkpt lat="48.27772" lon="5.34329">
        <ele>274.64</ele>
        <time>2025-01-04T13:50:31.466Z</time>
      </trkpt>
      <trkpt lat="48.27763" lon="5.34305">
        <ele>274.99</ele>
        <time>2025-01-04T13:50:32.475Z</time>
      </trkpt>
      <trkpt lat="48.27753" lon="5.34276">
        <ele>275.38</ele>
        <time>2025-01-04T13:50:33.488Z</time>
      </trkpt>
      <trkpt lat="48.27747" lon="5.34261">
        <ele>275.63</ele>
        <time>2025-01-04T13:50:34.502Z</time>
      </trkpt>
      <trkpt lat="48.27734" lon="5.34224">
        <ele>275.8</ele>
        <time>2025-01-04T13:50:35.521Z</time>
      </trkpt>
      <trkpt lat="48.27719" lon="5.34184">
        <ele>275.96</ele>
        <time>2025-01-04T13:50:36.545Z</time>
      </trkpt>
      <trkpt lat="48.27709" lon="5.34154">
        <ele>276.03</ele>
        <time>2025-01-04T13:50:37.572Z</time>
      </trkpt>
      <trkpt lat="48.27703" lon="5.34139">
        <ele>276</ele>
        <time>2025-01-04T13:50:38.601Z</time>
      </trkpt>
      <trkpt lat="48.27695" lon="5.34116">
        <ele>275.85</ele>
        <time>2025-01-04T13:50:39.633Z</time>
      </trkpt>
      <trkpt lat="48.27685" lon="5.3409">
        <ele>275.59</ele>
        <time>2025-01-04T13:50:40.668Z</time>
      </trkpt>
      <trkpt lat="48.27676" lon="5.34063">
        <ele>275.29</ele>
        <time>2025-01-04T13:50:41.706Z</time>
      </trkpt>
      <trkpt lat="48.27669" lon="5.34041">
        <ele>274.95</ele>
        <time>2025-01-04T13:50:42.747Z</time>
      </trkpt>
      <trkpt lat="48.27663" lon="5.34018">
        <ele>274.55</ele>
        <time>2025-01-04T13:50:43.791Z</time>
      </trkpt>
      <trkpt lat="48.2766" lon="5.34008">
        <ele>273.99</ele>
        <time>2025-01-04T13:50:44.836Z</time>
      </trkpt>
      <trkpt lat="48.27654" lon="5.33976">
        <ele>273.26</ele>
        <time>2025-01-04T13:50:45.884Z</time>
      </trkpt>
      <trkpt lat="48.27655" lon="5.33964">
        <ele>272.51</ele>
        <time>2025-01-04T13:50:46.934Z</time>
      </trkpt>
      <trkpt lat="48.27656" lon="5.33922">
        <ele>271.6</ele>
        <time>2025-01-04T13:50:47.988Z</time>
      </trkpt>
      <trkpt lat="48.27657" lon="5.33881">
        <ele>270.69</ele>
        <time>2025-01-04T13:50:49.046Z</time>
      </trkpt>
      <trkpt lat="48.27658" lon="5.33835">
        <ele>269.73</ele>
        <time>2025-01-04T13:50:50.109Z</time>
      </trkpt>
      <trkpt lat="48.27659" lon="5.33788">
        <ele>268.7</ele>
        <time>2025-01-04T13:50:51.177Z</time>
      </trkpt>
      <trkpt lat="48.27661" lon="5.33743">
        <ele>267.63</ele>
        <time>2025-01-04T13:50:52.250Z</time>
      </trkpt>
      <trkpt lat="48.27662" lon="5.337">
        <ele>266.5</ele>
        <time>2025-01-04T13:50:53.328Z</time>
      </trkpt>
      <trkpt lat="48.27663" lon="5.33657">
        <ele>265.28</ele>
        <time>2025-01-04T13:50:54.410Z</time>
      </trkpt>
      <trkpt lat="48.27663" lon="5.33643">
        <ele>264.21</ele>
        <time>2025-01-04T13:50:55.494Z</time>
      </trkpt>
      <trkpt lat="48.27664" lon="5.33601">
        <ele>263.06</ele>
        <time>2025-01-04T13:50:56.582Z</time>
      </trkpt>
      <trkpt lat="48.27665" lon="5.3356">
        <ele>261.97</ele>
        <time>2025-01-04T13:50:57.675Z</time>
      </trkpt>
      <trkpt lat="48.27666" lon="5.33534">
        <ele>260.99</ele>
        <time>2025-01-04T13:50:58.771Z</time>
      </trkpt>
      <trkpt lat="48.27667" lon="5.33492">
        <ele>260.1</ele>
        <time>2025-01-04T13:50:59.871Z</time>
      </trkpt>
      <trkpt lat="48.27668" lon="5.33449">
        <ele>259.33</ele>
        <time>2025-01-04T13:51:00.976Z</time>
      </trkpt>
      <trkpt lat="48.27669" lon="5.33414">
        <ele>258.67</ele>
        <time>2025-01-04T13:51:02.084Z</time>
      </trkpt>
      <trkpt lat="48.27671" lon="5.33369">
        <ele>257.99</ele>
        <time>2025-01-04T13:51:03.197Z</time>
      </trkpt>
      <trkpt lat="48.27672" lon="5.33323">
        <ele>257.3</ele>
        <time>2025-01-04T13:51:04.315Z</time>
      </trkpt>
      <trkpt lat="48.27674" lon="5.33281">
        <ele>256.82</ele>
        <time>2025-01-04T13:51:05.438Z</time>
      </trkpt>
      <trkpt lat="48.27676" lon="5.33239">
        <ele>256.45</ele>
        <time>2025-01-04T13:51:06.565Z</time>
      </trkpt>
      <trkpt lat="48.27677" lon="5.33214">
        <ele>256.17</ele>
        <time>2025-01-04T13:51:07.695Z</time>
      </trkpt>
      <trkpt lat="48.27677" lon="5.3319">
        <ele>255.96</ele>
        <time>2025-01-04T13:51:08.827Z</time>
      </trkpt>
      <trkpt lat="48.27678" lon="5.3318">
        <ele>255.82</ele>
        <time>2025-01-04T13:51:09.960Z</time>
      </trkpt>
      <trkpt lat="48.27678" lon="5.33176">
        <ele>255.79</ele>
        <time>2025-01-04T13:51:11.094Z</time>
      </trkpt>
      <trkpt lat="48.2769" lon="5.33167">
        <ele>255.87</ele>
        <time>2025-01-04T13:51:12.230Z</time>
      </trkpt>
      <trkpt lat="48.27711" lon="5.33151">
        <ele>256</ele>
        <time>2025-01-04T13:51:13.370Z</time>
      </trkpt>
      <trkpt lat="48.2774" lon="5.33144">
        <ele>256.35</ele>
        <time>2025-01-04T13:51:14.515Z</time>
      </trkpt>
      <trkpt lat="48.27752" lon="5.33144">
        <ele>256.73</ele>
        <time>2025-01-04T13:51:15.661Z</time>
      </trkpt>
      <trkpt lat="48.27772" lon="5.33154">
        <ele>257.23</ele>
        <time>2025-01-04T13:51:16.811Z</time>
      </trkpt>
      <trkpt lat="48.27791" lon="5.33164">
        <ele>257.79</ele>
        <time>2025-01-04T13:51:17.964Z</time>
      </trkpt>
      <trkpt lat="48.27816" lon="5.33178">
        <ele>258.34</ele>
        <time>2025-01-04T13:51:19.121Z</time>
      </trkpt>
      <trkpt lat="48.2784" lon="5.33191">
        <ele>258.91</ele>
        <time>2025-01-04T13:51:20.283Z</time>
      </trkpt>
      <trkpt lat="48.27863" lon="5.33203">
        <ele>259.56</ele>
        <time>2025-01-04T13:51:21.448Z</time>
      </trkpt>
      <trkpt lat="48.27885" lon="5.33215">
        <ele>260.29</ele>
        <time>2025-01-04T13:51:22.617Z</time>
      </trkpt>
      <trkpt lat="48.27907" lon="5.33227">
        <ele>261.11</ele>
        <time>2025-01-04T13:51:23.790Z</time>
      </trkpt>
      <trkpt lat="48.27928" lon="5.33238">
        <ele>261.97</ele>
        <time>2025-01-04T13:51:24.966Z</time>
      </trkpt>
      <trkpt lat="48.27947" lon="5.33249">
        <ele>262.87</ele>
        <time>2025-01-04T13:51:26.146Z</time>
      </trkpt>
      <trkpt lat="48.27966" lon="5.33259">
        <ele>263.8</ele>
        <time>2025-01-04T13:51:27.329Z</time>
      </trkpt>
      <trkpt lat="48.27992" lon="5.33273">
        <ele>264.77</ele>
        <time>2025-01-04T13:51:28.516Z</time>
      </trkpt>
      <trkpt lat="48.28018" lon="5.33287">
        <ele>265.84</ele>
        <time>2025-01-04T13:51:29.708Z</time>
      </trkpt>
      <trkpt lat="48.28038" lon="5.33297">
        <ele>266.93</ele>
        <time>2025-01-04T13:51:30.903Z</time>
      </trkpt>
      <trkpt lat="48.28057" lon="5.33308">
        <ele>267.98</ele>
        <time>2025-01-04T13:51:32.101Z</time>
      </trkpt>
      <trkpt lat="48.2808" lon="5.3332">
        <ele>268.97</ele>
        <time>2025-01-04T13:51:33.303Z</time>
      </trkpt>
      <trkpt lat="48.28102" lon="5.33332">
        <ele>270.08</ele>
        <time>2025-01-04T13:51:34.509Z</time>
      </trkpt>
      <trkpt lat="48.28118" lon="5.33341">
        <ele>271.09</ele>
        <time>2025-01-04T13:51:35.718Z</time>
      </trkpt>
      <trkpt lat="48.28135" lon="5.3335">
        <ele>272.06</ele>
        <time>2025-01-04T13:51:36.930Z</time>
      </trkpt>
      <trkpt lat="48.28161" lon="5.33364">
        <ele>272.92</ele>
        <time>2025-01-04T13:51:38.146Z</time>
      </trkpt>
      <trkpt lat="48.28189" lon="5.33377">
        <ele>273.87</ele>
        <time>2025-01-04T13:51:39.367Z</time>
      </trkpt>
      <trkpt lat="48.28211" lon="5.33382">
        <ele>274.72</ele>
        <time>2025-01-04T13:51:40.591Z</time>
      </trkpt>
      <trkpt lat="48.28224" lon="5.33384">
        <ele>275.52</ele>
        <time>2025-01-04T13:51:41.817Z</time>
      </trkpt>
      <trkpt lat="48.28228" lon="5.33384">
        <ele>276.31</ele>
        <time>2025-01-04T13:51:43.044Z</time>
      </trkpt>
      <trkpt lat="48.28244" lon="5.33382">
        <ele>277.08</ele>
        <time>2025-01-04T13:51:44.274Z</time>
      </trkpt>
      <trkpt lat="48.2826" lon="5.33381">
        <ele>277.9</ele>
        <time>2025-01-04T13:51:45.506Z</time>
      </trkpt>
      <trkpt lat="48.2828" lon="5.33379">
        <ele>278.66</ele>
        <time>2025-01-04T13:51:46.741Z</time>
      </trkpt>
      <trkpt lat="48.28301" lon="5.33377">
        <ele>279.35</ele>
        <time>2025-01-04T13:51:47.980Z</time>
      </trkpt>
      <trkpt lat="48.28321" lon="5.33379">
        <ele>279.96</ele>
        <time>2025-01-04T13:51:49.222Z</time>
      </trkpt>
      <trkpt lat="48.2834" lon="5.3338">
        <ele>280.57</ele>
        <time>2025-01-04T13:51:50.467Z</time>
      </trkpt>
      <trkpt lat="48.28357" lon="5.33384">
        <ele>281.19</ele>
        <time>2025-01-04T13:51:51.715Z</time>
      </trkpt>
      <trkpt lat="48.28374" lon="5.33387">
        <ele>281.92</ele>
        <time>2025-01-04T13:51:52.965Z</time>
      </trkpt>
      <trkpt lat="48.28396" lon="5.33392">
        <ele>282.71</ele>
        <time>2025-01-04T13:51:54.219Z</time>
      </trkpt>
      <trkpt lat="48.28418" lon="5.33397">
        <ele>283.55</ele>
        <time>2025-01-04T13:51:55.477Z</time>
      </trkpt>
      <trkpt lat="48.28423" lon="5.33398">
        <ele>284.36</ele>
        <time>2025-01-04T13:51:56.735Z</time>
      </trkpt>
      <trkpt lat="48.28444" lon="5.33406">
        <ele>285.26</ele>
        <time>2025-01-04T13:51:57.997Z</time>
      </trkpt>
      <trkpt lat="48.28453" lon="5.33414">
        <ele>286.15</ele>
        <time>2025-01-04T13:51:59.261Z</time>
      </trkpt>
      <trkpt lat="48.28466" lon="5.33428">
        <ele>287.11</ele>
        <time>2025-01-04T13:52:00.527Z</time>
      </trkpt>
      <trkpt lat="48.28481" lon="5.33459">
        <ele>288.18</ele>
        <time>2025-01-04T13:52:01.797Z</time>
      </trkpt>
      <trkpt lat="48.28481" lon="5.33459">
        <ele>289.1</ele>
        <time>2025-01-04T13:52:03.067Z</time>
      </trkpt>
      <trkpt lat="48.28495" lon="5.33496">
        <ele>290.23</ele>
        <time>2025-01-04T13:52:04.342Z</time>
      </trkpt>
      <trkpt lat="48.28508" lon="5.3353">
        <ele>291.23</ele>
        <time>2025-01-04T13:52:05.621Z</time>
      </trkpt>
      <trkpt lat="48.28519" lon="5.33559">
        <ele>292.18</ele>
        <time>2025-01-04T13:52:06.904Z</time>
      </trkpt>
      <trkpt lat="48.28538" lon="5.33584">
        <ele>293.28</ele>
        <time>2025-01-04T13:52:08.191Z</time>
      </trkpt>
      <trkpt lat="48.28556" lon="5.33599">
        <ele>294.45</ele>
        <time>2025-01-04T13:52:09.481Z</time>
      </trkpt>
      <trkpt lat="48.28568" lon="5.33607">
        <ele>295.56</ele>
        <time>2025-01-04T13:52:10.773Z</time>
      </trkpt>
      <trkpt lat="48.28586" lon="5.33616">
        <ele>296.68</ele>
        <time>2025-01-04T13:52:12.068Z</time>
      </trkpt>
      <trkpt lat="48.286" lon="5.33618">
        <ele>297.83</ele>
        <time>2025-01-04T13:52:13.365Z</time>
      </trkpt>
      <trkpt lat="48.28615" lon="5.33616">
        <ele>298.96</ele>
        <time>2025-01-04T13:52:14.665Z</time>
      </trkpt>
      <trkpt lat="48.28632" lon="5.33613">
        <ele>300.11</ele>
        <time>2025-01-04T13:52:15.967Z</time>
      </trkpt>
      <trkpt lat="48.2865" lon="5.3361">
        <ele>301.21</ele>
        <time>2025-01-04T13:52:17.272Z</time>
      </trkpt>
      <trkpt lat="48.28673" lon="5.33606">
        <ele>302.33</ele>
        <time>2025-01-04T13:52:18.581Z</time>
      </trkpt>
      <trkpt lat="48.28701" lon="5.33601">
        <ele>303.49</ele>
        <time>2025-01-04T13:52:19.895Z</time>
      </trkpt>
      <trkpt lat="48.28706" lon="5.33601">
        <ele>304.63</ele>
        <time>2025-01-04T13:52:21.209Z</time>
      </trkpt>
      <trkpt lat="48.28725" lon="5.33597">
        <ele>305.77</ele>
        <time>2025-01-04T13:52:22.527Z</time>
      </trkpt>
      <trkpt lat="48.28742" lon="5.33595">
        <ele>306.92</ele>
        <time>2025-01-04T13:52:23.847Z</time>
      </trkpt>
      <trkpt lat="48.28753" lon="5.33593">
        <ele>308.1</ele>
        <time>2025-01-04T13:52:25.169Z</time>
      </trkpt>
      <trkpt lat="48.28771" lon="5.3359">
        <ele>309.32</ele>
        <time>2025-01-04T13:52:26.494Z</time>
      </trkpt>
      <trkpt lat="48.28788" lon="5.33587">
        <ele>310.64</ele>
        <time>2025-01-04T13:52:27.822Z</time>
      </trkpt>
      <trkpt lat="48.28819" lon="5.33582">
        <ele>312.13</ele>
        <time>2025-01-04T13:52:29.155Z</time>
      </trkpt>
      <trkpt lat="48.28836" lon="5.3358">
        <ele>313.52</ele>
        <time>2025-01-04T13:52:30.490Z</time>
      </trkpt>
      <trkpt lat="48.28853" lon="5.33577">
        <ele>314.85</ele>
        <time>2025-01-04T13:52:31.828Z</time>
      </trkpt>
      <trkpt lat="48.28872" lon="5.33579">
        <ele>316.15</ele>
        <time>2025-01-04T13:52:33.169Z</time>
      </trkpt>
      <trkpt lat="48.28892" lon="5.3358">
        <ele>317.46</ele>
        <time>2025-01-04T13:52:34.513Z</time>
      </trkpt>
      <trkpt lat="48.28897" lon="5.3358">
        <ele>318.72</ele>
        <time>2025-01-04T13:52:35.858Z</time>
      </trkpt>
      <trkpt lat="48.28919" lon="5.33581">
        <ele>320.01</ele>
        <time>2025-01-04T13:52:37.207Z</time>
      </trkpt>
      <trkpt lat="48.28934" lon="5.33582">
        <ele>321.22</ele>
        <time>2025-01-04T13:52:38.558Z</time>
      </trkpt>
      <trkpt lat="48.28939" lon="5.33582">
        <ele>322.42</ele>
        <time>2025-01-04T13:52:39.910Z</time>
      </trkpt>
      <trkpt lat="48.28948" lon="5.33583">
        <ele>323.68</ele>
        <time>2025-01-04T13:52:41.263Z</time>
      </trkpt>
      <trkpt lat="48.2896" lon="5.33583">
        <ele>324.97</ele>
        <time>2025-01-04T13:52:42.618Z</time>
      </trkpt>
      <trkpt lat="48.28983" lon="5.33585">
        <ele>326.21</ele>
        <time>2025-01-04T13:52:43.977Z</time>
      </trkpt>
      <trkpt lat="48.29007" lon="5.33586">
        <ele>327.41</ele>
        <time>2025-01-04T13:52:45.340Z</time>
      </trkpt>
      <trkpt lat="48.29032" lon="5.33588">
        <ele>328.58</ele>
        <time>2025-01-04T13:52:46.707Z</time>
      </trkpt>
      <trkpt lat="48.29057" lon="5.33585">
        <ele>329.86</ele>
        <time>2025-01-04T13:52:48.078Z</time>
      </trkpt>
      <trkpt lat="48.29086" lon="5.33581">
        <ele>331.11</ele>
        <time>2025-01-04T13:52:49.453Z</time>
      </trkpt>
      <trkpt lat="48.29107" lon="5.3358">
        <ele>332.19</ele>
        <time>2025-01-04T13:52:50.832Z</time>
      </trkpt>
      <trkpt lat="48.29123" lon="5.3358">
        <ele>333.14</ele>
        <time>2025-01-04T13:52:52.213Z</time>
      </trkpt>
      <trkpt lat="48.29144" lon="5.33581">
        <ele>334.1</ele>
        <time>2025-01-04T13:52:53.598Z</time>
      </trkpt>
      <trkpt lat="48.29158" lon="5.33582">
        <ele>335.06</ele>
        <time>2025-01-04T13:52:54.985Z</time>
      </trkpt>
      <trkpt lat="48.2917" lon="5.33583">
        <ele>335.98</ele>
        <time>2025-01-04T13:52:56.374Z</time>
      </trkpt>
      <trkpt lat="48.29198" lon="5.33584">
        <ele>336.85</ele>
        <time>2025-01-04T13:52:57.767Z</time>
      </trkpt>
      <trkpt lat="48.29226" lon="5.33585">
        <ele>337.65</ele>
        <time>2025-01-04T13:52:59.165Z</time>
      </trkpt>
      <trkpt lat="48.29254" lon="5.33586">
        <ele>338.49</ele>
        <time>2025-01-04T13:53:00.567Z</time>
      </trkpt>
      <trkpt lat="48.29282" lon="5.33588">
        <ele>339.31</ele>
        <time>2025-01-04T13:53:01.974Z</time>
      </trkpt>
      <trkpt lat="48.29285" lon="5.33588">
        <ele>340.05</ele>
        <time>2025-01-04T13:53:03.381Z</time>
      </trkpt>
      <trkpt lat="48.29295" lon="5.33587">
        <ele>340.79</ele>
        <time>2025-01-04T13:53:04.790Z</time>
      </trkpt>
      <trkpt lat="48.29299" lon="5.33587">
        <ele>341.49</ele>
        <time>2025-01-04T13:53:06.199Z</time>
      </trkpt>
      <trkpt lat="48.29321" lon="5.33604">
        <ele>342.12</ele>
        <time>2025-01-04T13:53:07.613Z</time>
      </trkpt>
      <trkpt lat="48.29344" lon="5.3362">
        <ele>342.87</ele>
        <time>2025-01-04T13:53:09.031Z</time>
      </trkpt>
      <trkpt lat="48.29367" lon="5.33637">
        <ele>343.66</ele>
        <time>2025-01-04T13:53:10.453Z</time>
      </trkpt>
      <trkpt lat="48.29363" lon="5.3364">
        <ele>344.27</ele>
        <time>2025-01-04T13:53:11.875Z</time>
      </trkpt>
      <trkpt lat="48.29353" lon="5.33649">
        <ele>344.86</ele>
        <time>2025-01-04T13:53:13.299Z</time>
      </trkpt>
      <trkpt lat="48.29342" lon="5.33659">
        <ele>345.42</ele>
        <time>2025-01-04T13:53:14.725Z</time>
      </trkpt>
      <trkpt lat="48.29328" lon="5.33672">
        <ele>345.98</ele>
        <time>2025-01-04T13:53:16.154Z</time>
      </trkpt>
      <trkpt lat="48.29316" lon="5.33682">
        <ele>346.54</ele>
        <time>2025-01-04T13:53:17.585Z</time>
      </trkpt>
      <trkpt lat="48.2931" lon="5.3371">
        <ele>347.34</ele>
        <time>2025-01-04T13:53:19.019Z</time>
      </trkpt>
      <trkpt lat="48.29312" lon="5.33726">
        <ele>348.02</ele>
        <time>2025-01-04T13:53:20.455Z</time>
      </trkpt>
      <trkpt lat="48.29324" lon="5.33737">
        <ele>348.63</ele>
        <time>2025-01-04T13:53:21.893Z</time>
      </trkpt>
      <trkpt lat="48.29347" lon="5.33744">
        <ele>349.2</ele>
        <time>2025-01-04T13:53:23.335Z</time>
      </trkpt>
      <trkpt lat="48.29366" lon="5.33748">
        <ele>349.76</ele>
        <time>2025-01-04T13:53:24.780Z</time>
      </trkpt>
      <trkpt lat="48.29369" lon="5.33749">
        <ele>350.27</ele>
        <time>2025-01-04T13:53:26.225Z</time>
      </trkpt>
      <trkpt lat="48.29389" lon="5.33753">
        <ele>350.81</ele>
        <time>2025-01-04T13:53:27.674Z</time>
      </trkpt>
      <trkpt lat="48.29414" lon="5.33757">
        <ele>351.3</ele>
        <time>2025-01-04T13:53:29.127Z</time>
      </trkpt>
      <trkpt lat="48.29439" lon="5.33762">
        <ele>351.72</ele>
        <time>2025-01-04T13:53:30.584Z</time>
      </trkpt>
      <trkpt lat="48.29467" lon="5.33766">
        <ele>352.16</ele>
        <time>2025-01-04T13:53:32.045Z</time>
      </trkpt>
      <trkpt lat="48.29486" lon="5.33767">
        <ele>352.53</ele>
        <time>2025-01-04T13:53:33.509Z</time>
      </trkpt>
      <trkpt lat="48.29516" lon="5.33769">
        <ele>352.91</ele>
        <time>2025-01-04T13:53:34.978Z</time>
      </trkpt>
      <trkpt lat="48.2954" lon="5.33771">
        <ele>353.28</ele>
        <time>2025-01-04T13:53:36.451Z</time>
      </trkpt>
      <trkpt lat="48.29557" lon="5.33772">
        <ele>353.58</ele>
        <time>2025-01-04T13:53:37.927Z</time>
      </trkpt>
      <trkpt lat="48.29561" lon="5.33773">
        <ele>353.82</ele>
        <time>2025-01-04T13:53:39.403Z</time>
      </trkpt>
      <trkpt lat="48.29585" lon="5.33776">
        <ele>354</ele>
        <time>2025-01-04T13:53:40.883Z</time>
      </trkpt>
      <trkpt lat="48.29606" lon="5.33778">
        <ele>354.14</ele>
        <time>2025-01-04T13:53:42.367Z</time>
      </trkpt>
      <trkpt lat="48.29635" lon="5.33782">
        <ele>354.28</ele>
        <time>2025-01-04T13:53:43.855Z</time>
      </trkpt>
      <trkpt lat="48.29648" lon="5.33784">
        <ele>354.39</ele>
        <time>2025-01-04T13:53:45.345Z</time>
      </trkpt>
      <trkpt lat="48.29661" lon="5.33786">
        <ele>354.49</ele>
        <time>2025-01-04T13:53:46.837Z</time>
      </trkpt>
      <trkpt lat="48.29682" lon="5.33788">
        <ele>354.56</ele>
        <time>2025-01-04T13:53:48.333Z</time>
      </trkpt>
      <trkpt lat="48.29698" lon="5.3379">
        <ele>354.63</ele>
        <time>2025-01-04T13:53:49.831Z</time>
      </trkpt>
      <trkpt lat="48.29713" lon="5.33792">
        <ele>354.68</ele>
        <time>2025-01-04T13:53:51.332Z</time>
      </trkpt>
      <trkpt lat="48.29733" lon="5.33795">
        <ele>354.71</ele>
        <time>2025-01-04T13:53:52.836Z</time>
      </trkpt>
      <trkpt lat="48.29752" lon="5.33797">
        <ele>354.7</ele>
        <time>2025-01-04T13:53:54.343Z</time>
      </trkpt>
      <trkpt lat="48.29769" lon="5.338">
        <ele>354.67</ele>
        <time>2025-01-04T13:53:55.853Z</time>
      </trkpt>
      <trkpt lat="48.29787" lon="5.33802">
        <ele>354.67</ele>
        <time>2025-01-04T13:53:57.366Z</time>
      </trkpt>
      <trkpt lat="48.29805" lon="5.33804">
        <ele>354.67</ele>
        <time>2025-01-04T13:53:58.882Z</time>
      </trkpt>
      <trkpt lat="48.29824" lon="5.33807">
        <ele>354.69</ele>
        <time>2025-01-04T13:54:00.401Z</time>
      </trkpt>
      <trkpt lat="48.29845" lon="5.3381">
        <ele>354.7</ele>
        <time>2025-01-04T13:54:01.923Z</time>
      </trkpt>
      <trkpt lat="48.29866" lon="5.33812">
        <ele>354.68</ele>
        <time>2025-01-04T13:54:03.448Z</time>
      </trkpt>
      <trkpt lat="48.29876" lon="5.33816">
        <ele>354.66</ele>
        <time>2025-01-04T13:54:04.975Z</time>
      </trkpt>
      <trkpt lat="48.2989" lon="5.3383">
        <ele>354.66</ele>
        <time>2025-01-04T13:54:06.505Z</time>
      </trkpt>
      <trkpt lat="48.29902" lon="5.33846">
        <ele>354.66</ele>
        <time>2025-01-04T13:54:08.037Z</time>
      </trkpt>
      <trkpt lat="48.29914" lon="5.33862">
        <ele>354.67</ele>
        <time>2025-01-04T13:54:09.572Z</time>
      </trkpt>
      <trkpt lat="48.29926" lon="5.33881">
        <ele>354.71</ele>
        <time>2025-01-04T13:54:11.110Z</time>
      </trkpt>
      <trkpt lat="48.29938" lon="5.33899">
        <ele>354.73</ele>
        <time>2025-01-04T13:54:12.650Z</time>
      </trkpt>
      <trkpt lat="48.2996" lon="5.33931">
        <ele>354.7</ele>
        <time>2025-01-04T13:54:14.195Z</time>
      </trkpt>
      <trkpt lat="48.29981" lon="5.33964">
        <ele>354.74</ele>
        <time>2025-01-04T13:54:15.745Z</time>
      </trkpt>
      <trkpt lat="48.30001" lon="5.33994">
        <ele>354.85</ele>
        <time>2025-01-04T13:54:17.300Z</time>
      </trkpt>
      <trkpt lat="48.30021" lon="5.34024">
        <ele>355.01</ele>
        <time>2025-01-04T13:54:18.859Z</time>
      </trkpt>
      <trkpt lat="48.30025" lon="5.34031">
        <ele>355.1</ele>
        <time>2025-01-04T13:54:20.419Z</time>
      </trkpt>
      <trkpt lat="48.30039" lon="5.34052">
        <ele>355.24</ele>
        <time>2025-01-04T13:54:21.982Z</time>
      </trkpt>
      <trkpt lat="48.30053" lon="5.34073">
        <ele>355.35</ele>
        <time>2025-01-04T13:54:23.549Z</time>
      </trkpt>
      <trkpt lat="48.30066" lon="5.34093">
        <ele>355.44</ele>
        <time>2025-01-04T13:54:25.118Z</time>
      </trkpt>
      <trkpt lat="48.30079" lon="5.34112">
        <ele>355.52</ele>
        <time>2025-01-04T13:54:26.690Z</time>
      </trkpt>
      <trkpt lat="48.30087" lon="5.34125">
        <ele>355.61</ele>
        <time>2025-01-04T13:54:28.264Z</time>
      </trkpt>
      <trkpt lat="48.30102" lon="5.34141">
        <ele>355.7</ele>
        <time>2025-01-04T13:54:29.841Z</time>
      </trkpt>
      <trkpt lat="48.30117" lon="5.34151">
        <ele>355.84</ele>
        <time>2025-01-04T13:54:31.421Z</time>
      </trkpt>
      <trkpt lat="48.30133" lon="5.34162">
        <ele>356</ele>
        <time>2025-01-04T13:54:33.004Z</time>
      </trkpt>
      <trkpt lat="48.30156" lon="5.34178">
        <ele>356.22</ele>
        <time>2025-01-04T13:54:34.591Z</time>
      </trkpt>
      <trkpt lat="48.30179" lon="5.34194">
        <ele>356.41</ele>
        <time>2025-01-04T13:54:36.182Z</time>
      </trkpt>
      <trkpt lat="48.30199" lon="5.34208">
        <ele>356.63</ele>
        <time>2025-01-04T13:54:37.776Z</time>
      </trkpt>
      <trkpt lat="48.30218" lon="5.34221">
        <ele>356.89</ele>
        <time>2025-01-04T13:54:39.374Z</time>
      </trkpt>
      <trkpt lat="48.30237" lon="5.34234">
        <ele>357.16</ele>
        <time>2025-01-04T13:54:40.975Z</time>
      </trkpt>
      <trkpt lat="48.30255" lon="5.34247">
        <ele>357.44</ele>
        <time>2025-01-04T13:54:42.579Z</time>
      </trkpt>
      <trkpt lat="48.30273" lon="5.3426">
        <ele>357.71</ele>
        <time>2025-01-04T13:54:44.186Z</time>
      </trkpt>
      <trkpt lat="48.30292" lon="5.34272">
        <ele>357.98</ele>
        <time>2025-01-04T13:54:45.797Z</time>
      </trkpt>
      <trkpt lat="48.30318" lon="5.34291">
        <ele>358.27</ele>
        <time>2025-01-04T13:54:47.412Z</time>
      </trkpt>
      <trkpt lat="48.30338" lon="5.34305">
        <ele>358.55</ele>
        <time>2025-01-04T13:54:49.031Z</time>
      </trkpt>
      <trkpt lat="48.30358" lon="5.34319">
        <ele>358.83</ele>
        <time>2025-01-04T13:54:50.653Z</time>
      </trkpt>
      <trkpt lat="48.30373" lon="5.34329">
        <ele>359.09</ele>
        <time>2025-01-04T13:54:52.278Z</time>
      </trkpt>
      <trkpt lat="48.30387" lon="5.34339">
        <ele>359.37</ele>
        <time>2025-01-04T13:54:53.906Z</time>
      </trkpt>
      <trkpt lat="48.30409" lon="5.34353">
        <ele>359.67</ele>
        <time>2025-01-04T13:54:55.537Z</time>
      </trkpt>
      <trkpt lat="48.3043" lon="5.34368">
        <ele>359.98</ele>
        <time>2025-01-04T13:54:57.172Z</time>
      </trkpt>
      <trkpt lat="48.30446" lon="5.3438">
        <ele>360.29</ele>
        <time>2025-01-04T13:54:58.810Z</time>
      </trkpt>
      <trkpt lat="48.30462" lon="5.34391">
        <ele>360.62</ele>
        <time>2025-01-04T13:55:00.451Z</time>
      </trkpt>
      <trkpt lat="48.30483" lon="5.34405">
        <ele>360.95</ele>
        <time>2025-01-04T13:55:02.096Z</time>
      </trkpt>
      <trkpt lat="48.30504" lon="5.3442">
        <ele>361.29</ele>
        <time>2025-01-04T13:55:03.744Z</time>
      </trkpt>
      <trkpt lat="48.30521" lon="5.34431">
        <ele>361.65</ele>
        <time>2025-01-04T13:55:05.395Z</time>
      </trkpt>
      <trkpt lat="48.30536" lon="5.34441">
        <ele>362.04</ele>
        <time>2025-01-04T13:55:07.049Z</time>
      </trkpt>
      <trkpt lat="48.30557" lon="5.34455">
        <ele>362.45</ele>
        <time>2025-01-04T13:55:08.706Z</time>
      </trkpt>
      <trkpt lat="48.30577" lon="5.34469">
        <ele>362.83</ele>
        <time>2025-01-04T13:55:10.367Z</time>
      </trkpt>
      <trkpt lat="48.30595" lon="5.34481">
        <ele>363.21</ele>
        <time>2025-01-04T13:55:12.031Z</time>
      </trkpt>
      <trkpt lat="48.30612" lon="5.34493">
        <ele>363.6</ele>
        <time>2025-01-04T13:55:13.698Z</time>
      </trkpt>
      <trkpt lat="48.30632" lon="5.34506">
        <ele>363.99</ele>
        <time>2025-01-04T13:55:15.369Z</time>
      </trkpt>
      <trkpt lat="48.30651" lon="5.34519">
        <ele>364.4</ele>
        <time>2025-01-04T13:55:17.043Z</time>
      </trkpt>
      <trkpt lat="48.30672" lon="5.34533">
        <ele>364.77</ele>
        <time>2025-01-04T13:55:18.721Z</time>
      </trkpt>
      <trkpt lat="48.30692" lon="5.34547">
        <ele>365.13</ele>
        <time>2025-01-04T13:55:20.402Z</time>
      </trkpt>
      <trkpt lat="48.3071" lon="5.34559">
        <ele>365.52</ele>
        <time>2025-01-04T13:55:22.086Z</time>
      </trkpt>
      <trkpt lat="48.30718" lon="5.34564">
        <ele>365.92</ele>
        <time>2025-01-04T13:55:23.772Z</time>
      </trkpt>
      <trkpt lat="48.30733" lon="5.34575">
        <ele>366.36</ele>
        <time>2025-01-04T13:55:25.460Z</time>
      </trkpt>
      <trkpt lat="48.30741" lon="5.3458">
        <ele>366.81</ele>
        <time>2025-01-04T13:55:27.150Z</time>
      </trkpt>
      <trkpt lat="48.30762" lon="5.34594">
        <ele>367.29</ele>
        <time>2025-01-04T13:55:28.843Z</time>
      </trkpt>
      <trkpt lat="48.30782" lon="5.34608">
        <ele>367.79</ele>
        <time>2025-01-04T13:55:30.540Z</time>
      </trkpt>
      <trkpt lat="48.30799" lon="5.34619">
        <ele>368.36</ele>
        <time>2025-01-04T13:55:32.240Z</time>
      </trkpt>
      <trkpt lat="48.30816" lon="5.34631">
        <ele>368.92</ele>
        <time>2025-01-04T13:55:33.943Z</time>
      </trkpt>
      <trkpt lat="48.30841" lon="5.34648">
        <ele>369.51</ele>
        <time>2025-01-04T13:55:35.650Z</time>
      </trkpt>
      <trkpt lat="48.30869" lon="5.34667">
        <ele>370.1</ele>
        <time>2025-01-04T13:55:37.362Z</time>
      </trkpt>
      <trkpt lat="48.30893" lon="5.34683">
        <ele>370.67</ele>
        <time>2025-01-04T13:55:39.078Z</time>
      </trkpt>
      <trkpt lat="48.30909" lon="5.34694">
        <ele>371.33</ele>
        <time>2025-01-04T13:55:40.797Z</time>
      </trkpt>
      <trkpt lat="48.30926" lon="5.34706">
        <ele>372.15</ele>
        <time>2025-01-04T13:55:42.519Z</time>
      </trkpt>
      <trkpt lat="48.30931" lon="5.34709">
        <ele>372.92</ele>
        <time>2025-01-04T13:55:44.242Z</time>
      </trkpt>
      <trkpt lat="48.30935" lon="5.34711">
        <ele>373.71</ele>
        <time>2025-01-04T13:55:45.966Z</time>
      </trkpt>
      <trkpt lat="48.30953" lon="5.34724">
        <ele>374.65</ele>
        <time>2025-01-04T13:55:47.693Z</time>
      </trkpt>
      <trkpt lat="48.30977" lon="5.3474">
        <ele>375.57</ele>
        <time>2025-01-04T13:55:49.424Z</time>
      </trkpt>
      <trkpt lat="48.30993" lon="5.34751">
        <ele>376.4</ele>
        <time>2025-01-04T13:55:51.158Z</time>
      </trkpt>
      <trkpt lat="48.3101" lon="5.34762">
        <ele>377.31</ele>
        <time>2025-01-04T13:55:52.895Z</time>
      </trkpt>
      <trkpt lat="48.31025" lon="5.34773">
        <ele>378.24</ele>
        <time>2025-01-04T13:55:54.635Z</time>
      </trkpt>
      <trkpt lat="48.31041" lon="5.34783">
        <ele>379.18</ele>
        <time>2025-01-04T13:55:56.377Z</time>
      </trkpt>
      <trkpt lat="48.31061" lon="5.34797">
        <ele>380.14</ele>
        <time>2025-01-04T13:55:58.123Z</time>
      </trkpt>
      <trkpt lat="48.31082" lon="5.34811">
        <ele>381.11</ele>
        <time>2025-01-04T13:55:59.873Z</time>
      </trkpt>
      <trkpt lat="48.31097" lon="5.34821">
        <ele>382.1</ele>
        <time>2025-01-04T13:56:01.625Z</time>
      </trkpt>
      <trkpt lat="48.31112" lon="5.34832">
        <ele>383.15</ele>
        <time>2025-01-04T13:56:03.380Z</time>
      </trkpt>
      <trkpt lat="48.31132" lon="5.34845">
        <ele>384.27</ele>
        <time>2025-01-04T13:56:05.139Z</time>
      </trkpt>
      <trkpt lat="48.31137" lon="5.34849">
        <ele>385.32</ele>
        <time>2025-01-04T13:56:06.898Z</time>
      </trkpt>
      <trkpt lat="48.31146" lon="5.34855">
        <ele>386.39</ele>
        <time>2025-01-04T13:56:08.659Z</time>
      </trkpt>
      <trkpt lat="48.31159" lon="5.34863">
        <ele>387.47</ele>
        <time>2025-01-04T13:56:10.422Z</time>
      </trkpt>
      <trkpt lat="48.31177" lon="5.34875">
        <ele>388.54</ele>
        <time>2025-01-04T13:56:12.188Z</time>
      </trkpt>
      <trkpt lat="48.31194" lon="5.34887">
        <ele>389.59</ele>
        <time>2025-01-04T13:56:13.957Z</time>
      </trkpt>
      <trkpt lat="48.31211" lon="5.34899">
        <ele>390.62</ele>
        <time>2025-01-04T13:56:15.729Z</time>
      </trkpt>
      <trkpt lat="48.31236" lon="5.34916">
        <ele>391.66</ele>
        <time>2025-01-04T13:56:17.506Z</time>
      </trkpt>
      <trkpt lat="48.31251" lon="5.34926">
        <ele>392.64</ele>
        <time>2025-01-04T13:56:19.285Z</time>
      </trkpt>
      <trkpt lat="48.31263" lon="5.34934">
        <ele>393.57</ele>
        <time>2025-01-04T13:56:21.066Z</time>
      </trkpt>
      <trkpt lat="48.3128" lon="5.34945">
        <ele>394.49</ele>
        <time>2025-01-04T13:56:22.850Z</time>
      </trkpt>
      <trkpt lat="48.31291" lon="5.34953">
        <ele>395.35</ele>
        <time>2025-01-04T13:56:24.636Z</time>
      </trkpt>
      <trkpt lat="48.31306" lon="5.34963">
        <ele>396.19</ele>
        <time>2025-01-04T13:56:26.425Z</time>
      </trkpt>
      <trkpt lat="48.31323" lon="5.34975">
        <ele>397</ele>
        <time>2025-01-04T13:56:28.217Z</time>
      </trkpt>
      <trkpt lat="48.31336" lon="5.34983">
        <ele>397.73</ele>
        <time>2025-01-04T13:56:30.011Z</time>
      </trkpt>
      <trkpt lat="48.31354" lon="5.34996">
        <ele>398.43</ele>
        <time>2025-01-04T13:56:31.809Z</time>
      </trkpt>
      <trkpt lat="48.31374" lon="5.35009">
        <ele>399.04</ele>
        <time>2025-01-04T13:56:33.610Z</time>
      </trkpt>
      <trkpt lat="48.31397" lon="5.35025">
        <ele>399.57</ele>
        <time>2025-01-04T13:56:35.415Z</time>
      </trkpt>
      <trkpt lat="48.31417" lon="5.35038">
        <ele>400.06</ele>
        <time>2025-01-04T13:56:37.224Z</time>
      </trkpt>
      <trkpt lat="48.31429" lon="5.35046">
        <ele>400.49</ele>
        <time>2025-01-04T13:56:39.035Z</time>
      </trkpt>
      <trkpt lat="48.31433" lon="5.35049">
        <ele>400.83</ele>
        <time>2025-01-04T13:56:40.846Z</time>
      </trkpt>
      <trkpt lat="48.31446" lon="5.35058">
        <ele>401.12</ele>
        <time>2025-01-04T13:56:42.660Z</time>
      </trkpt>
      <trkpt lat="48.31461" lon="5.35068">
        <ele>401.33</ele>
        <time>2025-01-04T13:56:44.476Z</time>
      </trkpt>
      <trkpt lat="48.31487" lon="5.35086">
        <ele>401.47</ele>
        <time>2025-01-04T13:56:46.297Z</time>
      </trkpt>
      <trkpt lat="48.31496" lon="5.35092">
        <ele>401.56</ele>
        <time>2025-01-04T13:56:48.119Z</time>
      </trkpt>
      <trkpt lat="48.31506" lon="5.35099">
        <ele>401.61</ele>
        <time>2025-01-04T13:56:49.943Z</time>
      </trkpt>
      <trkpt lat="48.31517" lon="5.35106">
        <ele>401.62</ele>
        <time>2025-01-04T13:56:51.769Z</time>
      </trkpt>
      <trkpt lat="48.31522" lon="5.3511">
        <ele>401.6</ele>
        <time>2025-01-04T13:56:53.596Z</time>
      </trkpt>
      <trkpt lat="48.31538" lon="5.3512">
        <ele>401.53</ele>
        <time>2025-01-04T13:56:55.426Z</time>
      </trkpt>
      <trkpt lat="48.31554" lon="5.35131">
        <ele>401.45</ele>
        <time>2025-01-04T13:56:57.259Z</time>
      </trkpt>
      <trkpt lat="48.31571" lon="5.35143">
        <ele>401.4</ele>
        <time>2025-01-04T13:56:59.095Z</time>
      </trkpt>
      <trkpt lat="48.31588" lon="5.35154">
        <ele>401.31</ele>
        <time>2025-01-04T13:57:00.934Z</time>
      </trkpt>
      <trkpt lat="48.31608" lon="5.35168">
        <ele>401.17</ele>
        <time>2025-01-04T13:57:02.776Z</time>
      </trkpt>
      <trkpt lat="48.31628" lon="5.35181">
        <ele>400.96</ele>
        <time>2025-01-04T13:57:04.622Z</time>
      </trkpt>
      <trkpt lat="48.31644" lon="5.35192">
        <ele>400.78</ele>
        <time>2025-01-04T13:57:06.470Z</time>
      </trkpt>
      <trkpt lat="48.3166" lon="5.35203">
        <ele>400.59</ele>
        <time>2025-01-04T13:57:08.321Z</time>
      </trkpt>
      <trkpt lat="48.31685" lon="5.3522">
        <ele>400.42</ele>
        <time>2025-01-04T13:57:10.177Z</time>
      </trkpt>
      <trkpt lat="48.31709" lon="5.35236">
        <ele>400.33</ele>
        <time>2025-01-04T13:57:12.037Z</time>
      </trkpt>
      <trkpt lat="48.31727" lon="5.35249">
        <ele>400.25</ele>
        <time>2025-01-04T13:57:13.900Z</time>
      </trkpt>
      <trkpt lat="48.31746" lon="5.35261">
        <ele>400.17</ele>
        <time>2025-01-04T13:57:15.766Z</time>
      </trkpt>
      <trkpt lat="48.31764" lon="5.35274">
        <ele>400.13</ele>
        <time>2025-01-04T13:57:17.636Z</time>
      </trkpt>
      <trkpt lat="48.31783" lon="5.35286">
        <ele>400.12</ele>
        <time>2025-01-04T13:57:19.509Z</time>
      </trkpt>
      <trkpt lat="48.31788" lon="5.3529">
        <ele>400.09</ele>
        <time>2025-01-04T13:57:21.383Z</time>
      </trkpt>
      <trkpt lat="48.31797" lon="5.35296">
        <ele>400.08</ele>
        <time>2025-01-04T13:57:23.258Z</time>
      </trkpt>
      <trkpt lat="48.31807" lon="5.35302">
        <ele>400.08</ele>
        <time>2025-01-04T13:57:25.135Z</time>
      </trkpt>
      <trkpt lat="48.3183" lon="5.35319">
        <ele>400.09</ele>
        <time>2025-01-04T13:57:27.016Z</time>
      </trkpt>
      <trkpt lat="48.31847" lon="5.3533">
        <ele>400.07</ele>
        <time>2025-01-04T13:57:28.900Z</time>
      </trkpt>
      <trkpt lat="48.31851" lon="5.35333">
        <ele>400.06</ele>
        <time>2025-01-04T13:57:30.785Z</time>
      </trkpt>
      <trkpt lat="48.3187" lon="5.35346">
        <ele>400.06</ele>
        <time>2025-01-04T13:57:32.673Z</time>
      </trkpt>
      <trkpt lat="48.31895" lon="5.35363">
        <ele>400.06</ele>
        <time>2025-01-04T13:57:34.566Z</time>
      </trkpt>
      <trkpt lat="48.31904" lon="5.3537">
        <ele>400.04</ele>
        <time>2025-01-04T13:57:36.460Z</time>
      </trkpt>
      <trkpt lat="48.31914" lon="5.35377">
        <ele>400.01</ele>
        <time>2025-01-04T13:57:38.356Z</time>
      </trkpt>
      <trkpt lat="48.31932" lon="5.35389">
        <ele>399.97</ele>
        <time>2025-01-04T13:57:40.255Z</time>
      </trkpt>
      <trkpt lat="48.31954" lon="5.35404">
        <ele>399.93</ele>
        <time>2025-01-04T13:57:42.158Z</time>
      </trkpt>
      <trkpt lat="48.3197" lon="5.35415">
        <ele>399.87</ele>
        <time>2025-01-04T13:57:44.064Z</time>
      </trkpt>
      <trkpt lat="48.31986" lon="5.35426">
        <ele>399.81</ele>
        <time>2025-01-04T13:57:45.973Z</time>
      </trkpt>
      <trkpt lat="48.32001" lon="5.35436">
        <ele>399.73</ele>
        <time>2025-01-04T13:57:47.884Z</time>
      </trkpt>
      <trkpt lat="48.32016" lon="5.35446">
        <ele>399.64</ele>
        <time>2025-01-04T13:57:49.798Z</time>
      </trkpt>
      <trkpt lat="48.32038" lon="5.35461">
        <ele>399.5</ele>
        <time>2025-01-04T13:57:51.716Z</time>
      </trkpt>
      <trkpt lat="48.32053" lon="5.35472">
        <ele>399.32</ele>
        <time>2025-01-04T13:57:53.636Z</time>
      </trkpt>
      <trkpt lat="48.32068" lon="5.35483">
        <ele>399.1</ele>
        <time>2025-01-04T13:57:55.559Z</time>
      </trkpt>
      <trkpt lat="48.32095" lon="5.35501">
        <ele>398.77</ele>
        <time>2025-01-04T13:57:57.487Z</time>
      </trkpt>
      <trkpt lat="48.32122" lon="5.3552">
        <ele>398.51</ele>
        <time>2025-01-04T13:57:59.420Z</time>
      </trkpt>
      <trkpt lat="48.32147" lon="5.35537">
        <ele>398.37</ele>
        <time>2025-01-04T13:58:01.357Z</time>
      </trkpt>
      <trkpt lat="48.32172" lon="5.35554">
        <ele>398.23</ele>
        <time>2025-01-04T13:58:03.298Z</time>
      </trkpt>
      <trkpt lat="48.32185" lon="5.35563">
        <ele>398.1</ele>
        <time>2025-01-04T13:58:05.242Z</time>
      </trkpt>
      <trkpt lat="48.3221" lon="5.3558">
        <ele>397.93</ele>
        <time>2025-01-04T13:58:07.190Z</time>
      </trkpt>
      <trkpt lat="48.32235" lon="5.35598">
        <ele>397.76</ele>
        <time>2025-01-04T13:58:09.143Z</time>
      </trkpt>
      <trkpt lat="48.32247" lon="5.35606">
        <ele>397.65</ele>
        <time>2025-01-04T13:58:11.098Z</time>
      </trkpt>
      <trkpt lat="48.32272" lon="5.35623">
        <ele>397.6</ele>
        <time>2025-01-04T13:58:13.057Z</time>
      </trkpt>
      <trkpt lat="48.32297" lon="5.3564">
        <ele>397.61</ele>
        <time>2025-01-04T13:58:15.021Z</time>
      </trkpt>
      <trkpt lat="48.3231" lon="5.35649">
        <ele>397.57</ele>
        <time>2025-01-04T13:58:16.987Z</time>
      </trkpt>
      <trkpt lat="48.32329" lon="5.35662">
        <ele>397.56</ele>
        <time>2025-01-04T13:58:18.956Z</time>
      </trkpt>
      <trkpt lat="48.32349" lon="5.35676">
        <ele>397.47</ele>
        <time>2025-01-04T13:58:20.929Z</time>
      </trkpt>
      <trkpt lat="48.32365" lon="5.35687">
        <ele>397.35</ele>
        <time>2025-01-04T13:58:22.904Z</time>
      </trkpt>
      <trkpt lat="48.3238" lon="5.35698">
        <ele>397.2</ele>
        <time>2025-01-04T13:58:24.882Z</time>
      </trkpt>
      <trkpt lat="48.32397" lon="5.35709">
        <ele>397.03</ele>
        <time>2025-01-04T13:58:26.863Z</time>
      </trkpt>
      <trkpt lat="48.32413" lon="5.3572">
        <ele>396.82</ele>
        <time>2025-01-04T13:58:28.847Z</time>
      </trkpt>
      <trkpt lat="48.32431" lon="5.35731">
        <ele>396.55</ele>
        <time>2025-01-04T13:58:30.834Z</time>
      </trkpt>
      <trkpt lat="48.32448" lon="5.35742">
        <ele>396.25</ele>
        <time>2025-01-04T13:58:32.824Z</time>
      </trkpt>
      <trkpt lat="48.32478" lon="5.35754">
        <ele>395.89</ele>
        <time>2025-01-04T13:58:34.819Z</time>
      </trkpt>
      <trkpt lat="48.32484" lon="5.35755">
        <ele>395.49</ele>
        <time>2025-01-04T13:58:36.815Z</time>
      </trkpt>
      <trkpt lat="48.32507" lon="5.3576">
        <ele>395.03</ele>
        <time>2025-01-04T13:58:38.815Z</time>
      </trkpt>
      <trkpt lat="48.32529" lon="5.35765">
        <ele>394.56</ele>
        <time>2025-01-04T13:58:40.818Z</time>
      </trkpt>
      <trkpt lat="48.32548" lon="5.35768">
        <ele>394.07</ele>
        <time>2025-01-04T13:58:42.824Z</time>
      </trkpt>
      <trkpt lat="48.32566" lon="5.35772">
        <ele>393.5</ele>
        <time>2025-01-04T13:58:44.833Z</time>
      </trkpt>
      <trkpt lat="48.3258" lon="5.35777">
        <ele>392.89</ele>
        <time>2025-01-04T13:58:46.844Z</time>
      </trkpt>
      <trkpt lat="48.32592" lon="5.35789">
        <ele>392.24</ele>
        <time>2025-01-04T13:58:48.858Z</time>
      </trkpt>
      <trkpt lat="48.3261" lon="5.35808">
        <ele>391.54</ele>
        <time>2025-01-04T13:58:50.875Z</time>
      </trkpt>
      <trkpt lat="48.32628" lon="5.35827">
        <ele>390.79</ele>
        <time>2025-01-04T13:58:52.896Z</time>
      </trkpt>
      <trkpt lat="48.32641" lon="5.35847">
        <ele>390.08</ele>
        <time>2025-01-04T13:58:54.920Z</time>
      </trkpt>
      <trkpt lat="48.32653" lon="5.35866">
        <ele>389.36</ele>
        <time>2025-01-04T13:58:56.947Z</time>
      </trkpt>
      <trkpt lat="48.32668" lon="5.35889">
        <ele>388.63</ele>
        <time>2025-01-04T13:58:58.977Z</time>
      </trkpt>
      <trkpt lat="48.32676" lon="5.35907">
        <ele>387.89</ele>
        <time>2025-01-04T13:59:01.009Z</time>
      </trkpt>
      <trkpt lat="48.32684" lon="5.35935">
        <ele>387.16</ele>
        <time>2025-01-04T13:59:03.045Z</time>
      </trkpt>
      <trkpt lat="48.32693" lon="5.35975">
        <ele>386.5</ele>
        <time>2025-01-04T13:59:05.085Z</time>
      </trkpt>
      <trkpt lat="48.32698" lon="5.35992">
        <ele>385.95</ele>
        <time>2025-01-04T13:59:07.127Z</time>
      </trkpt>
      <trkpt lat="48.32707" lon="5.36016">
        <ele>385.42</ele>
        <time>2025-01-04T13:59:09.172Z</time>
      </trkpt>
      <trkpt lat="48.3272" lon="5.36032">
        <ele>384.9</ele>
        <time>2025-01-04T13:59:11.220Z</time>
      </trkpt>
      <trkpt lat="48.32732" lon="5.36048">
        <ele>384.45</ele>
        <time>2025-01-04T13:59:13.270Z</time>
      </trkpt>
      <trkpt lat="48.32747" lon="5.36062">
        <ele>384.04</ele>
        <time>2025-01-04T13:59:15.323Z</time>
      </trkpt>
      <trkpt lat="48.32763" lon="5.36076">
        <ele>383.73</ele>
        <time>2025-01-04T13:59:17.379Z</time>
      </trkpt>
      <trkpt lat="48.32781" lon="5.36085">
        <ele>383.48</ele>
        <time>2025-01-04T13:59:19.438Z</time>
      </trkpt>
      <trkpt lat="48.328" lon="5.36094">
        <ele>383.28</ele>
        <time>2025-01-04T13:59:21.500Z</time>
      </trkpt>
      <trkpt lat="48.32817" lon="5.36103">
        <ele>383.14</ele>
        <time>2025-01-04T13:59:23.565Z</time>
      </trkpt>
      <trkpt lat="48.32831" lon="5.36109">
        <ele>383.06</ele>
        <time>2025-01-04T13:59:25.633Z</time>
      </trkpt>
      <trkpt lat="48.3286" lon="5.36113">
        <ele>383.09</ele>
        <time>2025-01-04T13:59:27.705Z</time>
      </trkpt>
      <trkpt lat="48.32888" lon="5.36118">
        <ele>383.21</ele>
        <time>2025-01-04T13:59:29.782Z</time>
      </trkpt>
      <trkpt lat="48.32905" lon="5.36121">
        <ele>383.34</ele>
        <time>2025-01-04T13:59:31.861Z</time>
      </trkpt>
      <trkpt lat="48.32922" lon="5.36123">
        <ele>383.5</ele>
        <time>2025-01-04T13:59:33.943Z</time>
      </trkpt>
      <trkpt lat="48.32942" lon="5.36132">
        <ele>383.68</ele>
        <time>2025-01-04T13:59:36.028Z</time>
      </trkpt>
      <trkpt lat="48.32961" lon="5.3614">
        <ele>383.93</ele>
        <time>2025-01-04T13:59:38.117Z</time>
      </trkpt>
      <trkpt lat="48.32983" lon="5.3615">
        <ele>384.21</ele>
        <time>2025-01-04T13:59:40.209Z</time>
      </trkpt>
      <trkpt lat="48.33005" lon="5.3616">
        <ele>384.49</ele>
        <time>2025-01-04T13:59:42.305Z</time>
      </trkpt>
      <trkpt lat="48.33029" lon="5.3617">
        <ele>384.76</ele>
        <time>2025-01-04T13:59:44.405Z</time>
      </trkpt>
      <trkpt lat="48.33052" lon="5.36181">
        <ele>385.1</ele>
        <time>2025-01-04T13:59:46.509Z</time>
      </trkpt>
      <trkpt lat="48.33071" lon="5.36187">
        <ele>385.45</ele>
        <time>2025-01-04T13:59:48.616Z</time>
      </trkpt>
      <trkpt lat="48.33089" lon="5.36193">
        <ele>385.83</ele>
        <time>2025-01-04T13:59:50.726Z</time>
      </trkpt>
      <trkpt lat="48.33111" lon="5.36199">
        <ele>386.23</ele>
        <time>2025-01-04T13:59:52.840Z</time>
      </trkpt>
      <trkpt lat="48.33133" lon="5.36206">
        <ele>386.63</ele>
        <time>2025-01-04T13:59:54.957Z</time>
      </trkpt>
      <trkpt lat="48.33155" lon="5.36213">
        <ele>387.06</ele>
        <time>2025-01-04T13:59:57.078Z</time>
      </trkpt>
      <trkpt lat="48.33178" lon="5.3622">
        <ele>387.54</ele>
        <time>2025-01-04T13:59:59.202Z</time>
      </trkpt>
      <trkpt lat="48.33205" lon="5.36227">
        <ele>388.06</ele>
        <time>2025-01-04T14:00:01.331Z</time>
      </trkpt>
      <trkpt lat="48.33233" lon="5.36234">
        <ele>388.59</ele>
        <time>2025-01-04T14:00:03.464Z</time>
      </trkpt>
      <trkpt lat="48.3326" lon="5.36239">
        <ele>389.09</ele>
        <time>2025-01-04T14:00:05.602Z</time>
      </trkpt>
      <trkpt lat="48.33288" lon="5.36243">
        <ele>389.69</ele>
        <time>2025-01-04T14:00:07.744Z</time>
      </trkpt>
      <trkpt lat="48.33311" lon="5.36237">
        <ele>390.36</ele>
        <time>2025-01-04T14:00:09.890Z</time>
      </trkpt>
      <trkpt lat="48.33334" lon="5.36231">
        <ele>391.1</ele>
        <time>2025-01-04T14:00:12.040Z</time>
      </trkpt>
      <trkpt lat="48.33358" lon="5.36225">
        <ele>391.86</ele>
        <time>2025-01-04T14:00:14.194Z</time>
      </trkpt>
      <trkpt lat="48.33383" lon="5.36219">
        <ele>392.71</ele>
        <time>2025-01-04T14:00:16.352Z</time>
      </trkpt>
      <trkpt lat="48.33402" lon="5.36215">
        <ele>393.6</ele>
        <time>2025-01-04T14:00:18.513Z</time>
      </trkpt>
      <trkpt lat="48.3342" lon="5.3621">
        <ele>394.54</ele>
        <time>2025-01-04T14:00:20.677Z</time>
      </trkpt>
      <trkpt lat="48.3345" lon="5.36203">
        <ele>395.53</ele>
        <time>2025-01-04T14:00:22.846Z</time>
      </trkpt>
      <trkpt lat="48.33467" lon="5.36201">
        <ele>396.48</ele>
        <time>2025-01-04T14:00:25.017Z</time>
      </trkpt>
      <trkpt lat="48.33483" lon="5.36198">
        <ele>397.44</ele>
        <time>2025-01-04T14:00:27.191Z</time>
      </trkpt>
      <trkpt lat="48.33499" lon="5.36195">
        <ele>398.38</ele>
        <time>2025-01-04T14:00:29.367Z</time>
      </trkpt>
      <trkpt lat="48.33515" lon="5.36192">
        <ele>399.35</ele>
        <time>2025-01-04T14:00:31.546Z</time>
      </trkpt>
      <trkpt lat="48.33534" lon="5.36189">
        <ele>400.3</ele>
        <time>2025-01-04T14:00:33.728Z</time>
      </trkpt>
      <trkpt lat="48.33554" lon="5.36185">
        <ele>401.24</ele>
        <time>2025-01-04T14:00:35.913Z</time>
      </trkpt>
      <trkpt lat="48.3358" lon="5.36181">
        <ele>402.21</ele>
        <time>2025-01-04T14:00:38.103Z</time>
      </trkpt>
      <trkpt lat="48.33604" lon="5.36177">
        <ele>403.13</ele>
        <time>2025-01-04T14:00:40.296Z</time>
      </trkpt>
      <trkpt lat="48.33627" lon="5.36173">
        <ele>403.97</ele>
        <time>2025-01-04T14:00:42.493Z</time>
      </trkpt>
      <trkpt lat="48.3363" lon="5.36172">
        <ele>404.74</ele>
        <time>2025-01-04T14:00:44.691Z</time>
      </trkpt>
      <trkpt lat="48.33654" lon="5.36168">
        <ele>405.51</ele>
        <time>2025-01-04T14:00:46.892Z</time>
      </trkpt>
      <trkpt lat="48.33679" lon="5.36164">
        <ele>406.23</ele>
        <time>2025-01-04T14:00:49.097Z</time>
      </trkpt>
      <trkpt lat="48.33701" lon="5.3616">
        <ele>406.89</ele>
        <time>2025-01-04T14:00:51.306Z</time>
      </trkpt>
      <trkpt lat="48.33732" lon="5.36154">
        <ele>407.5</ele>
        <time>2025-01-04T14:00:53.520Z</time>
      </trkpt>
      <trkpt lat="48.3376" lon="5.36149">
        <ele>408.06</ele>
        <time>2025-01-04T14:00:55.739Z</time>
      </trkpt>
      <trkpt lat="48.33776" lon="5.36147">
        <ele>408.56</ele>
        <time>2025-01-04T14:00:57.960Z</time>
      </trkpt>
      <trkpt lat="48.33793" lon="5.36144">
        <ele>409</ele>
        <time>2025-01-04T14:01:00.184Z</time>
      </trkpt>
      <trkpt lat="48.33809" lon="5.36143">
        <ele>409.36</ele>
        <time>2025-01-04T14:01:02.410Z</time>
      </trkpt>
      <trkpt lat="48.33826" lon="5.36142">
        <ele>409.61</ele>
        <time>2025-01-04T14:01:04.639Z</time>
      </trkpt>
      <trkpt lat="48.33844" lon="5.36142">
        <ele>409.78</ele>
        <time>2025-01-04T14:01:06.871Z</time>
      </trkpt>
      <trkpt lat="48.33863" lon="5.36142">
        <ele>409.86</ele>
        <time>2025-01-04T14:01:09.106Z</time>
      </trkpt>
      <trkpt lat="48.33888" lon="5.36142">
        <ele>409.85</ele>
        <time>2025-01-04T14:01:11.345Z</time>
      </trkpt>
      <trkpt lat="48.33913" lon="5.36142">
        <ele>409.84</ele>
        <time>2025-01-04T14:01:13.588Z</time>
      </trkpt>
      <trkpt lat="48.33941" lon="5.36143">
        <ele>409.83</ele>
        <time>2025-01-04T14:01:15.836Z</time>
      </trkpt>
      <trkpt lat="48.33969" lon="5.36143">
        <ele>409.77</ele>
        <time>2025-01-04T14:01:18.088Z</time>
      </trkpt>
      <trkpt lat="48.33976" lon="5.36143">
        <ele>409.68</ele>
        <time>2025-01-04T14:01:20.341Z</time>
      </trkpt>
      <trkpt lat="48.33996" lon="5.36143">
        <ele>409.52</ele>
        <time>2025-01-04T14:01:22.597Z</time>
      </trkpt>
      <trkpt lat="48.34016" lon="5.36143">
        <ele>409.37</ele>
        <time>2025-01-04T14:01:24.857Z</time>
      </trkpt>
      <trkpt lat="48.34038" lon="5.36144">
        <ele>409.22</ele>
        <time>2025-01-04T14:01:27.120Z</time>
      </trkpt>
      <trkpt lat="48.34061" lon="5.36145">
        <ele>409.06</ele>
        <time>2025-01-04T14:01:29.387Z</time>
      </trkpt>
      <trkpt lat="48.34089" lon="5.36141">
        <ele>408.84</ele>
        <time>2025-01-04T14:01:31.658Z</time>
      </trkpt>
      <trkpt lat="48.34118" lon="5.36137">
        <ele>408.7</ele>
        <time>2025-01-04T14:01:33.934Z</time>
      </trkpt>
      <trkpt lat="48.34146" lon="5.36126">
        <ele>408.62</ele>
        <time>2025-01-04T14:01:36.215Z</time>
      </trkpt>
      <trkpt lat="48.34174" lon="5.36114">
        <ele>408.57</ele>
        <time>2025-01-04T14:01:38.500Z</time>
      </trkpt>
      <trkpt lat="48.34201" lon="5.36101">
        <ele>408.5</ele>
        <time>2025-01-04T14:01:40.790Z</time>
      </trkpt>
      <trkpt lat="48.34228" lon="5.36088">
        <ele>408.47</ele>
        <time>2025-01-04T14:01:43.084Z</time>
      </trkpt>
      <trkpt lat="48.34235" lon="5.36084">
        <ele>408.48</ele>
        <time>2025-01-04T14:01:45.379Z</time>
      </trkpt>
      <trkpt lat="48.34263" lon="5.36071">
        <ele>408.57</ele>
        <time>2025-01-04T14:01:47.679Z</time>
      </trkpt>
      <trkpt lat="48.34291" lon="5.36057">
        <ele>408.73</ele>
        <time>2025-01-04T14:01:49.984Z</time>
      </trkpt>
      <trkpt lat="48.34317" lon="5.36045">
        <ele>408.87</ele>
        <time>2025-01-04T14:01:52.293Z</time>
      </trkpt>
      <trkpt lat="48.34343" lon="5.36032">
        <ele>409.02</ele>
        <time>2025-01-04T14:01:54.607Z</time>
      </trkpt>
      <trkpt lat="48.34363" lon="5.36022">
        <ele>409.14</ele>
        <time>2025-01-04T14:01:56.924Z</time>
      </trkpt>
      <trkpt lat="48.34383" lon="5.36012">
        <ele>409.2</ele>
        <time>2025-01-04T14:01:59.244Z</time>
      </trkpt>
      <trkpt lat="48.3441" lon="5.36">
        <ele>409.26</ele>
        <time>2025-01-04T14:02:01.569Z</time>
      </trkpt>
      <trkpt lat="48.34436" lon="5.35987">
        <ele>409.31</ele>
        <time>2025-01-04T14:02:03.898Z</time>
      </trkpt>
      <trkpt lat="48.34461" lon="5.35976">
        <ele>409.32</ele>
        <time>2025-01-04T14:02:06.232Z</time>
      </trkpt>
      <trkpt lat="48.34487" lon="5.35965">
        <ele>409.26</ele>
        <time>2025-01-04T14:02:08.570Z</time>
      </trkpt>
      <trkpt lat="48.34512" lon="5.35954">
        <ele>409.16</ele>
        <time>2025-01-04T14:02:10.912Z</time>
      </trkpt>
      <trkpt lat="48.34537" lon="5.35944">
        <ele>409.03</ele>
        <time>2025-01-04T14:02:13.258Z</time>
      </trkpt>
      <trkpt lat="48.34561" lon="5.35934">
        <ele>408.92</ele>
        <time>2025-01-04T14:02:15.608Z</time>
      </trkpt>
      <trkpt lat="48.34585" lon="5.35924">
        <ele>408.79</ele>
        <time>2025-01-04T14:02:17.962Z</time>
      </trkpt>
      <trkpt lat="48.34609" lon="5.35914">
        <ele>408.61</ele>
        <time>2025-01-04T14:02:20.320Z</time>
      </trkpt>
      <trkpt lat="48.34633" lon="5.35904">
        <ele>408.45</ele>
        <time>2025-01-04T14:02:22.682Z</time>
      </trkpt>
      <trkpt lat="48.34659" lon="5.35895">
        <ele>408.32</ele>
        <time>2025-01-04T14:02:25.048Z</time>
      </trkpt>
      <trkpt lat="48.34685" lon="5.35885">
        <ele>408.12</ele>
        <time>2025-01-04T14:02:27.419Z</time>
      </trkpt>
      <trkpt lat="48.34701" lon="5.35881">
        <ele>407.85</ele>
        <time>2025-01-04T14:02:29.792Z</time>
      </trkpt>
      <trkpt lat="48.34716" lon="5.35877">
        <ele>407.56</ele>
        <time>2025-01-04T14:02:32.168Z</time>
      </trkpt>
      <trkpt lat="48.34724" lon="5.35875">
        <ele>407.29</ele>
        <time>2025-01-04T14:02:34.545Z</time>
      </trkpt>
      <trkpt lat="48.34749" lon="5.35871">
        <ele>406.98</ele>
        <time>2025-01-04T14:02:36.926Z</time>
      </trkpt>
      <trkpt lat="48.34775" lon="5.35867">
        <ele>406.62</ele>
        <time>2025-01-04T14:02:39.311Z</time>
      </trkpt>
      <trkpt lat="48.34803" lon="5.35865">
        <ele>406.32</ele>
        <time>2025-01-04T14:02:41.701Z</time>
      </trkpt>
      <trkpt lat="48.34831" lon="5.35863">
        <ele>406.04</ele>
        <time>2025-01-04T14:02:44.095Z</time>
      </trkpt>
      <trkpt lat="48.34841" lon="5.35863">
        <ele>405.79</ele>
        <time>2025-01-04T14:02:46.491Z</time>
      </trkpt>
      <trkpt lat="48.3487" lon="5.35861">
        <ele>405.58</ele>
        <time>2025-01-04T14:02:48.891Z</time>
      </trkpt>
      <trkpt lat="48.34899" lon="5.35859">
        <ele>405.31</ele>
        <time>2025-01-04T14:02:51.296Z</time>
      </trkpt>
      <trkpt lat="48.34919" lon="5.35858">
        <ele>405.01</ele>
        <time>2025-01-04T14:02:53.704Z</time>
      </trkpt>
      <trkpt lat="48.34948" lon="5.35856">
        <ele>404.69</ele>
        <time>2025-01-04T14:02:56.117Z</time>
      </trkpt>
      <trkpt lat="48.34977" lon="5.35854">
        <ele>404.38</ele>
        <time>2025-01-04T14:02:58.535Z</time>
      </trkpt>
      <trkpt lat="48.34995" lon="5.35853">
        <ele>404.15</ele>
        <time>2025-01-04T14:03:00.956Z</time>
      </trkpt>
      <trkpt lat="48.35022" lon="5.35851">
        <ele>403.95</ele>
        <time>2025-01-04T14:03:03.381Z</time>
      </trkpt>
      <trkpt lat="48.35049" lon="5.35849">
        <ele>403.8</ele>
        <time>2025-01-04T14:03:05.810Z</time>
      </trkpt>
      <trkpt lat="48.35079" lon="5.35848">
        <ele>403.62</ele>
        <time>2025-01-04T14:03:08.244Z</time>
      </trkpt>
      <trkpt lat="48.35109" lon="5.35846">
        <ele>403.54</ele>
        <time>2025-01-04T14:03:10.683Z</time>
      </trkpt>
      <trkpt lat="48.35117" lon="5.35845">
        <ele>403.4</ele>
        <time>2025-01-04T14:03:13.123Z</time>
      </trkpt>
      <trkpt lat="48.35144" lon="5.35843">
        <ele>403.24</ele>
        <time>2025-01-04T14:03:15.567Z</time>
      </trkpt>
      <trkpt lat="48.35171" lon="5.35842">
        <ele>403.07</ele>
        <time>2025-01-04T14:03:18.016Z</time>
      </trkpt>
      <trkpt lat="48.35194" lon="5.3584">
        <ele>402.9</ele>
        <time>2025-01-04T14:03:20.468Z</time>
      </trkpt>
      <trkpt lat="48.35217" lon="5.35839">
        <ele>402.79</ele>
        <time>2025-01-04T14:03:22.924Z</time>
      </trkpt>
      <trkpt lat="48.35243" lon="5.35837">
        <ele>402.71</ele>
        <time>2025-01-04T14:03:25.384Z</time>
      </trkpt>
      <trkpt lat="48.3527" lon="5.35835">
        <ele>402.64</ele>
        <time>2025-01-04T14:03:27.848Z</time>
      </trkpt>
      <trkpt lat="48.35292" lon="5.35835">
        <ele>402.55</ele>
        <time>2025-01-04T14:03:30.316Z</time>
      </trkpt>
      <trkpt lat="48.35313" lon="5.35835">
        <ele>402.48</ele>
        <time>2025-01-04T14:03:32.787Z</time>
      </trkpt>
      <trkpt lat="48.35341" lon="5.35836">
        <ele>402.38</ele>
        <time>2025-01-04T14:03:35.263Z</time>
      </trkpt>
      <trkpt lat="48.35368" lon="5.35836">
        <ele>402.27</ele>
        <time>2025-01-04T14:03:37.743Z</time>
      </trkpt>
      <trkpt lat="48.35376" lon="5.35836">
        <ele>402.2</ele>
        <time>2025-01-04T14:03:40.225Z</time>
      </trkpt>
      <trkpt lat="48.35397" lon="5.35832">
        <ele>402.15</ele>
        <time>2025-01-04T14:03:42.710Z</time>
      </trkpt>
      <trkpt lat="48.35418" lon="5.35828">
        <ele>402.08</ele>
        <time>2025-01-04T14:03:45.198Z</time>
      </trkpt>
      <trkpt lat="48.35443" lon="5.35817">
        <ele>401.95</ele>
        <time>2025-01-04T14:03:47.690Z</time>
      </trkpt>
      <trkpt lat="48.35469" lon="5.35807">
        <ele>401.83</ele>
        <time>2025-01-04T14:03:50.187Z</time>
      </trkpt>
      <trkpt lat="48.35495" lon="5.35794">
        <ele>401.73</ele>
        <time>2025-01-04T14:03:52.688Z</time>
      </trkpt>
      <trkpt lat="48.35522" lon="5.3578">
        <ele>401.72</ele>
        <time>2025-01-04T14:03:55.194Z</time>
      </trkpt>
      <trkpt lat="48.35539" lon="5.35772">
        <ele>401.66</ele>
        <time>2025-01-04T14:03:57.703Z</time>
      </trkpt>
      <trkpt lat="48.35568" lon="5.35755">
        <ele>401.58</ele>
        <time>2025-01-04T14:04:00.217Z</time>
      </trkpt>
      <trkpt lat="48.35597" lon="5.35739">
        <ele>401.48</ele>
        <time>2025-01-04T14:04:02.735Z</time>
      </trkpt>
      <trkpt lat="48.35622" lon="5.35724">
        <ele>401.33</ele>
        <time>2025-01-04T14:04:05.258Z</time>
      </trkpt>
      <trkpt lat="48.35648" lon="5.35709">
        <ele>401.17</ele>
        <time>2025-01-04T14:04:07.785Z</time>
      </trkpt>
      <trkpt lat="48.35656" lon="5.35704">
        <ele>401.02</ele>
        <time>2025-01-04T14:04:10.314Z</time>
      </trkpt>
      <trkpt lat="48.35673" lon="5.35694">
        <ele>400.88</ele>
        <time>2025-01-04T14:04:12.846Z</time>
      </trkpt>
      <trkpt lat="48.35697" lon="5.3568">
        <ele>400.7</ele>
        <time>2025-01-04T14:04:15.382Z</time>
      </trkpt>
      <trkpt lat="48.35721" lon="5.3567">
        <ele>400.46</ele>
        <time>2025-01-04T14:04:17.922Z</time>
      </trkpt>
      <trkpt lat="48.35745" lon="5.3566">
        <ele>400.17</ele>
        <time>2025-01-04T14:04:20.466Z</time>
      </trkpt>
      <trkpt lat="48.35771" lon="5.35648">
        <ele>399.88</ele>
        <time>2025-01-04T14:04:23.014Z</time>
      </trkpt>
      <trkpt lat="48.35796" lon="5.35637">
        <ele>399.62</ele>
        <time>2025-01-04T14:04:25.566Z</time>
      </trkpt>
      <trkpt lat="48.35816" lon="5.35623">
        <ele>399.31</ele>
        <time>2025-01-04T14:04:28.122Z</time>
      </trkpt>
      <trkpt lat="48.35836" lon="5.35609">
        <ele>398.91</ele>
        <time>2025-01-04T14:04:30.681Z</time>
      </trkpt>
      <trkpt lat="48.35858" lon="5.35593">
        <ele>398.47</ele>
        <time>2025-01-04T14:04:33.244Z</time>
      </trkpt>
      <trkpt lat="48.3588" lon="5.35577">
        <ele>397.99</ele>
        <time>2025-01-04T14:04:35.811Z</time>
      </trkpt>
      <trkpt lat="48.35896" lon="5.35566">
        <ele>397.5</ele>
        <time>2025-01-04T14:04:38.381Z</time>
      </trkpt>
      <trkpt lat="48.35922" lon="5.35548">
        <ele>396.93</ele>
        <time>2025-01-04T14:04:40.955Z</time>
      </trkpt>
      <trkpt lat="48.35949" lon="5.35537">
        <ele>396.29</ele>
        <time>2025-01-04T14:04:43.534Z</time>
      </trkpt>
      <trkpt lat="48.35977" lon="5.35527">
        <ele>395.71</ele>
        <time>2025-01-04T14:04:46.118Z</time>
      </trkpt>
      <trkpt lat="48.36" lon="5.35518">
        <ele>395.16</ele>
        <time>2025-01-04T14:04:48.705Z</time>
      </trkpt>
      <trkpt lat="48.36024" lon="5.3551">
        <ele>394.59</ele>
        <time>2025-01-04T14:04:51.296Z</time>
      </trkpt>
      <trkpt lat="48.36053" lon="5.35499">
        <ele>393.9</ele>
        <time>2025-01-04T14:04:53.892Z</time>
      </trkpt>
      <trkpt lat="48.36082" lon="5.35489">
        <ele>393.27</ele>
        <time>2025-01-04T14:04:56.493Z</time>
      </trkpt>
      <trkpt lat="48.36112" lon="5.35481">
        <ele>392.68</ele>
        <time>2025-01-04T14:04:59.099Z</time>
      </trkpt>
      <trkpt lat="48.36142" lon="5.35473">
        <ele>392.07</ele>
        <time>2025-01-04T14:05:01.710Z</time>
      </trkpt>
      <trkpt lat="48.36151" lon="5.35471">
        <ele>391.46</ele>
        <time>2025-01-04T14:05:04.322Z</time>
      </trkpt>
      <trkpt lat="48.36179" lon="5.35464">
        <ele>390.87</ele>
        <time>2025-01-04T14:05:06.939Z</time>
      </trkpt>
      <trkpt lat="48.36207" lon="5.35456">
        <ele>390.3</ele>
        <time>2025-01-04T14:05:09.560Z</time>
      </trkpt>
      <trkpt lat="48.36225" lon="5.35455">
        <ele>389.73</ele>
        <time>2025-01-04T14:05:12.184Z</time>
      </trkpt>
      <trkpt lat="48.36243" lon="5.35453">
        <ele>389.13</ele>
        <time>2025-01-04T14:05:14.811Z</time>
      </trkpt>
      <trkpt lat="48.36264" lon="5.35454">
        <ele>388.54</ele>
        <time>2025-01-04T14:05:17.441Z</time>
      </trkpt>
      <trkpt lat="48.36285" lon="5.35455">
        <ele>387.94</ele>
        <time>2025-01-04T14:05:20.075Z</time>
      </trkpt>
      <trkpt lat="48.3631" lon="5.35456">
        <ele>387.27</ele>
        <time>2025-01-04T14:05:22.713Z</time>
      </trkpt>
      <trkpt lat="48.36335" lon="5.35457">
        <ele>386.58</ele>
        <time>2025-01-04T14:05:25.355Z</time>
      </trkpt>
      <trkpt lat="48.36358" lon="5.35458">
        <ele>385.83</ele>
        <time>2025-01-04T14:05:28.000Z</time>
      </trkpt>
      <trkpt lat="48.3638" lon="5.35459">
        <ele>385.13</ele>
        <time>2025-01-04T14:05:30.649Z</time>
      </trkpt>
      <trkpt lat="48.36407" lon="5.3546">
        <ele>384.45</ele>
        <time>2025-01-04T14:05:33.302Z</time>
      </trkpt>
      <trkpt lat="48.36434" lon="5.35461">
        <ele>383.66</ele>
        <time>2025-01-04T14:05:35.960Z</time>
      </trkpt>
      <trkpt lat="48.36444" lon="5.35462">
        <ele>382.86</ele>
        <time>2025-01-04T14:05:38.619Z</time>
      </trkpt>
      <trkpt lat="48.36475" lon="5.35463">
        <ele>381.91</ele>
        <time>2025-01-04T14:05:41.283Z</time>
      </trkpt>
      <trkpt lat="48.36506" lon="5.35464">
        <ele>381.01</ele>
        <time>2025-01-04T14:05:43.952Z</time>
      </trkpt>
      <trkpt lat="48.36525" lon="5.35465">
        <ele>380.18</ele>
        <time>2025-01-04T14:05:46.624Z</time>
      </trkpt>
      <trkpt lat="48.36552" lon="5.35466">
        <ele>379.31</ele>
        <time>2025-01-04T14:05:49.301Z</time>
      </trkpt>
      <trkpt lat="48.3658" lon="5.35467">
        <ele>378.65</ele>
        <time>2025-01-04T14:05:51.982Z</time>
      </trkpt>
      <trkpt lat="48.36588" lon="5.35468">
        <ele>377.97</ele>
        <time>2025-01-04T14:05:54.664Z</time>
      </trkpt>
      <trkpt lat="48.36618" lon="5.35469">
        <ele>377.34</ele>
        <time>2025-01-04T14:05:57.351Z</time>
      </trkpt>
      <trkpt lat="48.36648" lon="5.3547">
        <ele>376.72</ele>
        <time>2025-01-04T14:06:00.043Z</time>
      </trkpt>
      <trkpt lat="48.36656" lon="5.3547">
        <ele>376.08</ele>
        <time>2025-01-04T14:06:02.736Z</time>
      </trkpt>
      <trkpt lat="48.36684" lon="5.35472">
        <ele>375.38</ele>
        <time>2025-01-04T14:06:05.434Z</time>
      </trkpt>
      <trkpt lat="48.36712" lon="5.35473">
        <ele>374.73</ele>
        <time>2025-01-04T14:06:08.136Z</time>
      </trkpt>
      <trkpt lat="48.36721" lon="5.35473">
        <ele>374.14</ele>
        <time>2025-01-04T14:06:10.840Z</time>
      </trkpt>
      <trkpt lat="48.36751" lon="5.35474">
        <ele>373.5</ele>
        <time>2025-01-04T14:06:13.548Z</time>
      </trkpt>
      <trkpt lat="48.36781" lon="5.35476">
        <ele>372.94</ele>
        <time>2025-01-04T14:06:16.261Z</time>
      </trkpt>
      <trkpt lat="48.36809" lon="5.35477">
        <ele>372.45</ele>
        <time>2025-01-04T14:06:18.979Z</time>
      </trkpt>
      <trkpt lat="48.36836" lon="5.35478">
        <ele>371.96</ele>
        <time>2025-01-04T14:06:21.701Z</time>
      </trkpt>
      <trkpt lat="48.36863" lon="5.35479">
        <ele>371.58</ele>
        <time>2025-01-04T14:06:24.427Z</time>
      </trkpt>
      <trkpt lat="48.36889" lon="5.3548">
        <ele>371.22</ele>
        <time>2025-01-04T14:06:27.157Z</time>
      </trkpt>
      <trkpt lat="48.36917" lon="5.35481">
        <ele>370.84</ele>
        <time>2025-01-04T14:06:29.892Z</time>
      </trkpt>
      <trkpt lat="48.36946" lon="5.35482">
        <ele>370.43</ele>
        <time>2025-01-04T14:06:32.632Z</time>
      </trkpt>
      <trkpt lat="48.36962" lon="5.35483">
        <ele>370.11</ele>
        <time>2025-01-04T14:06:35.374Z</time>
      </trkpt>
      <trkpt lat="48.36983" lon="5.35484">
        <ele>369.84</ele>
        <time>2025-01-04T14:06:38.120Z</time>
      </trkpt>
      <trkpt lat="48.37004" lon="5.35485">
        <ele>369.57</ele>
        <time>2025-01-04T14:06:40.869Z</time>
      </trkpt>
      <trkpt lat="48.37025" lon="5.35486">
        <ele>369.29</ele>
        <time>2025-01-04T14:06:43.621Z</time>
      </trkpt>
      <trkpt lat="48.37035" lon="5.35486">
        <ele>369.05</ele>
        <time>2025-01-04T14:06:46.375Z</time>
      </trkpt>
      <trkpt lat="48.37063" lon="5.35487">
        <ele>368.79</ele>
        <time>2025-01-04T14:06:49.133Z</time>
      </trkpt>
      <trkpt lat="48.37091" lon="5.35488">
        <ele>368.52</ele>
        <time>2025-01-04T14:06:51.896Z</time>
      </trkpt>
      <trkpt lat="48.37109" lon="5.35489">
        <ele>368.26</ele>
        <time>2025-01-04T14:06:54.662Z</time>
      </trkpt>
      <trkpt lat="48.3714" lon="5.3549">
        <ele>368.06</ele>
        <time>2025-01-04T14:06:57.433Z</time>
      </trkpt>
      <trkpt lat="48.37171" lon="5.35492">
        <ele>367.95</ele>
        <time>2025-01-04T14:07:00.209Z</time>
      </trkpt>
      <trkpt lat="48.37188" lon="5.35492">
        <ele>367.83</ele>
        <time>2025-01-04T14:07:02.987Z</time>
      </trkpt>
      <trkpt lat="48.37217" lon="5.35494">
        <ele>367.7</ele>
        <time>2025-01-04T14:07:05.770Z</time>
      </trkpt>
      <trkpt lat="48.37246" lon="5.35495">
        <ele>367.58</ele>
        <time>2025-01-04T14:07:08.558Z</time>
      </trkpt>
      <trkpt lat="48.37254" lon="5.35495">
        <ele>367.44</ele>
        <time>2025-01-04T14:07:11.347Z</time>
      </trkpt>
      <trkpt lat="48.3728" lon="5.35488">
        <ele>367.29</ele>
        <time>2025-01-04T14:07:14.140Z</time>
      </trkpt>
      <trkpt lat="48.37305" lon="5.35482">
        <ele>367.16</ele>
        <time>2025-01-04T14:07:16.937Z</time>
      </trkpt>
      <trkpt lat="48.37332" lon="5.35473">
        <ele>367.02</ele>
        <time>2025-01-04T14:07:19.739Z</time>
      </trkpt>
      <trkpt lat="48.37358" lon="5.35463">
        <ele>366.84</ele>
        <time>2025-01-04T14:07:22.545Z</time>
      </trkpt>
      <trkpt lat="48.37375" lon="5.35457">
        <ele>366.76</ele>
        <time>2025-01-04T14:07:25.354Z</time>
      </trkpt>
      <trkpt lat="48.37404" lon="5.35448">
        <ele>366.7</ele>
        <time>2025-01-04T14:07:28.168Z</time>
      </trkpt>
      <trkpt lat="48.37433" lon="5.35438">
        <ele>366.61</ele>
        <time>2025-01-04T14:07:30.986Z</time>
      </trkpt>
      <trkpt lat="48.37441" lon="5.35435">
        <ele>366.52</ele>
        <time>2025-01-04T14:07:33.806Z</time>
      </trkpt>
      <trkpt lat="48.37465" lon="5.35426">
        <ele>366.5</ele>
        <time>2025-01-04T14:07:36.630Z</time>
      </trkpt>
      <trkpt lat="48.3749" lon="5.35418">
        <ele>366.43</ele>
        <time>2025-01-04T14:07:39.458Z</time>
      </trkpt>
      <trkpt lat="48.37509" lon="5.35408">
        <ele>366.34</ele>
        <time>2025-01-04T14:07:42.289Z</time>
      </trkpt>
      <trkpt lat="48.37527" lon="5.35398">
        <ele>366.23</ele>
        <time>2025-01-04T14:07:45.123Z</time>
      </trkpt>
      <trkpt lat="48.37542" lon="5.35384">
        <ele>366.05</ele>
        <time>2025-01-04T14:07:47.960Z</time>
      </trkpt>
      <trkpt lat="48.37558" lon="5.3537">
        <ele>365.84</ele>
        <time>2025-01-04T14:07:50.800Z</time>
      </trkpt>
      <trkpt lat="48.37575" lon="5.35336">
        <ele>365.61</ele>
        <time>2025-01-04T14:07:53.644Z</time>
      </trkpt>
      <trkpt lat="48.37593" lon="5.35301">
        <ele>365.4</ele>
        <time>2025-01-04T14:07:56.493Z</time>
      </trkpt>
      <trkpt lat="48.37597" lon="5.35292">
        <ele>365.21</ele>
        <time>2025-01-04T14:07:59.343Z</time>
      </trkpt>
      <trkpt lat="48.37609" lon="5.35268">
        <ele>365.05</ele>
        <time>2025-01-04T14:08:02.196Z</time>
      </trkpt>
      <trkpt lat="48.37621" lon="5.35244">
        <ele>364.84</ele>
        <time>2025-01-04T14:08:05.053Z</time>
      </trkpt>
      <trkpt lat="48.37636" lon="5.35215">
        <ele>364.61</ele>
        <time>2025-01-04T14:08:07.913Z</time>
      </trkpt>
      <trkpt lat="48.37651" lon="5.35185">
        <ele>364.38</ele>
        <time>2025-01-04T14:08:10.777Z</time>
      </trkpt>
      <trkpt lat="48.37668" lon="5.35157">
        <ele>364.15</ele>
        <time>2025-01-04T14:08:13.645Z</time>
      </trkpt>
      <trkpt lat="48.37682" lon="5.35138">
        <ele>363.92</ele>
        <time>2025-01-04T14:08:16.516Z</time>
      </trkpt>
      <trkpt lat="48.377" lon="5.35113">
        <ele>363.74</ele>
        <time>2025-01-04T14:08:19.391Z</time>
      </trkpt>
      <trkpt lat="48.37719" lon="5.35089">
        <ele>363.54</ele>
        <time>2025-01-04T14:08:22.270Z</time>
      </trkpt>
      <trkpt lat="48.37738" lon="5.35064">
        <ele>363.35</ele>
        <time>2025-01-04T14:08:25.153Z</time>
      </trkpt>
      <trkpt lat="48.37756" lon="5.35039">
        <ele>363.17</ele>
        <time>2025-01-04T14:08:28.040Z</time>
      </trkpt>
      <trkpt lat="48.3777" lon="5.35016">
        <ele>363.01</ele>
        <time>2025-01-04T14:08:30.931Z</time>
      </trkpt>
      <trkpt lat="48.37784" lon="5.34994">
        <ele>362.83</ele>
        <time>2025-01-04T14:08:33.825Z</time>
      </trkpt>
      <trkpt lat="48.37798" lon="5.34974">
        <ele>362.68</ele>
        <time>2025-01-04T14:08:36.722Z</time>
      </trkpt>
      <trkpt lat="48.37811" lon="5.34954">
        <ele>362.54</ele>
        <time>2025-01-04T14:08:39.622Z</time>
      </trkpt>
      <trkpt lat="48.37821" lon="5.34932">
        <ele>362.42</ele>
        <time>2025-01-04T14:08:42.525Z</time>
      </trkpt>
      <trkpt lat="48.37831" lon="5.34911">
        <ele>362.28</ele>
        <time>2025-01-04T14:08:45.431Z</time>
      </trkpt>
      <trkpt lat="48.37839" lon="5.34893">
        <ele>362.16</ele>
        <time>2025-01-04T14:08:48.339Z</time>
      </trkpt>
      <trkpt lat="48.37848" lon="5.34875">
        <ele>362.08</ele>
        <time>2025-01-04T14:08:51.249Z</time>
      </trkpt>
      <trkpt lat="48.3785" lon="5.34869">
        <ele>362</ele>
        <time>2025-01-04T14:08:54.160Z</time>
      </trkpt>
      <trkpt lat="48.37853" lon="5.34863">
        <ele>361.94</ele>
        <time>2025-01-04T14:08:57.072Z</time>
      </trkpt>
      <trkpt lat="48.37866" lon="5.34842">
        <ele>361.89</ele>
        <time>2025-01-04T14:08:59.987Z</time>
      </trkpt>
      <trkpt lat="48.37881" lon="5.34823">
        <ele>361.89</ele>
        <time>2025-01-04T14:09:02.905Z</time>
      </trkpt>
      <trkpt lat="48.37901" lon="5.34797">
        <ele>361.88</ele>
        <time>2025-01-04T14:09:05.827Z</time>
      </trkpt>
      <trkpt lat="48.37915" lon="5.3478">
        <ele>361.97</ele>
        <time>2025-01-04T14:09:08.752Z</time>
      </trkpt>
      <trkpt lat="48.37929" lon="5.34762">
        <ele>362.11</ele>
        <time>2025-01-04T14:09:11.680Z</time>
      </trkpt>
      <trkpt lat="48.37943" lon="5.34745">
        <ele>362.23</ele>
        <time>2025-01-04T14:09:14.611Z</time>
      </trkpt>
      <trkpt lat="48.37956" lon="5.34728">
        <ele>362.37</ele>
        <time>2025-01-04T14:09:17.545Z</time>
      </trkpt>
      <trkpt lat="48.37969" lon="5.34716">
        <ele>362.52</ele>
        <time>2025-01-04T14:09:20.481Z</time>
      </trkpt>
      <trkpt lat="48.37976" lon="5.34709">
        <ele>362.76</ele>
        <time>2025-01-04T14:09:23.418Z</time>
      </trkpt>
      <trkpt lat="48.37977" lon="5.34694">
        <ele>363.05</ele>
        <time>2025-01-04T14:09:26.357Z</time>
      </trkpt>
      <trkpt lat="48.37976" lon="5.34687">
        <ele>363.35</ele>
        <time>2025-01-04T14:09:29.297Z</time>
      </trkpt>
      <trkpt lat="48.37976" lon="5.34675">
        <ele>363.69</ele>
        <time>2025-01-04T14:09:32.238Z</time>
      </trkpt>
      <trkpt lat="48.37975" lon="5.34662">
        <ele>364.06</ele>
        <time>2025-01-04T14:09:35.181Z</time>
      </trkpt>
      <trkpt lat="48.37973" lon="5.34638">
        <ele>364.45</ele>
        <time>2025-01-04T14:09:38.126Z</time>
      </trkpt>
      <trkpt lat="48.37972" lon="5.34614">
        <ele>364.92</ele>
        <time>2025-01-04T14:09:41.074Z</time>
      </trkpt>
      <trkpt lat="48.37961" lon="5.34575">
        <ele>365.4</ele>
        <time>2025-01-04T14:09:44.026Z</time>
      </trkpt>
      <trkpt lat="48.37951" lon="5.34544">
        <ele>365.9</ele>
        <time>2025-01-04T14:09:46.982Z</time>
      </trkpt>
      <trkpt lat="48.37946" lon="5.34531">
        <ele>366.45</ele>
        <time>2025-01-04T14:09:49.939Z</time>
      </trkpt>
      <trkpt lat="48.37936" lon="5.34509">
        <ele>367.02</ele>
        <time>2025-01-04T14:09:52.899Z</time>
      </trkpt>
      <trkpt lat="48.37926" lon="5.34486">
        <ele>367.62</ele>
        <time>2025-01-04T14:09:55.862Z</time>
      </trkpt>
      <trkpt lat="48.37916" lon="5.34467">
        <ele>368.27</ele>
        <time>2025-01-04T14:09:58.828Z</time>
      </trkpt>
      <trkpt lat="48.37906" lon="5.34448">
        <ele>368.94</ele>
        <time>2025-01-04T14:10:01.796Z</time>
      </trkpt>
      <trkpt lat="48.37889" lon="5.34422">
        <ele>369.61</ele>
        <time>2025-01-04T14:10:04.768Z</time>
      </trkpt>
      <trkpt lat="48.37871" lon="5.34397">
        <ele>370.28</ele>
        <time>2025-01-04T14:10:07.744Z</time>
      </trkpt>
      <trkpt lat="48.37854" lon="5.34373">
        <ele>370.98</ele>
        <time>2025-01-04T14:10:10.724Z</time>
      </trkpt>
      <trkpt lat="48.37836" lon="5.3435">
        <ele>371.68</ele>
        <time>2025-01-04T14:10:13.708Z</time>
      </trkpt>
      <trkpt lat="48.37817" lon="5.34324">
        <ele>372.4</ele>
        <time>2025-01-04T14:10:16.696Z</time>
      </trkpt>
      <trkpt lat="48.37801" lon="5.34304">
        <ele>373.12</ele>
        <time>2025-01-04T14:10:19.687Z</time>
      </trkpt>
      <trkpt lat="48.37786" lon="5.34284">
        <ele>373.84</ele>
        <time>2025-01-04T14:10:22.681Z</time>
      </trkpt>
      <trkpt lat="48.37774" lon="5.34265">
        <ele>374.56</ele>
        <time>2025-01-04T14:10:25.678Z</time>
      </trkpt>
      <trkpt lat="48.37761" lon="5.34245">
        <ele>375.3</ele>
        <time>2025-01-04T14:10:28.678Z</time>
      </trkpt>
      <trkpt lat="48.37745" lon="5.34218">
        <ele>376.05</ele>
        <time>2025-01-04T14:10:31.682Z</time>
      </trkpt>
      <trkpt lat="48.37727" lon="5.34186">
        <ele>376.81</ele>
        <time>2025-01-04T14:10:34.691Z</time>
      </trkpt>
      <trkpt lat="48.3771" lon="5.34157">
        <ele>377.51</ele>
        <time>2025-01-04T14:10:37.704Z</time>
      </trkpt>
      <trkpt lat="48.37693" lon="5.34127">
        <ele>378.14</ele>
        <time>2025-01-04T14:10:40.721Z</time>
      </trkpt>
      <trkpt lat="48.37678" lon="5.34101">
        <ele>378.7</ele>
        <time>2025-01-04T14:10:43.741Z</time>
      </trkpt>
      <trkpt lat="48.3766" lon="5.3407">
        <ele>379.24</ele>
        <time>2025-01-04T14:10:46.766Z</time>
      </trkpt>
      <trkpt lat="48.37649" lon="5.34043">
        <ele>379.68</ele>
        <time>2025-01-04T14:10:49.794Z</time>
      </trkpt>
      <trkpt lat="48.37642" lon="5.34016">
        <ele>380.07</ele>
        <time>2025-01-04T14:10:52.825Z</time>
      </trkpt>
      <trkpt lat="48.37639" lon="5.3399">
        <ele>380.39</ele>
        <time>2025-01-04T14:10:55.859Z</time>
      </trkpt>
      <trkpt lat="48.3764" lon="5.33964">
        <ele>380.62</ele>
        <time>2025-01-04T14:10:58.896Z</time>
      </trkpt>
      <trkpt lat="48.37622" lon="5.33943">
        <ele>380.76</ele>
        <time>2025-01-04T14:11:01.937Z</time>
      </trkpt>
      <trkpt lat="48.37604" lon="5.33922">
        <ele>380.8</ele>
        <time>2025-01-04T14:11:04.981Z</time>
      </trkpt>
      <trkpt lat="48.37597" lon="5.339">
        <ele>380.77</ele>
        <time>2025-01-04T14:11:08.028Z</time>
      </trkpt>
      <trkpt lat="48.37589" lon="5.33878">
        <ele>380.68</ele>
        <time>2025-01-04T14:11:11.078Z</time>
      </trkpt>
      <trkpt lat="48.37581" lon="5.33851">
        <ele>380.51</ele>
        <time>2025-01-04T14:11:14.131Z</time>
      </trkpt>
      <trkpt lat="48.37569" lon="5.33811">
        <ele>380.28</ele>
        <time>2025-01-04T14:11:17.188Z</time>
      </trkpt>
      <trkpt lat="48.37561" lon="5.3378">
        <ele>379.99</ele>
        <time>2025-01-04T14:11:20.249Z</time>
      </trkpt>
      <trkpt lat="48.37553" lon="5.33749">
        <ele>379.63</ele>
        <time>2025-01-04T14:11:23.314Z</time>
      </trkpt>
      <trkpt lat="48.37546" lon="5.33724">
        <ele>379.21</ele>
        <time>2025-01-04T14:11:26.381Z</time>
      </trkpt>
      <trkpt lat="48.37539" lon="5.33699">
        <ele>378.77</ele>
        <time>2025-01-04T14:11:29.451Z</time>
      </trkpt>
      <trkpt lat="48.37533" lon="5.33674">
        <ele>378.3</ele>
        <time>2025-01-04T14:11:32.524Z</time>
      </trkpt>
      <trkpt lat="48.37526" lon="5.3365">
        <ele>377.82</ele>
        <time>2025-01-04T14:11:35.600Z</time>
      </trkpt>
      <trkpt lat="48.37518" lon="5.33616">
        <ele>377.31</ele>
        <time>2025-01-04T14:11:38.680Z</time>
      </trkpt>
      <trkpt lat="48.3751" lon="5.33583">
        <ele>376.77</ele>
        <time>2025-01-04T14:11:41.763Z</time>
      </trkpt>
      <trkpt lat="48.37499" lon="5.33545">
        <ele>376.19</ele>
        <time>2025-01-04T14:11:44.851Z</time>
      </trkpt>
      <trkpt lat="48.37493" lon="5.33535">
        <ele>375.58</ele>
        <time>2025-01-04T14:11:47.940Z</time>
      </trkpt>
      <trkpt lat="48.37485" lon="5.33531">
        <ele>374.94</ele>
        <time>2025-01-04T14:11:51.031Z</time>
      </trkpt>
      <trkpt lat="48.37483" lon="5.33532">
        <ele>374.31</ele>
        <time>2025-01-04T14:11:54.122Z</time>
      </trkpt>
      <trkpt lat="48.37473" lon="5.33539">
        <ele>373.64</ele>
        <time>2025-01-04T14:11:57.215Z</time>
      </trkpt>
      <trkpt lat="48.37461" lon="5.33552">
        <ele>372.98</ele>
        <time>2025-01-04T14:12:00.310Z</time>
      </trkpt>
      <trkpt lat="48.3745" lon="5.33563">
        <ele>372.36</ele>
        <time>2025-01-04T14:12:03.407Z</time>
      </trkpt>
      <trkpt lat="48.37433" lon="5.33582">
        <ele>371.71</ele>
        <time>2025-01-04T14:12:06.508Z</time>
      </trkpt>
      <trkpt lat="48.37413" lon="5.336">
        <ele>371.07</ele>
        <time>2025-01-04T14:12:09.612Z</time>
      </trkpt>
      <trkpt lat="48.37397" lon="5.33617">
        <ele>370.54</ele>
        <time>2025-01-04T14:12:12.720Z</time>
      </trkpt>
      <trkpt lat="48.37377" lon="5.33636">
        <ele>370.08</ele>
        <time>2025-01-04T14:12:15.831Z</time>
      </trkpt>
      <trkpt lat="48.37361" lon="5.33653">
        <ele>369.71</ele>
        <time>2025-01-04T14:12:18.945Z</time>
      </trkpt>
      <trkpt lat="48.37347" lon="5.33667">
        <ele>369.39</ele>
        <time>2025-01-04T14:12:22.062Z</time>
      </trkpt>
      <trkpt lat="48.37338" lon="5.33679">
        <ele>369.12</ele>
        <time>2025-01-04T14:12:25.181Z</time>
      </trkpt>
      <trkpt lat="48.37338" lon="5.33679">
        <ele>368.89</ele>
        <time>2025-01-04T14:12:28.300Z</time>
      </trkpt>
      <trkpt lat="48.37336" lon="5.33678">
        <ele>368.73</ele>
        <time>2025-01-04T14:12:31.419Z</time>
      </trkpt>
      <trkpt lat="48.37337" lon="5.33677">
        <ele>368.63</ele>
        <time>2025-01-04T14:12:34.539Z</time>
      </trkpt>
      <trkpt lat="48.3734" lon="5.33674">
        <ele>368.59</ele>
        <time>2025-01-04T14:12:37.659Z</time>
      </trkpt>
      <trkpt lat="48.37342" lon="5.33674">
        <ele>368.61</ele>
        <time>2025-01-04T14:12:40.779Z</time>
      </trkpt>
      <trkpt lat="48.37346" lon="5.33669">
        <ele>368.71</ele>
        <time>2025-01-04T14:12:43.900Z</time>
      </trkpt>
      <trkpt lat="48.37349" lon="5.33666">
        <ele>368.87</ele>
        <time>2025-01-04T14:12:47.022Z</time>
      </trkpt>
      <trkpt lat="48.37367" lon="5.33649">
        <ele>369.07</ele>
        <time>2025-01-04T14:12:50.147Z</time>
      </trkpt>
      <trkpt lat="48.37384" lon="5.33635">
        <ele>369.33</ele>
        <time>2025-01-04T14:12:53.275Z</time>
      </trkpt>
      <trkpt lat="48.37395" lon="5.33624">
        <ele>369.69</ele>
        <time>2025-01-04T14:12:56.406Z</time>
      </trkpt>
      <trkpt lat="48.37405" lon="5.33614">
        <ele>370.1</ele>
        <time>2025-01-04T14:12:59.538Z</time>
      </trkpt>
      <trkpt lat="48.37415" lon="5.33603">
        <ele>370.58</ele>
        <time>2025-01-04T14:13:02.672Z</time>
      </trkpt>
      <trkpt lat="48.37426" lon="5.33595">
        <ele>371.14</ele>
        <time>2025-01-04T14:13:05.808Z</time>
      </trkpt>
      <trkpt lat="48.37438" lon="5.33582">
        <ele>371.74</ele>
        <time>2025-01-04T14:13:08.947Z</time>
      </trkpt>
      <trkpt lat="48.37452" lon="5.33566">
        <ele>372.39</ele>
        <time>2025-01-04T14:13:12.089Z</time>
      </trkpt>
      <trkpt lat="48.37462" lon="5.33556">
        <ele>373.01</ele>
        <time>2025-01-04T14:13:15.233Z</time>
      </trkpt>
      <trkpt lat="48.37473" lon="5.33545">
        <ele>373.68</ele>
        <time>2025-01-04T14:13:18.379Z</time>
      </trkpt>
      <trkpt lat="48.37486" lon="5.33535">
        <ele>374.39</ele>
        <time>2025-01-04T14:13:21.527Z</time>
      </trkpt>
      <trkpt lat="48.37497" lon="5.33542">
        <ele>375.07</ele>
        <time>2025-01-04T14:13:24.677Z</time>
      </trkpt>
      <trkpt lat="48.37504" lon="5.3356">
        <ele>375.71</ele>
        <time>2025-01-04T14:13:27.829Z</time>
      </trkpt>
      <trkpt lat="48.37511" lon="5.33588">
        <ele>376.32</ele>
        <time>2025-01-04T14:13:30.984Z</time>
      </trkpt>
      <trkpt lat="48.37514" lon="5.33605">
        <ele>376.92</ele>
        <time>2025-01-04T14:13:34.141Z</time>
      </trkpt>
      <trkpt lat="48.37516" lon="5.33612">
        <ele>377.5</ele>
        <time>2025-01-04T14:13:37.299Z</time>
      </trkpt>
      <trkpt lat="48.37521" lon="5.33633">
        <ele>378.06</ele>
        <time>2025-01-04T14:13:40.459Z</time>
      </trkpt>
      <trkpt lat="48.37532" lon="5.33673">
        <ele>378.59</ele>
        <time>2025-01-04T14:13:43.624Z</time>
      </trkpt>
      <trkpt lat="48.37539" lon="5.33703">
        <ele>379.1</ele>
        <time>2025-01-04T14:13:46.792Z</time>
      </trkpt>
      <trkpt lat="48.3755" lon="5.33741">
        <ele>379.62</ele>
        <time>2025-01-04T14:13:49.965Z</time>
      </trkpt>
      <trkpt lat="48.37559" lon="5.33774">
        <ele>380.09</ele>
        <time>2025-01-04T14:13:53.142Z</time>
      </trkpt>
      <trkpt lat="48.37566" lon="5.33803">
        <ele>380.5</ele>
        <time>2025-01-04T14:13:56.322Z</time>
      </trkpt>
      <trkpt lat="48.37571" lon="5.33824">
        <ele>380.81</ele>
        <time>2025-01-04T14:13:59.504Z</time>
      </trkpt>
      <trkpt lat="48.37579" lon="5.33849">
        <ele>381.1</ele>
        <time>2025-01-04T14:14:02.689Z</time>
      </trkpt>
      <trkpt lat="48.37586" lon="5.3387">
        <ele>381.33</ele>
        <time>2025-01-04T14:14:05.877Z</time>
      </trkpt>
      <trkpt lat="48.37596" lon="5.33895">
        <ele>381.49</ele>
        <time>2025-01-04T14:14:09.068Z</time>
      </trkpt>
      <trkpt lat="48.37607" lon="5.33925">
        <ele>381.6</ele>
        <time>2025-01-04T14:14:12.262Z</time>
      </trkpt>
      <trkpt lat="48.3762" lon="5.33958">
        <ele>381.58</ele>
        <time>2025-01-04T14:14:15.461Z</time>
      </trkpt>
      <trkpt lat="48.37627" lon="5.33977">
        <ele>381.49</ele>
        <time>2025-01-04T14:14:18.662Z</time>
      </trkpt>
      <trkpt lat="48.37639" lon="5.33997">
        <ele>381.36</ele>
        <time>2025-01-04T14:14:21.866Z</time>
      </trkpt>
      <trkpt lat="48.37639" lon="5.34004">
        <ele>381.12</ele>
        <time>2025-01-04T14:14:25.070Z</time>
      </trkpt>
      <trkpt lat="48.3764" lon="5.34006">
        <ele>380.82</ele>
        <time>2025-01-04T14:14:28.275Z</time>
      </trkpt>
      <trkpt lat="48.37641" lon="5.34011">
        <ele>380.44</ele>
        <time>2025-01-04T14:14:31.480Z</time>
      </trkpt>
      <trkpt lat="48.37644" lon="5.3403">
        <ele>379.98</ele>
        <time>2025-01-04T14:14:34.687Z</time>
      </trkpt>
      <trkpt lat="48.37658" lon="5.34065">
        <ele>379.45</ele>
        <time>2025-01-04T14:14:37.899Z</time>
      </trkpt>
      <trkpt lat="48.37672" lon="5.3409">
        <ele>378.85</ele>
        <time>2025-01-04T14:14:41.114Z</time>
      </trkpt>
      <trkpt lat="48.37685" lon="5.34114">
        <ele>378.19</ele>
        <time>2025-01-04T14:14:44.333Z</time>
      </trkpt>
      <trkpt lat="48.37705" lon="5.34149">
        <ele>377.49</ele>
        <time>2025-01-04T14:14:47.556Z</time>
      </trkpt>
      <trkpt lat="48.37726" lon="5.34184">
        <ele>376.69</ele>
        <time>2025-01-04T14:14:50.784Z</time>
      </trkpt>
      <trkpt lat="48.37743" lon="5.34215">
        <ele>375.86</ele>
        <time>2025-01-04T14:14:54.017Z</time>
      </trkpt>
      <trkpt lat="48.37761" lon="5.34245">
        <ele>375.02</ele>
        <time>2025-01-04T14:14:57.254Z</time>
      </trkpt>
      <trkpt lat="48.37773" lon="5.34266">
        <ele>374.21</ele>
        <time>2025-01-04T14:15:00.494Z</time>
      </trkpt>
      <trkpt lat="48.37794" lon="5.34294">
        <ele>373.41</ele>
        <time>2025-01-04T14:15:03.739Z</time>
      </trkpt>
      <trkpt lat="48.37815" lon="5.34322">
        <ele>372.62</ele>
        <time>2025-01-04T14:15:06.988Z</time>
      </trkpt>
      <trkpt lat="48.37829" lon="5.3434">
        <ele>371.84</ele>
        <time>2025-01-04T14:15:10.240Z</time>
      </trkpt>
      <trkpt lat="48.37851" lon="5.3437">
        <ele>371.06</ele>
        <time>2025-01-04T14:15:13.497Z</time>
      </trkpt>
      <trkpt lat="48.37873" lon="5.34399">
        <ele>370.3</ele>
        <time>2025-01-04T14:15:16.758Z</time>
      </trkpt>
      <trkpt lat="48.37891" lon="5.34427">
        <ele>369.56</ele>
        <time>2025-01-04T14:15:20.024Z</time>
      </trkpt>
      <trkpt lat="48.3791" lon="5.34454">
        <ele>368.82</ele>
        <time>2025-01-04T14:15:23.294Z</time>
      </trkpt>
      <trkpt lat="48.37924" lon="5.34484">
        <ele>368.07</ele>
        <time>2025-01-04T14:15:26.568Z</time>
      </trkpt>
      <trkpt lat="48.37938" lon="5.34513">
        <ele>367.39</ele>
        <time>2025-01-04T14:15:29.845Z</time>
      </trkpt>
      <trkpt lat="48.3795" lon="5.34546">
        <ele>366.71</ele>
        <time>2025-01-04T14:15:33.126Z</time>
      </trkpt>
      <trkpt lat="48.37962" lon="5.34578">
        <ele>366.11</ele>
        <time>2025-01-04T14:15:36.411Z</time>
      </trkpt>
      <trkpt lat="48.3797" lon="5.34604">
        <ele>365.54</ele>
        <time>2025-01-04T14:15:39.699Z</time>
      </trkpt>
      <trkpt lat="48.37972" lon="5.34624">
        <ele>364.99</ele>
        <time>2025-01-04T14:15:42.990Z</time>
      </trkpt>
      <trkpt lat="48.37974" lon="5.34648">
        <ele>364.48</ele>
        <time>2025-01-04T14:15:46.283Z</time>
      </trkpt>
      <trkpt lat="48.37975" lon="5.34671">
        <ele>364.03</ele>
        <time>2025-01-04T14:15:49.579Z</time>
      </trkpt>
      <trkpt lat="48.37976" lon="5.3468">
        <ele>363.61</ele>
        <time>2025-01-04T14:15:52.876Z</time>
      </trkpt>
      <trkpt lat="48.37977" lon="5.34704">
        <ele>363.21</ele>
        <time>2025-01-04T14:15:56.175Z</time>
      </trkpt>
      <trkpt lat="48.37978" lon="5.34708">
        <ele>362.88</ele>
        <time>2025-01-04T14:15:59.475Z</time>
      </trkpt>
      <trkpt lat="48.3797" lon="5.34715">
        <ele>362.58</ele>
        <time>2025-01-04T14:16:02.776Z</time>
      </trkpt>
      <trkpt lat="48.37947" lon="5.34739">
        <ele>362.39</ele>
        <time>2025-01-04T14:16:06.082Z</time>
      </trkpt>
      <trkpt lat="48.37925" lon="5.34767">
        <ele>362.18</ele>
        <time>2025-01-04T14:16:09.392Z</time>
      </trkpt>
      <trkpt lat="48.37908" lon="5.34789">
        <ele>361.96</ele>
        <time>2025-01-04T14:16:12.706Z</time>
      </trkpt>
      <trkpt lat="48.3789" lon="5.34811">
        <ele>361.83</ele>
        <time>2025-01-04T14:16:16.023Z</time>
      </trkpt>
      <trkpt lat="48.37875" lon="5.3483">
        <ele>361.8</ele>
        <time>2025-01-04T14:16:19.344Z</time>
      </trkpt>
      <trkpt lat="48.3786" lon="5.34849">
        <ele>361.75</ele>
        <time>2025-01-04T14:16:22.668Z</time>
      </trkpt>
      <trkpt lat="48.37857" lon="5.34855">
        <ele>361.75</ele>
        <time>2025-01-04T14:16:25.993Z</time>
      </trkpt>
      <trkpt lat="48.3785" lon="5.34869">
        <ele>361.81</ele>
        <time>2025-01-04T14:16:29.319Z</time>
      </trkpt>
      <trkpt lat="48.37847" lon="5.34877">
        <ele>361.87</ele>
        <time>2025-01-04T14:16:32.646Z</time>
      </trkpt>
      <trkpt lat="48.37833" lon="5.34906">
        <ele>361.94</ele>
        <time>2025-01-04T14:16:35.977Z</time>
      </trkpt>
      <trkpt lat="48.37823" lon="5.34928">
        <ele>362.06</ele>
        <time>2025-01-04T14:16:39.311Z</time>
      </trkpt>
      <trkpt lat="48.37814" lon="5.34947">
        <ele>362.19</ele>
        <time>2025-01-04T14:16:42.647Z</time>
      </trkpt>
      <trkpt lat="48.37804" lon="5.34963">
        <ele>362.32</ele>
        <time>2025-01-04T14:16:45.986Z</time>
      </trkpt>
      <trkpt lat="48.37791" lon="5.34984">
        <ele>362.46</ele>
        <time>2025-01-04T14:16:49.328Z</time>
      </trkpt>
      <trkpt lat="48.37777" lon="5.35004">
        <ele>362.64</ele>
        <time>2025-01-04T14:16:52.673Z</time>
      </trkpt>
      <trkpt lat="48.37764" lon="5.35025">
        <ele>362.83</ele>
        <time>2025-01-04T14:16:56.021Z</time>
      </trkpt>
      <trkpt lat="48.37751" lon="5.35046">
        <ele>363.02</ele>
        <time>2025-01-04T14:16:59.372Z</time>
      </trkpt>
      <trkpt lat="48.37729" lon="5.35075">
        <ele>363.23</ele>
        <time>2025-01-04T14:17:02.728Z</time>
      </trkpt>
      <trkpt lat="48.37708" lon="5.35103">
        <ele>363.42</ele>
        <time>2025-01-04T14:17:06.088Z</time>
      </trkpt>
      <trkpt lat="48.37692" lon="5.35125">
        <ele>363.64</ele>
        <time>2025-01-04T14:17:09.452Z</time>
      </trkpt>
      <trkpt lat="48.37676" lon="5.35146">
        <ele>363.87</ele>
        <time>2025-01-04T14:17:12.819Z</time>
      </trkpt>
      <trkpt lat="48.37664" lon="5.35165">
        <ele>364.12</ele>
        <time>2025-01-04T14:17:16.189Z</time>
      </trkpt>
      <trkpt lat="48.37652" lon="5.35183">
        <ele>364.37</ele>
        <time>2025-01-04T14:17:19.562Z</time>
      </trkpt>
      <trkpt lat="48.3764" lon="5.35207">
        <ele>364.61</ele>
        <time>2025-01-04T14:17:22.938Z</time>
      </trkpt>
      <trkpt lat="48.37628" lon="5.35231">
        <ele>364.85</ele>
        <time>2025-01-04T14:17:26.317Z</time>
      </trkpt>
      <trkpt lat="48.37616" lon="5.35256">
        <ele>365.09</ele>
        <time>2025-01-04T14:17:29.699Z</time>
      </trkpt>
      <trkpt lat="48.37603" lon="5.35281">
        <ele>365.29</ele>
        <time>2025-01-04T14:17:33.085Z</time>
      </trkpt>
      <trkpt lat="48.37594" lon="5.35301">
        <ele>365.47</ele>
        <time>2025-01-04T14:17:36.473Z</time>
      </trkpt>
      <trkpt lat="48.37584" lon="5.3532">
        <ele>365.67</ele>
        <time>2025-01-04T14:17:39.864Z</time>
      </trkpt>
      <trkpt lat="48.3757" lon="5.3535">
        <ele>365.88</ele>
        <time>2025-01-04T14:17:43.259Z</time>
      </trkpt>
      <trkpt lat="48.37568" lon="5.35354">
        <ele>366.04</ele>
        <time>2025-01-04T14:17:46.654Z</time>
      </trkpt>
      <trkpt lat="48.37571" lon="5.35362">
        <ele>366.16</ele>
        <time>2025-01-04T14:17:50.050Z</time>
      </trkpt>
      <trkpt lat="48.37574" lon="5.35381">
        <ele>366.27</ele>
        <time>2025-01-04T14:17:53.448Z</time>
      </trkpt>
      <trkpt lat="48.37565" lon="5.35414">
        <ele>366.46</ele>
        <time>2025-01-04T14:17:56.850Z</time>
      </trkpt>
      <trkpt lat="48.37556" lon="5.35446">
        <ele>366.58</ele>
        <time>2025-01-04T14:18:00.256Z</time>
      </trkpt>
      <trkpt lat="48.37547" lon="5.35478">
        <ele>366.58</ele>
        <time>2025-01-04T14:18:03.666Z</time>
      </trkpt>
      <trkpt lat="48.37539" lon="5.35506">
        <ele>366.58</ele>
        <time>2025-01-04T14:18:07.079Z</time>
      </trkpt>
      <trkpt lat="48.37531" lon="5.35534">
        <ele>366.58</ele>
        <time>2025-01-04T14:18:10.495Z</time>
      </trkpt>
      <trkpt lat="48.37521" lon="5.35573">
        <ele>366.57</ele>
        <time>2025-01-04T14:18:13.916Z</time>
      </trkpt>
      <trkpt lat="48.3751" lon="5.35612">
        <ele>366.56</ele>
        <time>2025-01-04T14:18:17.341Z</time>
      </trkpt>
      <trkpt lat="48.37498" lon="5.3565">
        <ele>366.56</ele>
        <time>2025-01-04T14:18:20.771Z</time>
      </trkpt>
      <trkpt lat="48.37485" lon="5.35689">
        <ele>366.56</ele>
        <time>2025-01-04T14:18:24.205Z</time>
      </trkpt>
      <trkpt lat="48.37482" lon="5.35698">
        <ele>366.51</ele>
        <time>2025-01-04T14:18:27.640Z</time>
      </trkpt>
      <trkpt lat="48.37466" lon="5.35729">
        <ele>366.44</ele>
        <time>2025-01-04T14:18:31.079Z</time>
      </trkpt>
      <trkpt lat="48.3745" lon="5.3576">
        <ele>366.39</ele>
        <time>2025-01-04T14:18:34.523Z</time>
      </trkpt>
      <trkpt lat="48.37428" lon="5.3579">
        <ele>366.38</ele>
        <time>2025-01-04T14:18:37.971Z</time>
      </trkpt>
      <trkpt lat="48.37406" lon="5.3582">
        <ele>366.33</ele>
        <time>2025-01-04T14:18:41.424Z</time>
      </trkpt>
      <trkpt lat="48.37401" lon="5.35827">
        <ele>366.28</ele>
        <time>2025-01-04T14:18:44.878Z</time>
      </trkpt>
      <trkpt lat="48.37379" lon="5.35857">
        <ele>366.26</ele>
        <time>2025-01-04T14:18:48.337Z</time>
      </trkpt>
      <trkpt lat="48.37358" lon="5.35887">
        <ele>366.23</ele>
        <time>2025-01-04T14:18:51.801Z</time>
      </trkpt>
      <trkpt lat="48.37347" lon="5.35909">
        <ele>366.19</ele>
        <time>2025-01-04T14:18:55.268Z</time>
      </trkpt>
      <trkpt lat="48.37337" lon="5.35931">
        <ele>366.14</ele>
        <time>2025-01-04T14:18:58.737Z</time>
      </trkpt>
      <trkpt lat="48.37324" lon="5.35961">
        <ele>366.07</ele>
        <time>2025-01-04T14:19:02.210Z</time>
      </trkpt>
      <trkpt lat="48.37311" lon="5.35991">
        <ele>365.98</ele>
        <time>2025-01-04T14:19:05.687Z</time>
      </trkpt>
      <trkpt lat="48.373" lon="5.36028">
        <ele>365.82</ele>
        <time>2025-01-04T14:19:09.168Z</time>
      </trkpt>
      <trkpt lat="48.37288" lon="5.36065">
        <ele>365.65</ele>
        <time>2025-01-04T14:19:12.654Z</time>
      </trkpt>
      <trkpt lat="48.37285" lon="5.36074">
        <ele>365.49</ele>
        <time>2025-01-04T14:19:16.141Z</time>
      </trkpt>
      <trkpt lat="48.37273" lon="5.36099">
        <ele>365.32</ele>
        <time>2025-01-04T14:19:19.631Z</time>
      </trkpt>
      <trkpt lat="48.3726" lon="5.36125">
        <ele>365.09</ele>
        <time>2025-01-04T14:19:23.125Z</time>
      </trkpt>
      <trkpt lat="48.37243" lon="5.36147">
        <ele>364.86</ele>
        <time>2025-01-04T14:19:26.622Z</time>
      </trkpt>
      <trkpt lat="48.37225" lon="5.3617">
        <ele>364.65</ele>
        <time>2025-01-04T14:19:30.123Z</time>
      </trkpt>
      <trkpt lat="48.37203" lon="5.36196">
        <ele>364.52</ele>
        <time>2025-01-04T14:19:33.629Z</time>
      </trkpt>
      <trkpt lat="48.3718" lon="5.36222">
        <ele>364.42</ele>
        <time>2025-01-04T14:19:37.139Z</time>
      </trkpt>
      <trkpt lat="48.37157" lon="5.36249">
        <ele>364.35</ele>
        <time>2025-01-04T14:19:40.654Z</time>
      </trkpt>
      <trkpt lat="48.37133" lon="5.36275">
        <ele>364.26</ele>
        <time>2025-01-04T14:19:44.173Z</time>
      </trkpt>
      <trkpt lat="48.37128" lon="5.36281">
        <ele>364.13</ele>
        <time>2025-01-04T14:19:47.693Z</time>
      </trkpt>
      <trkpt lat="48.37105" lon="5.36302">
        <ele>364.04</ele>
        <time>2025-01-04T14:19:51.218Z</time>
      </trkpt>
      <trkpt lat="48.37081" lon="5.36324">
        <ele>363.85</ele>
        <time>2025-01-04T14:19:54.747Z</time>
      </trkpt>
      <trkpt lat="48.37056" lon="5.36344">
        <ele>363.7</ele>
        <time>2025-01-04T14:19:58.281Z</time>
      </trkpt>
      <trkpt lat="48.37031" lon="5.36365">
        <ele>363.54</ele>
        <time>2025-01-04T14:20:01.819Z</time>
      </trkpt>
      <trkpt lat="48.37005" lon="5.36389">
        <ele>363.41</ele>
        <time>2025-01-04T14:20:05.362Z</time>
      </trkpt>
      <trkpt lat="48.3698" lon="5.36412">
        <ele>363.3</ele>
        <time>2025-01-04T14:20:08.910Z</time>
      </trkpt>
      <trkpt lat="48.36966" lon="5.36434">
        <ele>363.21</ele>
        <time>2025-01-04T14:20:12.461Z</time>
      </trkpt>
      <trkpt lat="48.36953" lon="5.36457">
        <ele>363.2</ele>
        <time>2025-01-04T14:20:16.015Z</time>
      </trkpt>
      <trkpt lat="48.36939" lon="5.36481">
        <ele>363.26</ele>
        <time>2025-01-04T14:20:19.573Z</time>
      </trkpt>
      <trkpt lat="48.36925" lon="5.36505">
        <ele>363.34</ele>
        <time>2025-01-04T14:20:23.134Z</time>
      </trkpt>
      <trkpt lat="48.36907" lon="5.36527">
        <ele>363.34</ele>
        <time>2025-01-04T14:20:26.699Z</time>
      </trkpt>
      <trkpt lat="48.36893" lon="5.3654">
        <ele>363.37</ele>
        <time>2025-01-04T14:20:30.267Z</time>
      </trkpt>
      <trkpt lat="48.36867" lon="5.3656">
        <ele>363.42</ele>
        <time>2025-01-04T14:20:33.839Z</time>
      </trkpt>
      <trkpt lat="48.36841" lon="5.3658">
        <ele>363.51</ele>
        <time>2025-01-04T14:20:37.416Z</time>
      </trkpt>
      <trkpt lat="48.36827" lon="5.36591">
        <ele>363.67</ele>
        <time>2025-01-04T14:20:40.996Z</time>
      </trkpt>
      <trkpt lat="48.368" lon="5.36611">
        <ele>363.88</ele>
        <time>2025-01-04T14:20:44.580Z</time>
      </trkpt>
      <trkpt lat="48.36773" lon="5.36632">
        <ele>364.1</ele>
        <time>2025-01-04T14:20:48.169Z</time>
      </trkpt>
      <trkpt lat="48.36767" lon="5.36637">
        <ele>364.26</ele>
        <time>2025-01-04T14:20:51.759Z</time>
      </trkpt>
      <trkpt lat="48.36747" lon="5.36656">
        <ele>364.47</ele>
        <time>2025-01-04T14:20:55.353Z</time>
      </trkpt>
      <trkpt lat="48.36727" lon="5.36675">
        <ele>364.69</ele>
        <time>2025-01-04T14:20:58.951Z</time>
      </trkpt>
      <trkpt lat="48.36709" lon="5.36699">
        <ele>364.95</ele>
        <time>2025-01-04T14:21:02.553Z</time>
      </trkpt>
      <trkpt lat="48.36691" lon="5.36722">
        <ele>365.17</ele>
        <time>2025-01-04T14:21:06.159Z</time>
      </trkpt>
      <trkpt lat="48.36671" lon="5.36748">
        <ele>365.42</ele>
        <time>2025-01-04T14:21:09.769Z</time>
      </trkpt>
      <trkpt lat="48.36652" lon="5.36773">
        <ele>365.62</ele>
        <time>2025-01-04T14:21:13.383Z</time>
      </trkpt>
      <trkpt lat="48.36632" lon="5.36797">
        <ele>365.86</ele>
        <time>2025-01-04T14:21:17.001Z</time>
      </trkpt>
      <trkpt lat="48.36612" lon="5.36821">
        <ele>366.09</ele>
        <time>2025-01-04T14:21:20.623Z</time>
      </trkpt>
      <trkpt lat="48.36594" lon="5.3684">
        <ele>366.36</ele>
        <time>2025-01-04T14:21:24.249Z</time>
      </trkpt>
      <trkpt lat="48.36575" lon="5.36859">
        <ele>366.69</ele>
        <time>2025-01-04T14:21:27.878Z</time>
      </trkpt>
      <trkpt lat="48.36556" lon="5.3688">
        <ele>367.04</ele>
        <time>2025-01-04T14:21:31.511Z</time>
      </trkpt>
      <trkpt lat="48.36536" lon="5.36901">
        <ele>367.42</ele>
        <time>2025-01-04T14:21:35.148Z</time>
      </trkpt>
      <trkpt lat="48.36514" lon="5.36924">
        <ele>367.84</ele>
        <time>2025-01-04T14:21:38.789Z</time>
      </trkpt>
      <trkpt lat="48.36497" lon="5.36942">
        <ele>368.27</ele>
        <time>2025-01-04T14:21:42.434Z</time>
      </trkpt>
      <trkpt lat="48.36474" lon="5.36964">
        <ele>368.83</ele>
        <time>2025-01-04T14:21:46.083Z</time>
      </trkpt>
      <trkpt lat="48.36451" lon="5.36987">
        <ele>369.41</ele>
        <time>2025-01-04T14:21:49.736Z</time>
      </trkpt>
      <trkpt lat="48.36437" lon="5.37">
        <ele>369.96</ele>
        <time>2025-01-04T14:21:53.392Z</time>
      </trkpt>
      <trkpt lat="48.36423" lon="5.37014">
        <ele>370.53</ele>
        <time>2025-01-04T14:21:57.051Z</time>
      </trkpt>
      <trkpt lat="48.36406" lon="5.37031">
        <ele>371.11</ele>
        <time>2025-01-04T14:22:00.713Z</time>
      </trkpt>
      <trkpt lat="48.36394" lon="5.37042">
        <ele>371.73</ele>
        <time>2025-01-04T14:22:04.377Z</time>
      </trkpt>
      <trkpt lat="48.36368" lon="5.37067">
        <ele>372.4</ele>
        <time>2025-01-04T14:22:08.046Z</time>
      </trkpt>
      <trkpt lat="48.36347" lon="5.37087">
        <ele>373.13</ele>
        <time>2025-01-04T14:22:11.719Z</time>
      </trkpt>
      <trkpt lat="48.36338" lon="5.37099">
        <ele>373.86</ele>
        <time>2025-01-04T14:22:15.394Z</time>
      </trkpt>
      <trkpt lat="48.3632" lon="5.37125">
        <ele>374.62</ele>
        <time>2025-01-04T14:22:19.073Z</time>
      </trkpt>
      <trkpt lat="48.36299" lon="5.37156">
        <ele>375.37</ele>
        <time>2025-01-04T14:22:22.757Z</time>
      </trkpt>
      <trkpt lat="48.36288" lon="5.37175">
        <ele>376.15</ele>
        <time>2025-01-04T14:22:26.443Z</time>
      </trkpt>
      <trkpt lat="48.36277" lon="5.37193">
        <ele>376.89</ele>
        <time>2025-01-04T14:22:30.132Z</time>
      </trkpt>
      <trkpt lat="48.36265" lon="5.37213">
        <ele>377.77</ele>
        <time>2025-01-04T14:22:33.824Z</time>
      </trkpt>
      <trkpt lat="48.36253" lon="5.37232">
        <ele>378.57</ele>
        <time>2025-01-04T14:22:37.519Z</time>
      </trkpt>
      <trkpt lat="48.36241" lon="5.37253">
        <ele>379.39</ele>
        <time>2025-01-04T14:22:41.217Z</time>
      </trkpt>
      <trkpt lat="48.36228" lon="5.37273">
        <ele>380.2</ele>
        <time>2025-01-04T14:22:44.918Z</time>
      </trkpt>
      <trkpt lat="48.3621" lon="5.37303">
        <ele>381.04</ele>
        <time>2025-01-04T14:22:48.623Z</time>
      </trkpt>
      <trkpt lat="48.36196" lon="5.37328">
        <ele>381.92</ele>
        <time>2025-01-04T14:22:52.331Z</time>
      </trkpt>
      <trkpt lat="48.36181" lon="5.37351">
        <ele>382.8</ele>
        <time>2025-01-04T14:22:56.043Z</time>
      </trkpt>
      <trkpt lat="48.36166" lon="5.37377">
        <ele>383.61</ele>
        <time>2025-01-04T14:22:59.759Z</time>
      </trkpt>
      <trkpt lat="48.36148" lon="5.37406">
        <ele>384.43</ele>
        <time>2025-01-04T14:23:03.479Z</time>
      </trkpt>
      <trkpt lat="48.3613" lon="5.37437">
        <ele>385.2</ele>
        <time>2025-01-04T14:23:07.203Z</time>
      </trkpt>
      <trkpt lat="48.36119" lon="5.37461">
        <ele>385.97</ele>
        <time>2025-01-04T14:23:10.930Z</time>
      </trkpt>
      <trkpt lat="48.3611" lon="5.3748">
        <ele>386.68</ele>
        <time>2025-01-04T14:23:14.660Z</time>
      </trkpt>
      <trkpt lat="48.36101" lon="5.37499">
        <ele>387.34</ele>
        <time>2025-01-04T14:23:18.392Z</time>
      </trkpt>
      <trkpt lat="48.36087" lon="5.3753">
        <ele>387.92</ele>
        <time>2025-01-04T14:23:22.128Z</time>
      </trkpt>
      <trkpt lat="48.36074" lon="5.3756">
        <ele>388.51</ele>
        <time>2025-01-04T14:23:25.868Z</time>
      </trkpt>
      <trkpt lat="48.36066" lon="5.37581">
        <ele>389.08</ele>
        <time>2025-01-04T14:23:29.611Z</time>
      </trkpt>
      <trkpt lat="48.36061" lon="5.37592">
        <ele>389.62</ele>
        <time>2025-01-04T14:23:33.355Z</time>
      </trkpt>
      <trkpt lat="48.36052" lon="5.37613">
        <ele>390.14</ele>
        <time>2025-01-04T14:23:37.102Z</time>
      </trkpt>
      <trkpt lat="48.36044" lon="5.37633">
        <ele>390.59</ele>
        <time>2025-01-04T14:23:40.851Z</time>
      </trkpt>
      <trkpt lat="48.36034" lon="5.37656">
        <ele>391.01</ele>
        <time>2025-01-04T14:23:44.603Z</time>
      </trkpt>
      <trkpt lat="48.36024" lon="5.3768">
        <ele>391.35</ele>
        <time>2025-01-04T14:23:48.358Z</time>
      </trkpt>
      <trkpt lat="48.3601" lon="5.37713">
        <ele>391.63</ele>
        <time>2025-01-04T14:23:52.117Z</time>
      </trkpt>
      <trkpt lat="48.36001" lon="5.37733">
        <ele>391.88</ele>
        <time>2025-01-04T14:23:55.879Z</time>
      </trkpt>
      <trkpt lat="48.35996" lon="5.37746">
        <ele>392.1</ele>
        <time>2025-01-04T14:23:59.642Z</time>
      </trkpt>
      <trkpt lat="48.35986" lon="5.37769">
        <ele>392.25</ele>
        <time>2025-01-04T14:24:03.408Z</time>
      </trkpt>
      <trkpt lat="48.35976" lon="5.37792">
        <ele>392.44</ele>
        <time>2025-01-04T14:24:07.177Z</time>
      </trkpt>
      <trkpt lat="48.35966" lon="5.37816">
        <ele>392.57</ele>
        <time>2025-01-04T14:24:10.949Z</time>
      </trkpt>
      <trkpt lat="48.35956" lon="5.3784">
        <ele>392.63</ele>
        <time>2025-01-04T14:24:14.724Z</time>
      </trkpt>
      <trkpt lat="48.35945" lon="5.37867">
        <ele>392.64</ele>
        <time>2025-01-04T14:24:18.503Z</time>
      </trkpt>
      <trkpt lat="48.35933" lon="5.37894">
        <ele>392.64</ele>
        <time>2025-01-04T14:24:22.285Z</time>
      </trkpt>
      <trkpt lat="48.35921" lon="5.37922">
        <ele>392.6</ele>
        <time>2025-01-04T14:24:26.071Z</time>
      </trkpt>
      <trkpt lat="48.35909" lon="5.3795">
        <ele>392.52</ele>
        <time>2025-01-04T14:24:29.860Z</time>
      </trkpt>
      <trkpt lat="48.35897" lon="5.37979">
        <ele>392.39</ele>
        <time>2025-01-04T14:24:33.653Z</time>
      </trkpt>
      <trkpt lat="48.35885" lon="5.38007">
        <ele>392.23</ele>
        <time>2025-01-04T14:24:37.449Z</time>
      </trkpt>
      <trkpt lat="48.35876" lon="5.38029">
        <ele>392</ele>
        <time>2025-01-04T14:24:41.248Z</time>
      </trkpt>
      <trkpt lat="48.35867" lon="5.38051">
        <ele>391.76</ele>
        <time>2025-01-04T14:24:45.050Z</time>
      </trkpt>
      <trkpt lat="48.3586" lon="5.38066">
        <ele>391.45</ele>
        <time>2025-01-04T14:24:48.854Z</time>
      </trkpt>
      <trkpt lat="48.35846" lon="5.381">
        <ele>391.09</ele>
        <time>2025-01-04T14:24:52.662Z</time>
      </trkpt>
      <trkpt lat="48.35836" lon="5.38123">
        <ele>390.71</ele>
        <time>2025-01-04T14:24:56.473Z</time>
      </trkpt>
      <trkpt lat="48.35827" lon="5.38145">
        <ele>390.27</ele>
        <time>2025-01-04T14:25:00.287Z</time>
      </trkpt>
      <trkpt lat="48.35824" lon="5.38152">
        <ele>389.77</ele>
        <time>2025-01-04T14:25:04.102Z</time>
      </trkpt>
      <trkpt lat="48.35813" lon="5.38177">
        <ele>389.16</ele>
        <time>2025-01-04T14:25:07.920Z</time>
      </trkpt>
      <trkpt lat="48.35813" lon="5.38177">
        <ele>388.58</ele>
        <time>2025-01-04T14:25:11.738Z</time>
      </trkpt>
      <trkpt lat="48.35803" lon="5.38202">
        <ele>387.93</ele>
        <time>2025-01-04T14:25:15.559Z</time>
      </trkpt>
      <trkpt lat="48.3579" lon="5.38232">
        <ele>387.26</ele>
        <time>2025-01-04T14:25:19.384Z</time>
      </trkpt>
      <trkpt lat="48.35777" lon="5.38262">
        <ele>386.52</ele>
        <time>2025-01-04T14:25:23.213Z</time>
      </trkpt>
      <trkpt lat="48.35769" lon="5.38291">
        <ele>385.74</ele>
        <time>2025-01-04T14:25:27.045Z</time>
      </trkpt>
      <trkpt lat="48.3576" lon="5.38321">
        <ele>384.93</ele>
        <time>2025-01-04T14:25:30.881Z</time>
      </trkpt>
      <trkpt lat="48.35754" lon="5.38355">
        <ele>384.08</ele>
        <time>2025-01-04T14:25:34.720Z</time>
      </trkpt>
      <trkpt lat="48.35747" lon="5.38389">
        <ele>383.2</ele>
        <time>2025-01-04T14:25:38.563Z</time>
      </trkpt>
      <trkpt lat="48.35738" lon="5.38433">
        <ele>382.33</ele>
        <time>2025-01-04T14:25:42.411Z</time>
      </trkpt>
      <trkpt lat="48.35729" lon="5.38477">
        <ele>381.42</ele>
        <time>2025-01-04T14:25:46.264Z</time>
      </trkpt>
      <trkpt lat="48.35721" lon="5.38517">
        <ele>380.45</ele>
        <time>2025-01-04T14:25:50.121Z</time>
      </trkpt>
      <trkpt lat="48.35713" lon="5.38557">
        <ele>379.51</ele>
        <time>2025-01-04T14:25:53.983Z</time>
      </trkpt>
      <trkpt lat="48.35706" lon="5.38593">
        <ele>378.62</ele>
        <time>2025-01-04T14:25:57.849Z</time>
      </trkpt>
      <trkpt lat="48.35698" lon="5.38636">
        <ele>377.77</ele>
        <time>2025-01-04T14:26:01.720Z</time>
      </trkpt>
      <trkpt lat="48.35689" lon="5.38678">
        <ele>376.86</ele>
        <time>2025-01-04T14:26:05.595Z</time>
      </trkpt>
      <trkpt lat="48.35684" lon="5.38702">
        <ele>376.01</ele>
        <time>2025-01-04T14:26:09.473Z</time>
      </trkpt>
      <trkpt lat="48.35676" lon="5.38743">
        <ele>375.14</ele>
        <time>2025-01-04T14:26:13.356Z</time>
      </trkpt>
      <trkpt lat="48.35668" lon="5.38783">
        <ele>374.29</ele>
        <time>2025-01-04T14:26:17.243Z</time>
      </trkpt>
      <trkpt lat="48.35665" lon="5.38798">
        <ele>373.52</ele>
        <time>2025-01-04T14:26:21.132Z</time>
      </trkpt>
      <trkpt lat="48.35658" lon="5.38842">
        <ele>372.75</ele>
        <time>2025-01-04T14:26:25.026Z</time>
      </trkpt>
      <trkpt lat="48.35651" lon="5.38887">
        <ele>372.1</ele>
        <time>2025-01-04T14:26:28.924Z</time>
      </trkpt>
      <trkpt lat="48.35652" lon="5.38922">
        <ele>371.45</ele>
        <time>2025-01-04T14:26:32.826Z</time>
      </trkpt>
      <trkpt lat="48.35652" lon="5.38956">
        <ele>370.87</ele>
        <time>2025-01-04T14:26:36.732Z</time>
      </trkpt>
      <trkpt lat="48.35653" lon="5.38992">
        <ele>370.37</ele>
        <time>2025-01-04T14:26:40.642Z</time>
      </trkpt>
      <trkpt lat="48.35654" lon="5.39027">
        <ele>369.96</ele>
        <time>2025-01-04T14:26:44.555Z</time>
      </trkpt>
      <trkpt lat="48.35651" lon="5.39054">
        <ele>369.58</ele>
        <time>2025-01-04T14:26:48.471Z</time>
      </trkpt>
      <trkpt lat="48.35647" lon="5.39081">
        <ele>369.23</ele>
        <time>2025-01-04T14:26:52.390Z</time>
      </trkpt>
      <trkpt lat="48.35639" lon="5.39126">
        <ele>368.92</ele>
        <time>2025-01-04T14:26:56.314Z</time>
      </trkpt>
      <trkpt lat="48.35631" lon="5.39171">
        <ele>368.64</ele>
        <time>2025-01-04T14:27:00.243Z</time>
      </trkpt>
      <trkpt lat="48.35629" lon="5.39182">
        <ele>368.45</ele>
        <time>2025-01-04T14:27:04.173Z</time>
      </trkpt>
      <trkpt lat="48.3562" lon="5.39226">
        <ele>368.3</ele>
        <time>2025-01-04T14:27:08.108Z</time>
      </trkpt>
      <trkpt lat="48.35612" lon="5.39268">
        <ele>368.22</ele>
        <time>2025-01-04T14:27:12.048Z</time>
      </trkpt>
      <trkpt lat="48.35609" lon="5.39282">
        <ele>368.22</ele>
        <time>2025-01-04T14:27:15.990Z</time>
      </trkpt>
      <trkpt lat="48.35601" lon="5.39321">
        <ele>368.23</ele>
        <time>2025-01-04T14:27:19.936Z</time>
      </trkpt>
      <trkpt lat="48.35594" lon="5.3936">
        <ele>368.32</ele>
        <time>2025-01-04T14:27:23.886Z</time>
      </trkpt>
      <trkpt lat="48.35591" lon="5.39372">
        <ele>368.51</ele>
        <time>2025-01-04T14:27:27.838Z</time>
      </trkpt>
      <trkpt lat="48.35581" lon="5.3941">
        <ele>368.74</ele>
        <time>2025-01-04T14:27:31.794Z</time>
      </trkpt>
      <trkpt lat="48.35572" lon="5.39448">
        <ele>369.01</ele>
        <time>2025-01-04T14:27:35.754Z</time>
      </trkpt>
      <trkpt lat="48.35561" lon="5.39481">
        <ele>369.28</ele>
        <time>2025-01-04T14:27:39.718Z</time>
      </trkpt>
      <trkpt lat="48.3555" lon="5.39514">
        <ele>369.58</ele>
        <time>2025-01-04T14:27:43.686Z</time>
      </trkpt>
      <trkpt lat="48.35539" lon="5.39549">
        <ele>369.94</ele>
        <time>2025-01-04T14:27:47.658Z</time>
      </trkpt>
      <trkpt lat="48.35528" lon="5.39583">
        <ele>370.31</ele>
        <time>2025-01-04T14:27:51.634Z</time>
      </trkpt>
      <trkpt lat="48.35519" lon="5.39616">
        <ele>370.78</ele>
        <time>2025-01-04T14:27:55.614Z</time>
      </trkpt>
      <trkpt lat="48.3551" lon="5.39648">
        <ele>371.25</ele>
        <time>2025-01-04T14:27:59.598Z</time>
      </trkpt>
      <trkpt lat="48.35503" lon="5.39677">
        <ele>371.69</ele>
        <time>2025-01-04T14:28:03.585Z</time>
      </trkpt>
      <trkpt lat="48.35497" lon="5.39706">
        <ele>372.09</ele>
        <time>2025-01-04T14:28:07.575Z</time>
      </trkpt>
      <trkpt lat="48.35488" lon="5.39738">
        <ele>372.46</ele>
        <time>2025-01-04T14:28:11.569Z</time>
      </trkpt>
      <trkpt lat="48.35479" lon="5.39771">
        <ele>372.8</ele>
        <time>2025-01-04T14:28:15.567Z</time>
      </trkpt>
      <trkpt lat="48.35472" lon="5.39797">
        <ele>373.2</ele>
        <time>2025-01-04T14:28:19.568Z</time>
      </trkpt>
      <trkpt lat="48.35464" lon="5.39823">
        <ele>373.57</ele>
        <time>2025-01-04T14:28:23.572Z</time>
      </trkpt>
      <trkpt lat="48.35457" lon="5.39849">
        <ele>373.94</ele>
        <time>2025-01-04T14:28:27.579Z</time>
      </trkpt>
      <trkpt lat="48.35449" lon="5.39874">
        <ele>374.27</ele>
        <time>2025-01-04T14:28:31.589Z</time>
      </trkpt>
      <trkpt lat="48.35442" lon="5.39898">
        <ele>374.58</ele>
        <time>2025-01-04T14:28:35.602Z</time>
      </trkpt>
      <trkpt lat="48.35435" lon="5.39922">
        <ele>374.87</ele>
        <time>2025-01-04T14:28:39.617Z</time>
      </trkpt>
      <trkpt lat="48.35427" lon="5.39948">
        <ele>375.09</ele>
        <time>2025-01-04T14:28:43.635Z</time>
      </trkpt>
      <trkpt lat="48.3542" lon="5.39973">
        <ele>375.27</ele>
        <time>2025-01-04T14:28:47.656Z</time>
      </trkpt>
      <trkpt lat="48.35414" lon="5.40003">
        <ele>375.45</ele>
        <time>2025-01-04T14:28:51.681Z</time>
      </trkpt>
      <trkpt lat="48.35407" lon="5.40033">
        <ele>375.57</ele>
        <time>2025-01-04T14:28:55.709Z</time>
      </trkpt>
      <trkpt lat="48.35404" lon="5.4006">
        <ele>375.69</ele>
        <time>2025-01-04T14:28:59.740Z</time>
      </trkpt>
      <trkpt lat="48.35401" lon="5.40087">
        <ele>375.8</ele>
        <time>2025-01-04T14:29:03.774Z</time>
      </trkpt>
      <trkpt lat="48.354" lon="5.40123">
        <ele>375.86</ele>
        <time>2025-01-04T14:29:07.812Z</time>
      </trkpt>
      <trkpt lat="48.35399" lon="5.40159">
        <ele>375.9</ele>
        <time>2025-01-04T14:29:11.854Z</time>
      </trkpt>
      <trkpt lat="48.35398" lon="5.40185">
        <ele>375.92</ele>
        <time>2025-01-04T14:29:15.898Z</time>
      </trkpt>
      <trkpt lat="48.35397" lon="5.40212">
        <ele>375.92</ele>
        <time>2025-01-04T14:29:19.945Z</time>
      </trkpt>
      <trkpt lat="48.35396" lon="5.4022">
        <ele>375.95</ele>
        <time>2025-01-04T14:29:23.993Z</time>
      </trkpt>
      <trkpt lat="48.35394" lon="5.40229">
        <ele>375.98</ele>
        <time>2025-01-04T14:29:28.042Z</time>
      </trkpt>
      <trkpt lat="48.35388" lon="5.40246">
        <ele>376.01</ele>
        <time>2025-01-04T14:29:32.093Z</time>
      </trkpt>
      <trkpt lat="48.35377" lon="5.40264">
        <ele>376.01</ele>
        <time>2025-01-04T14:29:36.147Z</time>
      </trkpt>
      <trkpt lat="48.35366" lon="5.40282">
        <ele>376.06</ele>
        <time>2025-01-04T14:29:40.204Z</time>
      </trkpt>
      <trkpt lat="48.35351" lon="5.40306">
        <ele>376.18</ele>
        <time>2025-01-04T14:29:44.264Z</time>
      </trkpt>
      <trkpt lat="48.35337" lon="5.4033">
        <ele>376.31</ele>
        <time>2025-01-04T14:29:48.327Z</time>
      </trkpt>
      <trkpt lat="48.35322" lon="5.40354">
        <ele>376.46</ele>
        <time>2025-01-04T14:29:52.394Z</time>
      </trkpt>
      <trkpt lat="48.35315" lon="5.40365">
        <ele>376.61</ele>
        <time>2025-01-04T14:29:56.462Z</time>
      </trkpt>
      <trkpt lat="48.35305" lon="5.40388">
        <ele>376.78</ele>
        <time>2025-01-04T14:30:00.533Z</time>
      </trkpt>
      <trkpt lat="48.35294" lon="5.40411">
        <ele>376.93</ele>
        <time>2025-01-04T14:30:04.608Z</time>
      </trkpt>
      <trkpt lat="48.35277" lon="5.40449">
        <ele>377.1</ele>
        <time>2025-01-04T14:30:08.687Z</time>
      </trkpt>
      <trkpt lat="48.35271" lon="5.40459">
        <ele>377.27</ele>
        <time>2025-01-04T14:30:12.768Z</time>
      </trkpt>
      <trkpt lat="48.35259" lon="5.40475">
        <ele>377.49</ele>
        <time>2025-01-04T14:30:16.851Z</time>
      </trkpt>
      <trkpt lat="48.35256" lon="5.40478">
        <ele>377.7</ele>
        <time>2025-01-04T14:30:20.935Z</time>
      </trkpt>
      <trkpt lat="48.35252" lon="5.40472">
        <ele>377.92</ele>
        <time>2025-01-04T14:30:25.020Z</time>
      </trkpt>
      <trkpt lat="48.35241" lon="5.40458">
        <ele>378.18</ele>
        <time>2025-01-04T14:30:29.107Z</time>
      </trkpt>
      <trkpt lat="48.3523" lon="5.40444">
        <ele>378.43</ele>
        <time>2025-01-04T14:30:33.196Z</time>
      </trkpt>
      <trkpt lat="48.35215" lon="5.40425">
        <ele>378.72</ele>
        <time>2025-01-04T14:30:37.289Z</time>
      </trkpt>
      <trkpt lat="48.35208" lon="5.40417">
        <ele>378.95</ele>
        <time>2025-01-04T14:30:41.383Z</time>
      </trkpt>
      <trkpt lat="48.35204" lon="5.4042">
        <ele>379.15</ele>
        <time>2025-01-04T14:30:45.478Z</time>
      </trkpt>
      <trkpt lat="48.35202" lon="5.40424">
        <ele>379.33</ele>
        <time>2025-01-04T14:30:49.573Z</time>
      </trkpt>
      <trkpt lat="48.35199" lon="5.40428">
        <ele>379.51</ele>
        <time>2025-01-04T14:30:53.669Z</time>
      </trkpt>
      <trkpt lat="48.35179" lon="5.40415">
        <ele>379.7</ele>
        <time>2025-01-04T14:30:57.768Z</time>
      </trkpt>
      <trkpt lat="48.35157" lon="5.404">
        <ele>379.85</ele>
        <time>2025-01-04T14:31:01.871Z</time>
      </trkpt>
      <trkpt lat="48.35131" lon="5.40375">
        <ele>379.98</ele>
        <time>2025-01-04T14:31:05.979Z</time>
      </trkpt>
      <trkpt lat="48.35108" lon="5.40355">
        <ele>380.13</ele>
        <time>2025-01-04T14:31:10.091Z</time>
      </trkpt>
      <trkpt lat="48.35093" lon="5.40341">
        <ele>380.2</ele>
        <time>2025-01-04T14:31:14.206Z</time>
      </trkpt>
      <trkpt lat="48.35078" lon="5.40327">
        <ele>380.25</ele>
        <time>2025-01-04T14:31:18.324Z</time>
      </trkpt>
      <trkpt lat="48.35054" lon="5.40305">
        <ele>380.3</ele>
        <time>2025-01-04T14:31:22.447Z</time>
      </trkpt>
      <trkpt lat="48.35039" lon="5.40291">
        <ele>380.36</ele>
        <time>2025-01-04T14:31:26.572Z</time>
      </trkpt>
      <trkpt lat="48.35024" lon="5.40278">
        <ele>380.41</ele>
        <time>2025-01-04T14:31:30.700Z</time>
      </trkpt>
      <trkpt lat="48.35002" lon="5.40257">
        <ele>380.38</ele>
        <time>2025-01-04T14:31:34.832Z</time>
      </trkpt>
      <trkpt lat="48.34981" lon="5.40238">
        <ele>380.35</ele>
        <time>2025-01-04T14:31:38.968Z</time>
      </trkpt>
      <trkpt lat="48.34964" lon="5.40222">
        <ele>380.33</ele>
        <time>2025-01-04T14:31:43.108Z</time>
      </trkpt>
      <trkpt lat="48.34947" lon="5.40207">
        <ele>380.27</ele>
        <time>2025-01-04T14:31:47.251Z</time>
      </trkpt>
      <trkpt lat="48.34934" lon="5.40195">
        <ele>380.21</ele>
        <time>2025-01-04T14:31:51.396Z</time>
      </trkpt>
      <trkpt lat="48.3492" lon="5.40182">
        <ele>380.15</ele>
        <time>2025-01-04T14:31:55.544Z</time>
      </trkpt>
      <trkpt lat="48.34913" lon="5.40176">
        <ele>380.1</ele>
        <time>2025-01-04T14:31:59.693Z</time>
      </trkpt>
      <trkpt lat="48.34889" lon="5.40153">
        <ele>380.08</ele>
        <time>2025-01-04T14:32:03.847Z</time>
      </trkpt>
      <trkpt lat="48.34874" lon="5.40141">
        <ele>380.05</ele>
        <time>2025-01-04T14:32:08.003Z</time>
      </trkpt>
      <trkpt lat="48.34858" lon="5.40128">
        <ele>380.01</ele>
        <time>2025-01-04T14:32:12.162Z</time>
      </trkpt>
      <trkpt lat="48.34836" lon="5.40113">
        <ele>379.9</ele>
        <time>2025-01-04T14:32:16.325Z</time>
      </trkpt>
      <trkpt lat="48.34815" lon="5.40099">
        <ele>379.88</ele>
        <time>2025-01-04T14:32:20.492Z</time>
      </trkpt>
      <trkpt lat="48.34806" lon="5.40092">
        <ele>379.9</ele>
        <time>2025-01-04T14:32:24.660Z</time>
      </trkpt>
      <trkpt lat="48.34806" lon="5.40092">
        <ele>379.91</ele>
        <time>2025-01-04T14:32:28.828Z</time>
      </trkpt>
      <trkpt lat="48.34809" lon="5.40095">
        <ele>379.92</ele>
        <time>2025-01-04T14:32:32.997Z</time>
      </trkpt>
      <trkpt lat="48.34826" lon="5.40106">
        <ele>379.93</ele>
        <time>2025-01-04T14:32:37.169Z</time>
      </trkpt>
      <trkpt lat="48.34841" lon="5.40116">
        <ele>380.02</ele>
        <time>2025-01-04T14:32:41.344Z</time>
      </trkpt>
      <trkpt lat="48.34861" lon="5.4013">
        <ele>380.14</ele>
        <time>2025-01-04T14:32:45.522Z</time>
      </trkpt>
      <trkpt lat="48.34883" lon="5.40148">
        <ele>380.21</ele>
        <time>2025-01-04T14:32:49.704Z</time>
      </trkpt>
      <trkpt lat="48.34906" lon="5.40169">
        <ele>380.27</ele>
        <time>2025-01-04T14:32:53.890Z</time>
      </trkpt>
      <trkpt lat="48.3492" lon="5.40183">
        <ele>380.35</ele>
        <time>2025-01-04T14:32:58.079Z</time>
      </trkpt>
      <trkpt lat="48.34935" lon="5.40196">
        <ele>380.45</ele>
        <time>2025-01-04T14:33:02.271Z</time>
      </trkpt>
      <trkpt lat="48.34954" lon="5.40213">
        <ele>380.56</ele>
        <time>2025-01-04T14:33:06.466Z</time>
      </trkpt>
      <trkpt lat="48.34972" lon="5.4023">
        <ele>380.66</ele>
        <time>2025-01-04T14:33:10.665Z</time>
      </trkpt>
      <trkpt lat="48.34994" lon="5.4025">
        <ele>380.74</ele>
        <time>2025-01-04T14:33:14.868Z</time>
      </trkpt>
      <trkpt lat="48.3501" lon="5.40265">
        <ele>380.83</ele>
        <time>2025-01-04T14:33:19.074Z</time>
      </trkpt>
      <trkpt lat="48.35027" lon="5.4028">
        <ele>380.9</ele>
        <time>2025-01-04T14:33:23.283Z</time>
      </trkpt>
      <trkpt lat="48.35052" lon="5.40304">
        <ele>380.9</ele>
        <time>2025-01-04T14:33:27.497Z</time>
      </trkpt>
      <trkpt lat="48.35067" lon="5.40317">
        <ele>380.93</ele>
        <time>2025-01-04T14:33:31.714Z</time>
      </trkpt>
      <trkpt lat="48.35081" lon="5.4033">
        <ele>380.96</ele>
        <time>2025-01-04T14:33:35.933Z</time>
      </trkpt>
      <trkpt lat="48.35095" lon="5.40343">
        <ele>380.98</ele>
        <time>2025-01-04T14:33:40.155Z</time>
      </trkpt>
      <trkpt lat="48.35109" lon="5.40356">
        <ele>380.99</ele>
        <time>2025-01-04T14:33:44.380Z</time>
      </trkpt>
      <trkpt lat="48.35126" lon="5.40371">
        <ele>380.93</ele>
        <time>2025-01-04T14:33:48.608Z</time>
      </trkpt>
      <trkpt lat="48.35143" lon="5.40386">
        <ele>380.87</ele>
        <time>2025-01-04T14:33:52.839Z</time>
      </trkpt>
      <trkpt lat="48.35158" lon="5.40399">
        <ele>380.8</ele>
        <time>2025-01-04T14:33:57.073Z</time>
      </trkpt>
      <trkpt lat="48.35174" lon="5.40412">
        <ele>380.72</ele>
        <time>2025-01-04T14:34:01.310Z</time>
      </trkpt>
      <trkpt lat="48.3519" lon="5.40416">
        <ele>380.62</ele>
        <time>2025-01-04T14:34:05.549Z</time>
      </trkpt>
      <trkpt lat="48.35201" lon="5.40442">
        <ele>380.47</ele>
        <time>2025-01-04T14:34:09.791Z</time>
      </trkpt>
      <trkpt lat="48.35213" lon="5.40467">
        <ele>380.29</ele>
        <time>2025-01-04T14:34:14.037Z</time>
      </trkpt>
      <trkpt lat="48.35223" lon="5.40487">
        <ele>380.11</ele>
        <time>2025-01-04T14:34:18.285Z</time>
      </trkpt>
      <trkpt lat="48.35232" lon="5.40487">
        <ele>379.91</ele>
        <time>2025-01-04T14:34:22.535Z</time>
      </trkpt>
      <trkpt lat="48.35235" lon="5.40485">
        <ele>379.72</ele>
        <time>2025-01-04T14:34:26.786Z</time>
      </trkpt>
      <trkpt lat="48.35225" lon="5.40491">
        <ele>379.57</ele>
        <time>2025-01-04T14:34:31.038Z</time>
      </trkpt>
      <trkpt lat="48.35235" lon="5.40496">
        <ele>379.34</ele>
        <time>2025-01-04T14:34:35.292Z</time>
      </trkpt>
      <trkpt lat="48.35225" lon="5.40507">
        <ele>379.14</ele>
        <time>2025-01-04T14:34:39.548Z</time>
      </trkpt>
      <trkpt lat="48.35198" lon="5.40526">
        <ele>378.91</ele>
        <time>2025-01-04T14:34:43.809Z</time>
      </trkpt>
      <trkpt lat="48.35171" lon="5.40542">
        <ele>378.7</ele>
        <time>2025-01-04T14:34:48.075Z</time>
      </trkpt>
      <trkpt lat="48.35167" lon="5.40544">
        <ele>378.45</ele>
        <time>2025-01-04T14:34:52.341Z</time>
      </trkpt>
      <trkpt lat="48.35155" lon="5.40551">
        <ele>378.19</ele>
        <time>2025-01-04T14:34:56.609Z</time>
      </trkpt>
      <trkpt lat="48.35144" lon="5.40558">
        <ele>377.94</ele>
        <time>2025-01-04T14:35:00.879Z</time>
      </trkpt>
      <trkpt lat="48.35129" lon="5.40569">
        <ele>377.65</ele>
        <time>2025-01-04T14:35:05.152Z</time>
      </trkpt>
      <trkpt lat="48.35115" lon="5.4058">
        <ele>377.34</ele>
        <time>2025-01-04T14:35:09.427Z</time>
      </trkpt>
      <trkpt lat="48.35096" lon="5.40597">
        <ele>376.98</ele>
        <time>2025-01-04T14:35:13.706Z</time>
      </trkpt>
      <trkpt lat="48.35076" lon="5.40614">
        <ele>376.63</ele>
        <time>2025-01-04T14:35:17.989Z</time>
      </trkpt>
      <trkpt lat="48.35058" lon="5.40632">
        <ele>376.36</ele>
        <time>2025-01-04T14:35:22.275Z</time>
      </trkpt>
      <trkpt lat="48.3504" lon="5.40651">
        <ele>376.02</ele>
        <time>2025-01-04T14:35:26.565Z</time>
      </trkpt>
      <trkpt lat="48.35018" lon="5.4067">
        <ele>375.73</ele>
        <time>2025-01-04T14:35:30.859Z</time>
      </trkpt>
      <trkpt lat="48.34995" lon="5.4069">
        <ele>375.41</ele>
        <time>2025-01-04T14:35:35.157Z</time>
      </trkpt>
      <trkpt lat="48.34975" lon="5.40701">
        <ele>375.09</ele>
        <time>2025-01-04T14:35:39.458Z</time>
      </trkpt>
      <trkpt lat="48.34954" lon="5.40713">
        <ele>374.77</ele>
        <time>2025-01-04T14:35:43.763Z</time>
      </trkpt>
      <trkpt lat="48.34931" lon="5.40723">
        <ele>374.41</ele>
        <time>2025-01-04T14:35:48.072Z</time>
      </trkpt>
      <trkpt lat="48.34907" lon="5.40733">
        <ele>373.99</ele>
        <time>2025-01-04T14:35:52.385Z</time>
      </trkpt>
      <trkpt lat="48.3488" lon="5.40744">
        <ele>373.63</ele>
        <time>2025-01-04T14:35:56.702Z</time>
      </trkpt>
      <trkpt lat="48.34854" lon="5.40755">
        <ele>373.35</ele>
        <time>2025-01-04T14:36:01.024Z</time>
      </trkpt>
      <trkpt lat="48.34828" lon="5.4077">
        <ele>373.1</ele>
        <time>2025-01-04T14:36:05.350Z</time>
      </trkpt>
      <trkpt lat="48.34802" lon="5.40785">
        <ele>372.74</ele>
        <time>2025-01-04T14:36:09.681Z</time>
      </trkpt>
      <trkpt lat="48.34776" lon="5.408">
        <ele>372.49</ele>
        <time>2025-01-04T14:36:14.016Z</time>
      </trkpt>
      <trkpt lat="48.3475" lon="5.40815">
        <ele>372.24</ele>
        <time>2025-01-04T14:36:18.355Z</time>
      </trkpt>
      <trkpt lat="48.34727" lon="5.40821">
        <ele>372.03</ele>
        <time>2025-01-04T14:36:22.698Z</time>
      </trkpt>
      <trkpt lat="48.34704" lon="5.40827">
        <ele>371.87</ele>
        <time>2025-01-04T14:36:27.045Z</time>
      </trkpt>
      <trkpt lat="48.34681" lon="5.40826">
        <ele>371.75</ele>
        <time>2025-01-04T14:36:31.396Z</time>
      </trkpt>
      <trkpt lat="48.34658" lon="5.40826">
        <ele>371.63</ele>
        <time>2025-01-04T14:36:35.750Z</time>
      </trkpt>
      <trkpt lat="48.34641" lon="5.4082">
        <ele>371.53</ele>
        <time>2025-01-04T14:36:40.107Z</time>
      </trkpt>
      <trkpt lat="48.34624" lon="5.40815">
        <ele>371.45</ele>
        <time>2025-01-04T14:36:44.467Z</time>
      </trkpt>
      <trkpt lat="48.34605" lon="5.40805">
        <ele>371.43</ele>
        <time>2025-01-04T14:36:48.830Z</time>
      </trkpt>
      <trkpt lat="48.34586" lon="5.40795">
        <ele>371.47</ele>
        <time>2025-01-04T14:36:53.196Z</time>
      </trkpt>
      <trkpt lat="48.34579" lon="5.40793">
        <ele>371.5</ele>
        <time>2025-01-04T14:36:57.563Z</time>
      </trkpt>
      <trkpt lat="48.34573" lon="5.40792">
        <ele>371.55</ele>
        <time>2025-01-04T14:37:01.931Z</time>
      </trkpt>
      <trkpt lat="48.34548" lon="5.4079">
        <ele>371.63</ele>
        <time>2025-01-04T14:37:06.303Z</time>
      </trkpt>
      <trkpt lat="48.34532" lon="5.40796">
        <ele>371.69</ele>
        <time>2025-01-04T14:37:10.678Z</time>
      </trkpt>
      <trkpt lat="48.34516" lon="5.40802">
        <ele>371.78</ele>
        <time>2025-01-04T14:37:15.056Z</time>
      </trkpt>
      <trkpt lat="48.34489" lon="5.40818">
        <ele>371.94</ele>
        <time>2025-01-04T14:37:19.438Z</time>
      </trkpt>
      <trkpt lat="48.34463" lon="5.40833">
        <ele>372.12</ele>
        <time>2025-01-04T14:37:23.825Z</time>
      </trkpt>
      <trkpt lat="48.34442" lon="5.40849">
        <ele>372.36</ele>
        <time>2025-01-04T14:37:28.216Z</time>
      </trkpt>
      <trkpt lat="48.3442" lon="5.40865">
        <ele>372.64</ele>
        <time>2025-01-04T14:37:32.610Z</time>
      </trkpt>
      <trkpt lat="48.34401" lon="5.40883">
        <ele>372.87</ele>
        <time>2025-01-04T14:37:37.008Z</time>
      </trkpt>
      <trkpt lat="48.34381" lon="5.40902">
        <ele>373.13</ele>
        <time>2025-01-04T14:37:41.410Z</time>
      </trkpt>
      <trkpt lat="48.34364" lon="5.40921">
        <ele>373.44</ele>
        <time>2025-01-04T14:37:45.815Z</time>
      </trkpt>
      <trkpt lat="48.34347" lon="5.40941">
        <ele>373.72</ele>
        <time>2025-01-04T14:37:50.224Z</time>
      </trkpt>
      <trkpt lat="48.34322" lon="5.40969">
        <ele>374.03</ele>
        <time>2025-01-04T14:37:54.638Z</time>
      </trkpt>
      <trkpt lat="48.34319" lon="5.40986">
        <ele>374.37</ele>
        <time>2025-01-04T14:37:59.054Z</time>
      </trkpt>
      <trkpt lat="48.34324" lon="5.40995">
        <ele>374.7</ele>
        <time>2025-01-04T14:38:03.471Z</time>
      </trkpt>
      <trkpt lat="48.3433" lon="5.41007">
        <ele>375.07</ele>
        <time>2025-01-04T14:38:07.889Z</time>
      </trkpt>
      <trkpt lat="48.34343" lon="5.41034">
        <ele>375.48</ele>
        <time>2025-01-04T14:38:12.311Z</time>
      </trkpt>
      <trkpt lat="48.34357" lon="5.41061">
        <ele>375.9</ele>
        <time>2025-01-04T14:38:16.737Z</time>
      </trkpt>
      <trkpt lat="48.34374" lon="5.41095">
        <ele>376.38</ele>
        <time>2025-01-04T14:38:21.167Z</time>
      </trkpt>
      <trkpt lat="48.34391" lon="5.41128">
        <ele>376.84</ele>
        <time>2025-01-04T14:38:25.602Z</time>
      </trkpt>
      <trkpt lat="48.34406" lon="5.41158">
        <ele>377.27</ele>
        <time>2025-01-04T14:38:30.041Z</time>
      </trkpt>
      <trkpt lat="48.34421" lon="5.41188">
        <ele>377.66</ele>
        <time>2025-01-04T14:38:34.484Z</time>
      </trkpt>
      <trkpt lat="48.34436" lon="5.41218">
        <ele>378.08</ele>
        <time>2025-01-04T14:38:38.931Z</time>
      </trkpt>
      <trkpt lat="48.34451" lon="5.41248">
        <ele>378.46</ele>
        <time>2025-01-04T14:38:43.382Z</time>
      </trkpt>
      <trkpt lat="48.34465" lon="5.41275">
        <ele>378.83</ele>
        <time>2025-01-04T14:38:47.836Z</time>
      </trkpt>
      <trkpt lat="48.34478" lon="5.41301">
        <ele>379.22</ele>
        <time>2025-01-04T14:38:52.294Z</time>
      </trkpt>
      <trkpt lat="48.34494" lon="5.41332">
        <ele>379.56</ele>
        <time>2025-01-04T14:38:56.756Z</time>
      </trkpt>
      <trkpt lat="48.34509" lon="5.41363">
        <ele>379.89</ele>
        <time>2025-01-04T14:39:01.222Z</time>
      </trkpt>
      <trkpt lat="48.34524" lon="5.41393">
        <ele>380.23</ele>
        <time>2025-01-04T14:39:05.692Z</time>
      </trkpt>
      <trkpt lat="48.34539" lon="5.41422">
        <ele>380.54</ele>
        <time>2025-01-04T14:39:10.166Z</time>
      </trkpt>
      <trkpt lat="48.34554" lon="5.41451">
        <ele>380.86</ele>
        <time>2025-01-04T14:39:14.644Z</time>
      </trkpt>
      <trkpt lat="48.34568" lon="5.41479">
        <ele>381.21</ele>
        <time>2025-01-04T14:39:19.126Z</time>
      </trkpt>
      <trkpt lat="48.34585" lon="5.41512">
        <ele>381.62</ele>
        <time>2025-01-04T14:39:23.612Z</time>
      </trkpt>
      <trkpt lat="48.34601" lon="5.41544">
        <ele>382.1</ele>
        <time>2025-01-04T14:39:28.102Z</time>
      </trkpt>
      <trkpt lat="48.34616" lon="5.41573">
        <ele>382.59</ele>
        <time>2025-01-04T14:39:32.596Z</time>
      </trkpt>
      <trkpt lat="48.3463" lon="5.41602">
        <ele>383.12</ele>
        <time>2025-01-04T14:39:37.094Z</time>
      </trkpt>
      <trkpt lat="48.34645" lon="5.41631">
        <ele>383.67</ele>
        <time>2025-01-04T14:39:41.596Z</time>
      </trkpt>
      <trkpt lat="48.34659" lon="5.4166">
        <ele>384.17</ele>
        <time>2025-01-04T14:39:46.102Z</time>
      </trkpt>
      <trkpt lat="48.34663" lon="5.41667">
        <ele>384.65</ele>
        <time>2025-01-04T14:39:50.609Z</time>
      </trkpt>
      <trkpt lat="48.34678" lon="5.41696">
        <ele>385.13</ele>
        <time>2025-01-04T14:39:55.120Z</time>
      </trkpt>
      <trkpt lat="48.34692" lon="5.41725">
        <ele>385.59</ele>
        <time>2025-01-04T14:39:59.635Z</time>
      </trkpt>
      <trkpt lat="48.34704" lon="5.41749">
        <ele>386.18</ele>
        <time>2025-01-04T14:40:04.153Z</time>
      </trkpt>
      <trkpt lat="48.34716" lon="5.41773">
        <ele>386.78</ele>
        <time>2025-01-04T14:40:08.674Z</time>
      </trkpt>
      <trkpt lat="48.34729" lon="5.41796">
        <ele>387.34</ele>
        <time>2025-01-04T14:40:13.198Z</time>
      </trkpt>
      <trkpt lat="48.34741" lon="5.4182">
        <ele>387.89</ele>
        <time>2025-01-04T14:40:17.725Z</time>
      </trkpt>
      <trkpt lat="48.34747" lon="5.41833">
        <ele>388.43</ele>
        <time>2025-01-04T14:40:22.254Z</time>
      </trkpt>
      <trkpt lat="48.34758" lon="5.41854">
        <ele>388.96</ele>
        <time>2025-01-04T14:40:26.786Z</time>
      </trkpt>
      <trkpt lat="48.34772" lon="5.4188">
        <ele>389.42</ele>
        <time>2025-01-04T14:40:31.321Z</time>
      </trkpt>
      <trkpt lat="48.34786" lon="5.41907">
        <ele>389.84</ele>
        <time>2025-01-04T14:40:35.860Z</time>
      </trkpt>
      <trkpt lat="48.348" lon="5.41933">
        <ele>390.33</ele>
        <time>2025-01-04T14:40:40.403Z</time>
      </trkpt>
      <trkpt lat="48.34814" lon="5.4196">
        <ele>390.88</ele>
        <time>2025-01-04T14:40:44.949Z</time>
      </trkpt>
      <trkpt lat="48.34828" lon="5.41987">
        <ele>391.41</ele>
        <time>2025-01-04T14:40:49.499Z</time>
      </trkpt>
      <trkpt lat="48.34842" lon="5.42014">
        <ele>391.95</ele>
        <time>2025-01-04T14:40:54.053Z</time>
      </trkpt>
      <trkpt lat="48.34856" lon="5.42041">
        <ele>392.48</ele>
        <time>2025-01-04T14:40:58.610Z</time>
      </trkpt>
      <trkpt lat="48.3487" lon="5.42068">
        <ele>393.01</ele>
        <time>2025-01-04T14:41:03.171Z</time>
      </trkpt>
      <trkpt lat="48.34885" lon="5.42098">
        <ele>393.52</ele>
        <time>2025-01-04T14:41:07.736Z</time>
      </trkpt>
      <trkpt lat="48.34901" lon="5.42127">
        <ele>394.03</ele>
        <time>2025-01-04T14:41:12.305Z</time>
      </trkpt>
      <trkpt lat="48.34919" lon="5.42162">
        <ele>394.57</ele>
        <time>2025-01-04T14:41:16.879Z</time>
      </trkpt>
      <trkpt lat="48.34937" lon="5.42197">
        <ele>395</ele>
        <time>2025-01-04T14:41:21.457Z</time>
      </trkpt>
      <trkpt lat="48.34952" lon="5.42225">
        <ele>395.43</ele>
        <time>2025-01-04T14:41:26.039Z</time>
      </trkpt>
      <trkpt lat="48.34966" lon="5.42253">
        <ele>395.85</ele>
        <time>2025-01-04T14:41:30.625Z</time>
      </trkpt>
      <trkpt lat="48.34979" lon="5.42278">
        <ele>396.26</ele>
        <time>2025-01-04T14:41:35.214Z</time>
      </trkpt>
      <trkpt lat="48.34991" lon="5.42303">
        <ele>396.64</ele>
        <time>2025-01-04T14:41:39.807Z</time>
      </trkpt>
      <trkpt lat="48.35004" lon="5.4233">
        <ele>396.86</ele>
        <time>2025-01-04T14:41:44.403Z</time>
      </trkpt>
      <trkpt lat="48.35018" lon="5.42357">
        <ele>397.07</ele>
        <time>2025-01-04T14:41:49.003Z</time>
      </trkpt>
      <trkpt lat="48.35031" lon="5.42383">
        <ele>397.27</ele>
        <time>2025-01-04T14:41:53.606Z</time>
      </trkpt>
      <trkpt lat="48.35044" lon="5.42409">
        <ele>397.38</ele>
        <time>2025-01-04T14:41:58.213Z</time>
      </trkpt>
      <trkpt lat="48.35058" lon="5.42437">
        <ele>397.47</ele>
        <time>2025-01-04T14:42:02.824Z</time>
      </trkpt>
      <trkpt lat="48.35072" lon="5.42466">
        <ele>397.49</ele>
        <time>2025-01-04T14:42:07.438Z</time>
      </trkpt>
      <trkpt lat="48.35087" lon="5.42484">
        <ele>397.43</ele>
        <time>2025-01-04T14:42:12.055Z</time>
      </trkpt>
      <trkpt lat="48.35103" lon="5.42503">
        <ele>397.31</ele>
        <time>2025-01-04T14:42:16.676Z</time>
      </trkpt>
      <trkpt lat="48.35118" lon="5.42517">
        <ele>397.1</ele>
        <time>2025-01-04T14:42:21.300Z</time>
      </trkpt>
      <trkpt lat="48.35134" lon="5.42532">
        <ele>396.81</ele>
        <time>2025-01-04T14:42:25.926Z</time>
      </trkpt>
      <trkpt lat="48.35157" lon="5.42554">
        <ele>396.41</ele>
        <time>2025-01-04T14:42:30.557Z</time>
      </trkpt>
      <trkpt lat="48.3518" lon="5.42575">
        <ele>395.93</ele>
        <time>2025-01-04T14:42:35.192Z</time>
      </trkpt>
      <trkpt lat="48.35203" lon="5.42597">
        <ele>395.37</ele>
        <time>2025-01-04T14:42:39.832Z</time>
      </trkpt>
      <trkpt lat="48.35225" lon="5.42618">
        <ele>394.78</ele>
        <time>2025-01-04T14:42:44.476Z</time>
      </trkpt>
      <trkpt lat="48.35252" lon="5.42642">
        <ele>394.13</ele>
        <time>2025-01-04T14:42:49.125Z</time>
      </trkpt>
      <trkpt lat="48.35279" lon="5.42666">
        <ele>393.37</ele>
        <time>2025-01-04T14:42:53.779Z</time>
      </trkpt>
      <trkpt lat="48.35287" lon="5.42673">
        <ele>392.69</ele>
        <time>2025-01-04T14:42:58.434Z</time>
      </trkpt>
      <trkpt lat="48.35314" lon="5.42691">
        <ele>391.93</ele>
        <time>2025-01-04T14:43:03.094Z</time>
      </trkpt>
      <trkpt lat="48.35341" lon="5.42708">
        <ele>391.18</ele>
        <time>2025-01-04T14:43:07.759Z</time>
      </trkpt>
      <trkpt lat="48.35368" lon="5.42726">
        <ele>390.4</ele>
        <time>2025-01-04T14:43:12.428Z</time>
      </trkpt>
      <trkpt lat="48.35396" lon="5.42743">
        <ele>389.6</ele>
        <time>2025-01-04T14:43:17.102Z</time>
      </trkpt>
      <trkpt lat="48.35419" lon="5.42768">
        <ele>388.77</ele>
        <time>2025-01-04T14:43:21.781Z</time>
      </trkpt>
      <trkpt lat="48.35442" lon="5.42793">
        <ele>387.97</ele>
        <time>2025-01-04T14:43:26.464Z</time>
      </trkpt>
      <trkpt lat="48.35467" lon="5.42821">
        <ele>387.18</ele>
        <time>2025-01-04T14:43:31.152Z</time>
      </trkpt>
      <trkpt lat="48.35492" lon="5.42848">
        <ele>386.34</ele>
        <time>2025-01-04T14:43:35.845Z</time>
      </trkpt>
      <trkpt lat="48.35513" lon="5.42877">
        <ele>385.53</ele>
        <time>2025-01-04T14:43:40.543Z</time>
      </trkpt>
      <trkpt lat="48.35534" lon="5.42905">
        <ele>384.71</ele>
        <time>2025-01-04T14:43:45.245Z</time>
      </trkpt>
      <trkpt lat="48.3554" lon="5.42914">
        <ele>383.89</ele>
        <time>2025-01-04T14:43:49.949Z</time>
      </trkpt>
      <trkpt lat="48.35562" lon="5.42944">
        <ele>383.08</ele>
        <time>2025-01-04T14:43:54.657Z</time>
      </trkpt>
      <trkpt lat="48.35585" lon="5.42974">
        <ele>382.27</ele>
        <time>2025-01-04T14:43:59.370Z</time>
      </trkpt>
      <trkpt lat="48.35608" lon="5.43004">
        <ele>381.5</ele>
        <time>2025-01-04T14:44:04.088Z</time>
      </trkpt>
      <trkpt lat="48.35631" lon="5.43035">
        <ele>380.71</ele>
        <time>2025-01-04T14:44:08.811Z</time>
      </trkpt>
      <trkpt lat="48.35646" lon="5.43051">
        <ele>379.92</ele>
        <time>2025-01-04T14:44:13.537Z</time>
      </trkpt>
      <trkpt lat="48.35669" lon="5.43075">
        <ele>379.04</ele>
        <time>2025-01-04T14:44:18.268Z</time>
      </trkpt>
      <trkpt lat="48.35692" lon="5.431">
        <ele>378.2</ele>
        <time>2025-01-04T14:44:23.003Z</time>
      </trkpt>
      <trkpt lat="48.35716" lon="5.43125">
        <ele>377.48</ele>
        <time>2025-01-04T14:44:27.743Z</time>
      </trkpt>
      <trkpt lat="48.3574" lon="5.4315">
        <ele>376.76</ele>
        <time>2025-01-04T14:44:32.488Z</time>
      </trkpt>
      <trkpt lat="48.35765" lon="5.43176">
        <ele>376.06</ele>
        <time>2025-01-04T14:44:37.237Z</time>
      </trkpt>
      <trkpt lat="48.35773" lon="5.43185">
        <ele>375.42</ele>
        <time>2025-01-04T14:44:41.988Z</time>
      </trkpt>
      <trkpt lat="48.3579" lon="5.43203">
        <ele>374.78</ele>
        <time>2025-01-04T14:44:46.742Z</time>
      </trkpt>
      <trkpt lat="48.35807" lon="5.43221">
        <ele>374.18</ele>
        <time>2025-01-04T14:44:51.500Z</time>
      </trkpt>
      <trkpt lat="48.35825" lon="5.4324">
        <ele>373.67</ele>
        <time>2025-01-04T14:44:56.261Z</time>
      </trkpt>
      <trkpt lat="48.35841" lon="5.43259">
        <ele>373.2</ele>
        <time>2025-01-04T14:45:01.025Z</time>
      </trkpt>
      <trkpt lat="48.35866" lon="5.43288">
        <ele>372.75</ele>
        <time>2025-01-04T14:45:05.795Z</time>
      </trkpt>
      <trkpt lat="48.35891" lon="5.43317">
        <ele>372.39</ele>
        <time>2025-01-04T14:45:10.570Z</time>
      </trkpt>
      <trkpt lat="48.35907" lon="5.43336">
        <ele>372.21</ele>
        <time>2025-01-04T14:45:15.348Z</time>
      </trkpt>
      <trkpt lat="48.35931" lon="5.43365">
        <ele>372.1</ele>
        <time>2025-01-04T14:45:20.131Z</time>
      </trkpt>
      <trkpt lat="48.35955" lon="5.43393">
        <ele>371.98</ele>
        <time>2025-01-04T14:45:24.919Z</time>
      </trkpt>
      <trkpt lat="48.35971" lon="5.43412">
        <ele>371.9</ele>
        <time>2025-01-04T14:45:29.710Z</time>
      </trkpt>
      <trkpt lat="48.3599" lon="5.43433">
        <ele>371.95</ele>
        <time>2025-01-04T14:45:34.505Z</time>
      </trkpt>
      <trkpt lat="48.36008" lon="5.43454">
        <ele>372.09</ele>
        <time>2025-01-04T14:45:39.303Z</time>
      </trkpt>
      <trkpt lat="48.3603" lon="5.43478">
        <ele>372.32</ele>
        <time>2025-01-04T14:45:44.106Z</time>
      </trkpt>
      <trkpt lat="48.36042" lon="5.43491">
        <ele>372.6</ele>
        <time>2025-01-04T14:45:48.911Z</time>
      </trkpt>
      <trkpt lat="48.36049" lon="5.43499">
        <ele>372.92</ele>
        <time>2025-01-04T14:45:53.717Z</time>
      </trkpt>
      <trkpt lat="48.36068" lon="5.43518">
        <ele>373.36</ele>
        <time>2025-01-04T14:45:58.527Z</time>
      </trkpt>
      <trkpt lat="48.36086" lon="5.43531">
        <ele>373.84</ele>
        <time>2025-01-04T14:46:03.340Z</time>
      </trkpt>
      <trkpt lat="48.36093" lon="5.43539">
        <ele>374.33</ele>
        <time>2025-01-04T14:46:08.155Z</time>
      </trkpt>
      <trkpt lat="48.36102" lon="5.43564">
        <ele>374.87</ele>
        <time>2025-01-04T14:46:12.973Z</time>
      </trkpt>
      <trkpt lat="48.36109" lon="5.43586">
        <ele>375.43</ele>
        <time>2025-01-04T14:46:17.793Z</time>
      </trkpt>
      <trkpt lat="48.36116" lon="5.43608">
        <ele>376.09</ele>
        <time>2025-01-04T14:46:22.616Z</time>
      </trkpt>
      <trkpt lat="48.3612" lon="5.4362">
        <ele>376.7</ele>
        <time>2025-01-04T14:46:27.440Z</time>
      </trkpt>
      <trkpt lat="48.36126" lon="5.43642">
        <ele>377.37</ele>
        <time>2025-01-04T14:46:32.267Z</time>
      </trkpt>
      <trkpt lat="48.36132" lon="5.43665">
        <ele>378.01</ele>
        <time>2025-01-04T14:46:37.097Z</time>
      </trkpt>
      <trkpt lat="48.36139" lon="5.4369">
        <ele>378.67</ele>
        <time>2025-01-04T14:46:41.929Z</time>
      </trkpt>
      <trkpt lat="48.36146" lon="5.43715">
        <ele>379.27</ele>
        <time>2025-01-04T14:46:46.764Z</time>
      </trkpt>
      <trkpt lat="48.36154" lon="5.43744">
        <ele>379.91</ele>
        <time>2025-01-04T14:46:51.603Z</time>
      </trkpt>
      <trkpt lat="48.36161" lon="5.43773">
        <ele>380.51</ele>
        <time>2025-01-04T14:46:56.445Z</time>
      </trkpt>
      <trkpt lat="48.36169" lon="5.43799">
        <ele>381.1</ele>
        <time>2025-01-04T14:47:01.290Z</time>
      </trkpt>
      <trkpt lat="48.36176" lon="5.43825">
        <ele>381.7</ele>
        <time>2025-01-04T14:47:06.138Z</time>
      </trkpt>
      <trkpt lat="48.36182" lon="5.43848">
        <ele>382.3</ele>
        <time>2025-01-04T14:47:10.989Z</time>
      </trkpt>
      <trkpt lat="48.36188" lon="5.43871">
        <ele>382.87</ele>
        <time>2025-01-04T14:47:15.842Z</time>
      </trkpt>
      <trkpt lat="48.36197" lon="5.43902">
        <ele>383.4</ele>
        <time>2025-01-04T14:47:20.699Z</time>
      </trkpt>
      <trkpt lat="48.36206" lon="5.43932">
        <ele>383.92</ele>
        <time>2025-01-04T14:47:25.559Z</time>
      </trkpt>
      <trkpt lat="48.3621" lon="5.43962">
        <ele>384.4</ele>
        <time>2025-01-04T14:47:30.423Z</time>
      </trkpt>
      <trkpt lat="48.36211" lon="5.43978">
        <ele>384.88</ele>
        <time>2025-01-04T14:47:35.288Z</time>
      </trkpt>
      <trkpt lat="48.3621" lon="5.43993">
        <ele>385.37</ele>
        <time>2025-01-04T14:47:40.155Z</time>
      </trkpt>
      <trkpt lat="48.36205" lon="5.44008">
        <ele>385.83</ele>
        <time>2025-01-04T14:47:45.024Z</time>
      </trkpt>
      <trkpt lat="48.3619" lon="5.44042">
        <ele>386.32</ele>
        <time>2025-01-04T14:47:49.897Z</time>
      </trkpt>
      <trkpt lat="48.36176" lon="5.44059">
        <ele>386.82</ele>
        <time>2025-01-04T14:47:54.773Z</time>
      </trkpt>
      <trkpt lat="48.36162" lon="5.44075">
        <ele>387.34</ele>
        <time>2025-01-04T14:47:59.652Z</time>
      </trkpt>
      <trkpt lat="48.36148" lon="5.44092">
        <ele>387.76</ele>
        <time>2025-01-04T14:48:04.534Z</time>
      </trkpt>
      <trkpt lat="48.36133" lon="5.44109">
        <ele>388.19</ele>
        <time>2025-01-04T14:48:09.419Z</time>
      </trkpt>
      <trkpt lat="48.36118" lon="5.44126">
        <ele>388.51</ele>
        <time>2025-01-04T14:48:14.307Z</time>
      </trkpt>
      <trkpt lat="48.36103" lon="5.44143">
        <ele>388.82</ele>
        <time>2025-01-04T14:48:19.198Z</time>
      </trkpt>
      <trkpt lat="48.36085" lon="5.44164">
        <ele>389.22</ele>
        <time>2025-01-04T14:48:24.092Z</time>
      </trkpt>
      <trkpt lat="48.36072" lon="5.44179">
        <ele>389.49</ele>
        <time>2025-01-04T14:48:28.989Z</time>
      </trkpt>
      <trkpt lat="48.3606" lon="5.44194">
        <ele>389.76</ele>
        <time>2025-01-04T14:48:33.889Z</time>
      </trkpt>
      <trkpt lat="48.36038" lon="5.4422">
        <ele>389.95</ele>
        <time>2025-01-04T14:48:38.793Z</time>
      </trkpt>
      <trkpt lat="48.36016" lon="5.44244">
        <ele>390.14</ele>
        <time>2025-01-04T14:48:43.701Z</time>
      </trkpt>
      <trkpt lat="48.36001" lon="5.44262">
        <ele>390.27</ele>
        <time>2025-01-04T14:48:48.612Z</time>
      </trkpt>
      <trkpt lat="48.3599" lon="5.44275">
        <ele>390.37</ele>
        <time>2025-01-04T14:48:53.526Z</time>
      </trkpt>
      <trkpt lat="48.35968" lon="5.44301">
        <ele>390.44</ele>
        <time>2025-01-04T14:48:58.444Z</time>
      </trkpt>
      <trkpt lat="48.35962" lon="5.44311">
        <ele>390.42</ele>
        <time>2025-01-04T14:49:03.364Z</time>
      </trkpt>
      <trkpt lat="48.35956" lon="5.44322">
        <ele>390.36</ele>
        <time>2025-01-04T14:49:08.285Z</time>
      </trkpt>
      <trkpt lat="48.35951" lon="5.44333">
        <ele>390.26</ele>
        <time>2025-01-04T14:49:13.208Z</time>
      </trkpt>
      <trkpt lat="48.35937" lon="5.44374">
        <ele>390.11</ele>
        <time>2025-01-04T14:49:18.136Z</time>
      </trkpt>
      <trkpt lat="48.35926" lon="5.44408">
        <ele>389.95</ele>
        <time>2025-01-04T14:49:23.068Z</time>
      </trkpt>
      <trkpt lat="48.35916" lon="5.44442">
        <ele>389.73</ele>
        <time>2025-01-04T14:49:28.003Z</time>
      </trkpt>
      <trkpt lat="48.35911" lon="5.44468">
        <ele>389.52</ele>
        <time>2025-01-04T14:49:32.941Z</time>
      </trkpt>
      <trkpt lat="48.35907" lon="5.44494">
        <ele>389.27</ele>
        <time>2025-01-04T14:49:37.882Z</time>
      </trkpt>
      <trkpt lat="48.35908" lon="5.44525">
        <ele>389.04</ele>
        <time>2025-01-04T14:49:42.827Z</time>
      </trkpt>
      <trkpt lat="48.3591" lon="5.44556">
        <ele>388.79</ele>
        <time>2025-01-04T14:49:47.775Z</time>
      </trkpt>
      <trkpt lat="48.35912" lon="5.44598">
        <ele>388.51</ele>
        <time>2025-01-04T14:49:52.727Z</time>
      </trkpt>
      <trkpt lat="48.35914" lon="5.44641">
        <ele>388.21</ele>
        <time>2025-01-04T14:49:57.684Z</time>
      </trkpt>
      <trkpt lat="48.35914" lon="5.44653">
        <ele>387.94</ele>
        <time>2025-01-04T14:50:02.642Z</time>
      </trkpt>
      <trkpt lat="48.35916" lon="5.44695">
        <ele>387.68</ele>
        <time>2025-01-04T14:50:07.605Z</time>
      </trkpt>
      <trkpt lat="48.35918" lon="5.44737">
        <ele>387.43</ele>
        <time>2025-01-04T14:50:12.572Z</time>
      </trkpt>
      <trkpt lat="48.35918" lon="5.44764">
        <ele>387.2</ele>
        <time>2025-01-04T14:50:17.542Z</time>
      </trkpt>
      <trkpt lat="48.35917" lon="5.4479">
        <ele>386.99</ele>
        <time>2025-01-04T14:50:22.515Z</time>
      </trkpt>
      <trkpt lat="48.3591" lon="5.4483">
        <ele>386.71</ele>
        <time>2025-01-04T14:50:27.492Z</time>
      </trkpt>
      <trkpt lat="48.35903" lon="5.4487">
        <ele>386.58</ele>
        <time>2025-01-04T14:50:32.474Z</time>
      </trkpt>
      <trkpt lat="48.35893" lon="5.44911">
        <ele>386.55</ele>
        <time>2025-01-04T14:50:37.460Z</time>
      </trkpt>
      <trkpt lat="48.35883" lon="5.44952">
        <ele>386.51</ele>
        <time>2025-01-04T14:50:42.451Z</time>
      </trkpt>
      <trkpt lat="48.35875" lon="5.44984">
        <ele>386.53</ele>
        <time>2025-01-04T14:50:47.446Z</time>
      </trkpt>
      <trkpt lat="48.35866" lon="5.45015">
        <ele>386.56</ele>
        <time>2025-01-04T14:50:52.444Z</time>
      </trkpt>
      <trkpt lat="48.35855" lon="5.45051">
        <ele>386.73</ele>
        <time>2025-01-04T14:50:57.446Z</time>
      </trkpt>
      <trkpt lat="48.35844" lon="5.45086">
        <ele>386.89</ele>
        <time>2025-01-04T14:51:02.453Z</time>
      </trkpt>
      <trkpt lat="48.35828" lon="5.45118">
        <ele>387.02</ele>
        <time>2025-01-04T14:51:07.464Z</time>
      </trkpt>
      <trkpt lat="48.35813" lon="5.4515">
        <ele>387.12</ele>
        <time>2025-01-04T14:51:12.479Z</time>
      </trkpt>
      <trkpt lat="48.35798" lon="5.4518">
        <ele>387.32</ele>
        <time>2025-01-04T14:51:17.498Z</time>
      </trkpt>
      <trkpt lat="48.35782" lon="5.45209">
        <ele>387.57</ele>
        <time>2025-01-04T14:51:22.521Z</time>
      </trkpt>
      <trkpt lat="48.35767" lon="5.45237">
        <ele>387.86</ele>
        <time>2025-01-04T14:51:27.548Z</time>
      </trkpt>
      <trkpt lat="48.35751" lon="5.45265">
        <ele>388.15</ele>
        <time>2025-01-04T14:51:32.579Z</time>
      </trkpt>
      <trkpt lat="48.35734" lon="5.45291">
        <ele>388.48</ele>
        <time>2025-01-04T14:51:37.614Z</time>
      </trkpt>
      <trkpt lat="48.35718" lon="5.45317">
        <ele>388.77</ele>
        <time>2025-01-04T14:51:42.653Z</time>
      </trkpt>
      <trkpt lat="48.35703" lon="5.45339">
        <ele>389.09</ele>
        <time>2025-01-04T14:51:47.695Z</time>
      </trkpt>
      <trkpt lat="48.35689" lon="5.45361">
        <ele>389.39</ele>
        <time>2025-01-04T14:51:52.740Z</time>
      </trkpt>
      <trkpt lat="48.35677" lon="5.45379">
        <ele>389.72</ele>
        <time>2025-01-04T14:51:57.788Z</time>
      </trkpt>
      <trkpt lat="48.35664" lon="5.45398">
        <ele>390.07</ele>
        <time>2025-01-04T14:52:02.839Z</time>
      </trkpt>
      <trkpt lat="48.35646" lon="5.45426">
        <ele>390.48</ele>
        <time>2025-01-04T14:52:07.894Z</time>
      </trkpt>
      <trkpt lat="48.35628" lon="5.45453">
        <ele>390.89</ele>
        <time>2025-01-04T14:52:12.953Z</time>
      </trkpt>
      <trkpt lat="48.3561" lon="5.4548">
        <ele>391.31</ele>
        <time>2025-01-04T14:52:18.016Z</time>
      </trkpt>
      <trkpt lat="48.35592" lon="5.45507">
        <ele>391.67</ele>
        <time>2025-01-04T14:52:23.083Z</time>
      </trkpt>
      <trkpt lat="48.35579" lon="5.45527">
        <ele>391.97</ele>
        <time>2025-01-04T14:52:28.153Z</time>
      </trkpt>
      <trkpt lat="48.35565" lon="5.45548">
        <ele>392.34</ele>
        <time>2025-01-04T14:52:33.226Z</time>
      </trkpt>
      <trkpt lat="48.35554" lon="5.45565">
        <ele>392.7</ele>
        <time>2025-01-04T14:52:38.302Z</time>
      </trkpt>
      <trkpt lat="48.35542" lon="5.45582">
        <ele>393.05</ele>
        <time>2025-01-04T14:52:43.380Z</time>
      </trkpt>
      <trkpt lat="48.35525" lon="5.45608">
        <ele>393.47</ele>
        <time>2025-01-04T14:52:48.462Z</time>
      </trkpt>
      <trkpt lat="48.35508" lon="5.45634">
        <ele>393.93</ele>
        <time>2025-01-04T14:52:53.548Z</time>
      </trkpt>
      <trkpt lat="48.35492" lon="5.45665">
        <ele>394.34</ele>
        <time>2025-01-04T14:52:58.639Z</time>
      </trkpt>
      <trkpt lat="48.35492" lon="5.45665">
        <ele>394.75</ele>
        <time>2025-01-04T14:53:03.730Z</time>
      </trkpt>
      <trkpt lat="48.35475" lon="5.45697">
        <ele>395.17</ele>
        <time>2025-01-04T14:53:08.825Z</time>
      </trkpt>
      <trkpt lat="48.35462" lon="5.45726">
        <ele>395.64</ele>
        <time>2025-01-04T14:53:13.923Z</time>
      </trkpt>
      <trkpt lat="48.35449" lon="5.45755">
        <ele>396.13</ele>
        <time>2025-01-04T14:53:19.025Z</time>
      </trkpt>
      <trkpt lat="48.35438" lon="5.45785">
        <ele>396.59</ele>
        <time>2025-01-04T14:53:24.131Z</time>
      </trkpt>
      <trkpt lat="48.35427" lon="5.45816">
        <ele>397.04</ele>
        <time>2025-01-04T14:53:29.241Z</time>
      </trkpt>
      <trkpt lat="48.35416" lon="5.45847">
        <ele>397.48</ele>
        <time>2025-01-04T14:53:34.354Z</time>
      </trkpt>
      <trkpt lat="48.35405" lon="5.45879">
        <ele>397.89</ele>
        <time>2025-01-04T14:53:39.471Z</time>
      </trkpt>
      <trkpt lat="48.35396" lon="5.45905">
        <ele>398.28</ele>
        <time>2025-01-04T14:53:44.591Z</time>
      </trkpt>
      <trkpt lat="48.35387" lon="5.45931">
        <ele>398.62</ele>
        <time>2025-01-04T14:53:49.715Z</time>
      </trkpt>
      <trkpt lat="48.35378" lon="5.45957">
        <ele>399.02</ele>
        <time>2025-01-04T14:53:54.842Z</time>
      </trkpt>
      <trkpt lat="48.35368" lon="5.45984">
        <ele>399.38</ele>
        <time>2025-01-04T14:53:59.972Z</time>
      </trkpt>
      <trkpt lat="48.35356" lon="5.46019">
        <ele>399.73</ele>
        <time>2025-01-04T14:54:05.106Z</time>
      </trkpt>
      <trkpt lat="48.35344" lon="5.46055">
        <ele>400.03</ele>
        <time>2025-01-04T14:54:10.244Z</time>
      </trkpt>
      <trkpt lat="48.35335" lon="5.46081">
        <ele>400.38</ele>
        <time>2025-01-04T14:54:15.386Z</time>
      </trkpt>
      <trkpt lat="48.35329" lon="5.46097">
        <ele>400.69</ele>
        <time>2025-01-04T14:54:20.530Z</time>
      </trkpt>
      <trkpt lat="48.35326" lon="5.46105">
        <ele>401.01</ele>
        <time>2025-01-04T14:54:25.674Z</time>
      </trkpt>
      <trkpt lat="48.35318" lon="5.4613">
        <ele>401.37</ele>
        <time>2025-01-04T14:54:30.821Z</time>
      </trkpt>
      <trkpt lat="48.35308" lon="5.46159">
        <ele>401.69</ele>
        <time>2025-01-04T14:54:35.972Z</time>
      </trkpt>
      <trkpt lat="48.35298" lon="5.46188">
        <ele>401.98</ele>
        <time>2025-01-04T14:54:41.126Z</time>
      </trkpt>
      <trkpt lat="48.35289" lon="5.46213">
        <ele>402.24</ele>
        <time>2025-01-04T14:54:46.283Z</time>
      </trkpt>
      <trkpt lat="48.35281" lon="5.46237">
        <ele>402.47</ele>
        <time>2025-01-04T14:54:51.443Z</time>
      </trkpt>
      <trkpt lat="48.35267" lon="5.46276">
        <ele>402.72</ele>
        <time>2025-01-04T14:54:56.608Z</time>
      </trkpt>
      <trkpt lat="48.35264" lon="5.46284">
        <ele>402.92</ele>
        <time>2025-01-04T14:55:01.774Z</time>
      </trkpt>
      <trkpt lat="48.35249" lon="5.46322">
        <ele>403.08</ele>
        <time>2025-01-04T14:55:06.945Z</time>
      </trkpt>
      <trkpt lat="48.35245" lon="5.4633">
        <ele>403.23</ele>
        <time>2025-01-04T14:55:12.117Z</time>
      </trkpt>
      <trkpt lat="48.35236" lon="5.46352">
        <ele>403.31</ele>
        <time>2025-01-04T14:55:17.292Z</time>
      </trkpt>
      <trkpt lat="48.3523" lon="5.46367">
        <ele>403.43</ele>
        <time>2025-01-04T14:55:22.468Z</time>
      </trkpt>
      <trkpt lat="48.35221" lon="5.46389">
        <ele>403.52</ele>
        <time>2025-01-04T14:55:27.647Z</time>
      </trkpt>
      <trkpt lat="48.35215" lon="5.46404">
        <ele>403.64</ele>
        <time>2025-01-04T14:55:32.828Z</time>
      </trkpt>
      <trkpt lat="48.352" lon="5.46432">
        <ele>403.76</ele>
        <time>2025-01-04T14:55:38.013Z</time>
      </trkpt>
      <trkpt lat="48.35184" lon="5.46459">
        <ele>403.92</ele>
        <time>2025-01-04T14:55:43.202Z</time>
      </trkpt>
      <trkpt lat="48.35169" lon="5.46486">
        <ele>404.04</ele>
        <time>2025-01-04T14:55:48.394Z</time>
      </trkpt>
      <trkpt lat="48.35155" lon="5.46513">
        <ele>404.11</ele>
        <time>2025-01-04T14:55:53.590Z</time>
      </trkpt>
      <trkpt lat="48.3515" lon="5.4652">
        <ele>404.19</ele>
        <time>2025-01-04T14:55:58.787Z</time>
      </trkpt>
      <trkpt lat="48.35138" lon="5.46541">
        <ele>404.3</ele>
        <time>2025-01-04T14:56:03.987Z</time>
      </trkpt>
      <trkpt lat="48.35127" lon="5.46558">
        <ele>404.34</ele>
        <time>2025-01-04T14:56:09.190Z</time>
      </trkpt>
      <trkpt lat="48.35116" lon="5.46574">
        <ele>404.38</ele>
        <time>2025-01-04T14:56:14.395Z</time>
      </trkpt>
      <trkpt lat="48.35104" lon="5.46591">
        <ele>404.4</ele>
        <time>2025-01-04T14:56:19.603Z</time>
      </trkpt>
      <trkpt lat="48.35092" lon="5.46607">
        <ele>404.38</ele>
        <time>2025-01-04T14:56:24.813Z</time>
      </trkpt>
      <trkpt lat="48.35078" lon="5.46626">
        <ele>404.34</ele>
        <time>2025-01-04T14:56:30.026Z</time>
      </trkpt>
      <trkpt lat="48.35065" lon="5.46645">
        <ele>404.32</ele>
        <time>2025-01-04T14:56:35.242Z</time>
      </trkpt>
      <trkpt lat="48.35056" lon="5.46657">
        <ele>404.31</ele>
        <time>2025-01-04T14:56:40.460Z</time>
      </trkpt>
      <trkpt lat="48.35043" lon="5.46675">
        <ele>404.32</ele>
        <time>2025-01-04T14:56:45.681Z</time>
      </trkpt>
      <trkpt lat="48.35029" lon="5.46696">
        <ele>404.3</ele>
        <time>2025-01-04T14:56:50.905Z</time>
      </trkpt>
      <trkpt lat="48.35015" lon="5.46716">
        <ele>404.34</ele>
        <time>2025-01-04T14:56:56.132Z</time>
      </trkpt>
      <trkpt lat="48.35001" lon="5.46738">
        <ele>404.33</ele>
        <time>2025-01-04T14:57:01.362Z</time>
      </trkpt>
      <trkpt lat="48.34987" lon="5.46759">
        <ele>404.36</ele>
        <time>2025-01-04T14:57:06.596Z</time>
      </trkpt>
      <trkpt lat="48.34976" lon="5.46776">
        <ele>404.39</ele>
        <time>2025-01-04T14:57:11.832Z</time>
      </trkpt>
      <trkpt lat="48.34965" lon="5.46793">
        <ele>404.4</ele>
        <time>2025-01-04T14:57:17.071Z</time>
      </trkpt>
      <trkpt lat="48.34952" lon="5.46814">
        <ele>404.4</ele>
        <time>2025-01-04T14:57:22.313Z</time>
      </trkpt>
      <trkpt lat="48.34938" lon="5.46834">
        <ele>404.45</ele>
        <time>2025-01-04T14:57:27.558Z</time>
      </trkpt>
      <trkpt lat="48.3492" lon="5.46864">
        <ele>404.43</ele>
        <time>2025-01-04T14:57:32.807Z</time>
      </trkpt>
      <trkpt lat="48.34901" lon="5.46893">
        <ele>404.45</ele>
        <time>2025-01-04T14:57:38.061Z</time>
      </trkpt>
      <trkpt lat="48.34896" lon="5.469">
        <ele>404.53</ele>
        <time>2025-01-04T14:57:43.316Z</time>
      </trkpt>
      <trkpt lat="48.34879" lon="5.46927">
        <ele>404.61</ele>
        <time>2025-01-04T14:57:48.575Z</time>
      </trkpt>
      <trkpt lat="48.34861" lon="5.46954">
        <ele>404.76</ele>
        <time>2025-01-04T14:57:53.838Z</time>
      </trkpt>
      <trkpt lat="48.34844" lon="5.46976">
        <ele>404.93</ele>
        <time>2025-01-04T14:57:59.104Z</time>
      </trkpt>
      <trkpt lat="48.34827" lon="5.46997">
        <ele>405.16</ele>
        <time>2025-01-04T14:58:04.374Z</time>
      </trkpt>
      <trkpt lat="48.3481" lon="5.47019">
        <ele>405.36</ele>
        <time>2025-01-04T14:58:09.647Z</time>
      </trkpt>
      <trkpt lat="48.34793" lon="5.47039">
        <ele>405.6</ele>
        <time>2025-01-04T14:58:14.924Z</time>
      </trkpt>
      <trkpt lat="48.34778" lon="5.47063">
        <ele>405.88</ele>
        <time>2025-01-04T14:58:20.204Z</time>
      </trkpt>
      <trkpt lat="48.34764" lon="5.47086">
        <ele>406.14</ele>
        <time>2025-01-04T14:58:25.488Z</time>
      </trkpt>
      <trkpt lat="48.3475" lon="5.47112">
        <ele>406.43</ele>
        <time>2025-01-04T14:58:30.775Z</time>
      </trkpt>
      <trkpt lat="48.34737" lon="5.47137">
        <ele>406.74</ele>
        <time>2025-01-04T14:58:36.066Z</time>
      </trkpt>
      <trkpt lat="48.34719" lon="5.4717">
        <ele>407.04</ele>
        <time>2025-01-04T14:58:41.361Z</time>
      </trkpt>
      <trkpt lat="48.34701" lon="5.47204">
        <ele>407.43</ele>
        <time>2025-01-04T14:58:46.661Z</time>
      </trkpt>
      <trkpt lat="48.34688" lon="5.47225">
        <ele>407.85</ele>
        <time>2025-01-04T14:58:51.964Z</time>
      </trkpt>
      <trkpt lat="48.34676" lon="5.47246">
        <ele>408.33</ele>
        <time>2025-01-04T14:58:57.270Z</time>
      </trkpt>
      <trkpt lat="48.34661" lon="5.47272">
        <ele>408.78</ele>
        <time>2025-01-04T14:59:02.580Z</time>
      </trkpt>
      <trkpt lat="48.34646" lon="5.47297">
        <ele>409.23</ele>
        <time>2025-01-04T14:59:07.893Z</time>
      </trkpt>
      <trkpt lat="48.34635" lon="5.47316">
        <ele>409.7</ele>
        <time>2025-01-04T14:59:13.209Z</time>
      </trkpt>
      <trkpt lat="48.34625" lon="5.47334">
        <ele>410.2</ele>
        <time>2025-01-04T14:59:18.527Z</time>
      </trkpt>
      <trkpt lat="48.34611" lon="5.47366">
        <ele>410.73</ele>
        <time>2025-01-04T14:59:23.849Z</time>
      </trkpt>
      <trkpt lat="48.34596" lon="5.47398">
        <ele>411.28</ele>
        <time>2025-01-04T14:59:29.176Z</time>
      </trkpt>
      <trkpt lat="48.34583" lon="5.47428">
        <ele>411.81</ele>
        <time>2025-01-04T14:59:34.506Z</time>
      </trkpt>
      <trkpt lat="48.3457" lon="5.47457">
        <ele>412.38</ele>
        <time>2025-01-04T14:59:39.840Z</time>
      </trkpt>
      <trkpt lat="48.34555" lon="5.47486">
        <ele>412.95</ele>
        <time>2025-01-04T14:59:45.178Z</time>
      </trkpt>
      <trkpt lat="48.34541" lon="5.47515">
        <ele>413.51</ele>
        <time>2025-01-04T14:59:50.520Z</time>
      </trkpt>
      <trkpt lat="48.34526" lon="5.47545">
        <ele>414.03</ele>
        <time>2025-01-04T14:59:55.866Z</time>
      </trkpt>
      <trkpt lat="48.34511" lon="5.47573">
        <ele>414.57</ele>
        <time>2025-01-04T15:00:01.216Z</time>
      </trkpt>
      <trkpt lat="48.345" lon="5.47595">
        <ele>415.09</ele>
        <time>2025-01-04T15:00:06.569Z</time>
      </trkpt>
      <trkpt lat="48.34489" lon="5.47616">
        <ele>415.6</ele>
        <time>2025-01-04T15:00:11.924Z</time>
      </trkpt>
      <trkpt lat="48.34486" lon="5.47622">
        <ele>416.06</ele>
        <time>2025-01-04T15:00:17.280Z</time>
      </trkpt>
      <trkpt lat="48.34481" lon="5.47631">
        <ele>416.51</ele>
        <time>2025-01-04T15:00:22.638Z</time>
      </trkpt>
      <trkpt lat="48.34482" lon="5.47639">
        <ele>416.94</ele>
        <time>2025-01-04T15:00:27.996Z</time>
      </trkpt>
      <trkpt lat="48.34483" lon="5.47645">
        <ele>417.34</ele>
        <time>2025-01-04T15:00:33.355Z</time>
      </trkpt>
      <trkpt lat="48.34492" lon="5.47671">
        <ele>417.72</ele>
        <time>2025-01-04T15:00:38.717Z</time>
      </trkpt>
      <trkpt lat="48.345" lon="5.47697">
        <ele>418.07</ele>
        <time>2025-01-04T15:00:44.082Z</time>
      </trkpt>
      <trkpt lat="48.34509" lon="5.47723">
        <ele>418.39</ele>
        <time>2025-01-04T15:00:49.450Z</time>
      </trkpt>
      <trkpt lat="48.34521" lon="5.47761">
        <ele>418.76</ele>
        <time>2025-01-04T15:00:54.823Z</time>
      </trkpt>
      <trkpt lat="48.34523" lon="5.47767">
        <ele>419.07</ele>
        <time>2025-01-04T15:01:00.196Z</time>
      </trkpt>
      <trkpt lat="48.34534" lon="5.47802">
        <ele>419.38</ele>
        <time>2025-01-04T15:01:05.574Z</time>
      </trkpt>
      <trkpt lat="48.34542" lon="5.47834">
        <ele>419.67</ele>
        <time>2025-01-04T15:01:10.955Z</time>
      </trkpt>
      <trkpt lat="48.34553" lon="5.47856">
        <ele>419.88</ele>
        <time>2025-01-04T15:01:16.339Z</time>
      </trkpt>
      <trkpt lat="48.34558" lon="5.47866">
        <ele>420.12</ele>
        <time>2025-01-04T15:01:21.725Z</time>
      </trkpt>
      <trkpt lat="48.34563" lon="5.47879">
        <ele>420.34</ele>
        <time>2025-01-04T15:01:27.112Z</time>
      </trkpt>
      <trkpt lat="48.34568" lon="5.47874">
        <ele>420.55</ele>
        <time>2025-01-04T15:01:32.500Z</time>
      </trkpt>
      <trkpt lat="48.34566" lon="5.47872">
        <ele>420.75</ele>
        <time>2025-01-04T15:01:37.889Z</time>
      </trkpt>
      <trkpt lat="48.34559" lon="5.47854">
        <ele>420.93</ele>
        <time>2025-01-04T15:01:43.280Z</time>
      </trkpt>
      <trkpt lat="48.34553" lon="5.47851">
        <ele>421.11</ele>
        <time>2025-01-04T15:01:48.672Z</time>
      </trkpt>
      <trkpt lat="48.34542" lon="5.47849">
        <ele>421.31</ele>
        <time>2025-01-04T15:01:54.066Z</time>
      </trkpt>
      <trkpt lat="48.34526" lon="5.47839">
        <ele>421.52</ele>
        <time>2025-01-04T15:01:59.463Z</time>
      </trkpt>
      <trkpt lat="48.3451" lon="5.4783">
        <ele>421.68</ele>
        <time>2025-01-04T15:02:04.862Z</time>
      </trkpt>
      <trkpt lat="48.34495" lon="5.47821">
        <ele>421.82</ele>
        <time>2025-01-04T15:02:10.264Z</time>
      </trkpt>
      <trkpt lat="48.3447" lon="5.47806">
        <ele>421.9</ele>
        <time>2025-01-04T15:02:15.670Z</time>
      </trkpt>
      <trkpt lat="48.34458" lon="5.47797">
        <ele>422</ele>
        <time>2025-01-04T15:02:21.078Z</time>
      </trkpt>
      <trkpt lat="48.34444" lon="5.47787">
        <ele>422.1</ele>
        <time>2025-01-04T15:02:26.489Z</time>
      </trkpt>
      <trkpt lat="48.34423" lon="5.47772">
        <ele>422.24</ele>
        <time>2025-01-04T15:02:31.903Z</time>
      </trkpt>
      <trkpt lat="48.34403" lon="5.47758">
        <ele>422.38</ele>
        <time>2025-01-04T15:02:37.321Z</time>
      </trkpt>
      <trkpt lat="48.34389" lon="5.47748">
        <ele>422.5</ele>
        <time>2025-01-04T15:02:42.742Z</time>
      </trkpt>
      <trkpt lat="48.34382" lon="5.47743">
        <ele>422.59</ele>
        <time>2025-01-04T15:02:48.164Z</time>
      </trkpt>
      <trkpt lat="48.34364" lon="5.47745">
        <ele>422.72</ele>
        <time>2025-01-04T15:02:53.589Z</time>
      </trkpt>
      <trkpt lat="48.34357" lon="5.47749">
        <ele>422.8</ele>
        <time>2025-01-04T15:02:59.015Z</time>
      </trkpt>
      <trkpt lat="48.3434" lon="5.47756">
        <ele>422.84</ele>
        <time>2025-01-04T15:03:04.444Z</time>
      </trkpt>
      <trkpt lat="48.34311" lon="5.47767">
        <ele>422.82</ele>
        <time>2025-01-04T15:03:09.877Z</time>
      </trkpt>
      <trkpt lat="48.34296" lon="5.47776">
        <ele>422.8</ele>
        <time>2025-01-04T15:03:15.313Z</time>
      </trkpt>
      <trkpt lat="48.34286" lon="5.47782">
        <ele>422.8</ele>
        <time>2025-01-04T15:03:20.751Z</time>
      </trkpt>
      <trkpt lat="48.34281" lon="5.47785">
        <ele>422.78</ele>
        <time>2025-01-04T15:03:26.190Z</time>
      </trkpt>
      <trkpt lat="48.34268" lon="5.47793">
        <ele>422.76</ele>
        <time>2025-01-04T15:03:31.631Z</time>
      </trkpt>
      <trkpt lat="48.34264" lon="5.47793">
        <ele>422.7</ele>
        <time>2025-01-04T15:03:37.072Z</time>
      </trkpt>
      <trkpt lat="48.34247" lon="5.47795">
        <ele>422.64</ele>
        <time>2025-01-04T15:03:42.516Z</time>
      </trkpt>
      <trkpt lat="48.3423" lon="5.47796">
        <ele>422.57</ele>
        <time>2025-01-04T15:03:47.963Z</time>
      </trkpt>
      <trkpt lat="48.34213" lon="5.47797">
        <ele>422.49</ele>
        <time>2025-01-04T15:03:53.413Z</time>
      </trkpt>
      <trkpt lat="48.34195" lon="5.47796">
        <ele>422.37</ele>
        <time>2025-01-04T15:03:58.866Z</time>
      </trkpt>
      <trkpt lat="48.34177" lon="5.47795">
        <ele>422.25</ele>
        <time>2025-01-04T15:04:04.321Z</time>
      </trkpt>
      <trkpt lat="48.34159" lon="5.47796">
        <ele>422.15</ele>
        <time>2025-01-04T15:04:09.779Z</time>
      </trkpt>
      <trkpt lat="48.34141" lon="5.47796">
        <ele>422.02</ele>
        <time>2025-01-04T15:04:15.240Z</time>
      </trkpt>
      <trkpt lat="48.34112" lon="5.47803">
        <ele>421.89</ele>
        <time>2025-01-04T15:04:20.706Z</time>
      </trkpt>
      <trkpt lat="48.34108" lon="5.47804">
        <ele>421.79</ele>
        <time>2025-01-04T15:04:26.173Z</time>
      </trkpt>
      <trkpt lat="48.34101" lon="5.47805">
        <ele>421.71</ele>
        <time>2025-01-04T15:04:31.641Z</time>
      </trkpt>
      <trkpt lat="48.34096" lon="5.47799">
        <ele>421.64</ele>
        <time>2025-01-04T15:04:37.110Z</time>
      </trkpt>
      <trkpt lat="48.34084" lon="5.47759">
        <ele>421.58</ele>
        <time>2025-01-04T15:04:42.583Z</time>
      </trkpt>
      <trkpt lat="48.34073" lon="5.47724">
        <ele>421.52</ele>
        <time>2025-01-04T15:04:48.061Z</time>
      </trkpt>
      <trkpt lat="48.34069" lon="5.47712">
        <ele>421.46</ele>
        <time>2025-01-04T15:04:53.540Z</time>
      </trkpt>
      <trkpt lat="48.34069" lon="5.47713">
        <ele>421.45</ele>
        <time>2025-01-04T15:04:59.019Z</time>
      </trkpt>
      <trkpt lat="48.34072" lon="5.47722">
        <ele>421.47</ele>
        <time>2025-01-04T15:05:04.499Z</time>
      </trkpt>
      <trkpt lat="48.34079" lon="5.47744">
        <ele>421.51</ele>
        <time>2025-01-04T15:05:09.982Z</time>
      </trkpt>
      <trkpt lat="48.3409" lon="5.47781">
        <ele>421.54</ele>
        <time>2025-01-04T15:05:15.469Z</time>
      </trkpt>
      <trkpt lat="48.34096" lon="5.478">
        <ele>421.59</ele>
        <time>2025-01-04T15:05:20.958Z</time>
      </trkpt>
      <trkpt lat="48.34093" lon="5.47808">
        <ele>421.66</ele>
        <time>2025-01-04T15:05:26.448Z</time>
      </trkpt>
      <trkpt lat="48.3409" lon="5.47809">
        <ele>421.75</ele>
        <time>2025-01-04T15:05:31.939Z</time>
      </trkpt>
      <trkpt lat="48.34072" lon="5.47817">
        <ele>421.85</ele>
        <time>2025-01-04T15:05:37.433Z</time>
      </trkpt>
      <trkpt lat="48.34054" lon="5.47825">
        <ele>421.96</ele>
        <time>2025-01-04T15:05:42.930Z</time>
      </trkpt>
      <trkpt lat="48.34035" lon="5.47833">
        <ele>422.09</ele>
        <time>2025-01-04T15:05:48.430Z</time>
      </trkpt>
      <trkpt lat="48.34016" lon="5.47841">
        <ele>422.24</ele>
        <time>2025-01-04T15:05:53.933Z</time>
      </trkpt>
      <trkpt lat="48.33996" lon="5.4785">
        <ele>422.43</ele>
        <time>2025-01-04T15:05:59.440Z</time>
      </trkpt>
      <trkpt lat="48.33976" lon="5.47862">
        <ele>422.55</ele>
        <time>2025-01-04T15:06:04.950Z</time>
      </trkpt>
      <trkpt lat="48.33956" lon="5.47873">
        <ele>422.69</ele>
        <time>2025-01-04T15:06:10.463Z</time>
      </trkpt>
      <trkpt lat="48.33939" lon="5.47885">
        <ele>422.85</ele>
        <time>2025-01-04T15:06:15.979Z</time>
      </trkpt>
      <trkpt lat="48.33922" lon="5.47896">
        <ele>423.01</ele>
        <time>2025-01-04T15:06:21.498Z</time>
      </trkpt>
      <trkpt lat="48.33907" lon="5.47907">
        <ele>423.22</ele>
        <time>2025-01-04T15:06:27.020Z</time>
      </trkpt>
      <trkpt lat="48.33891" lon="5.47918">
        <ele>423.41</ele>
        <time>2025-01-04T15:06:32.545Z</time>
      </trkpt>
      <trkpt lat="48.33866" lon="5.47945">
        <ele>423.68</ele>
        <time>2025-01-04T15:06:38.075Z</time>
      </trkpt>
      <trkpt lat="48.33851" lon="5.47963">
        <ele>423.84</ele>
        <time>2025-01-04T15:06:43.608Z</time>
      </trkpt>
      <trkpt lat="48.33835" lon="5.47981">
        <ele>423.99</ele>
        <time>2025-01-04T15:06:49.144Z</time>
      </trkpt>
      <trkpt lat="48.33821" lon="5.48007">
        <ele>424.14</ele>
        <time>2025-01-04T15:06:54.684Z</time>
      </trkpt>
      <trkpt lat="48.33819" lon="5.48013">
        <ele>424.2</ele>
        <time>2025-01-04T15:07:00.224Z</time>
      </trkpt>
      <trkpt lat="48.33815" lon="5.48048">
        <ele>424.22</ele>
        <time>2025-01-04T15:07:05.768Z</time>
      </trkpt>
      <trkpt lat="48.33815" lon="5.48055">
        <ele>424.22</ele>
        <time>2025-01-04T15:07:11.313Z</time>
      </trkpt>
      <trkpt lat="48.33818" lon="5.4808">
        <ele>424.14</ele>
        <time>2025-01-04T15:07:16.861Z</time>
      </trkpt>
      <trkpt lat="48.33822" lon="5.48105">
        <ele>424.03</ele>
        <time>2025-01-04T15:07:22.411Z</time>
      </trkpt>
      <trkpt lat="48.3383" lon="5.48148">
        <ele>423.87</ele>
        <time>2025-01-04T15:07:27.966Z</time>
      </trkpt>
      <trkpt lat="48.33833" lon="5.48159">
        <ele>423.77</ele>
        <time>2025-01-04T15:07:33.522Z</time>
      </trkpt>
      <trkpt lat="48.33835" lon="5.48171">
        <ele>423.65</ele>
        <time>2025-01-04T15:07:39.080Z</time>
      </trkpt>
      <trkpt lat="48.33829" lon="5.48184">
        <ele>423.56</ele>
        <time>2025-01-04T15:07:44.639Z</time>
      </trkpt>
      <trkpt lat="48.3382" lon="5.48192">
        <ele>423.45</ele>
        <time>2025-01-04T15:07:50.200Z</time>
      </trkpt>
      <trkpt lat="48.3381" lon="5.48199">
        <ele>423.33</ele>
        <time>2025-01-04T15:07:55.763Z</time>
      </trkpt>
      <trkpt lat="48.33792" lon="5.48212">
        <ele>423.24</ele>
        <time>2025-01-04T15:08:01.329Z</time>
      </trkpt>
      <trkpt lat="48.33768" lon="5.48224">
        <ele>423.07</ele>
        <time>2025-01-04T15:08:06.899Z</time>
      </trkpt>
      <trkpt lat="48.33744" lon="5.48236">
        <ele>422.84</ele>
        <time>2025-01-04T15:08:12.473Z</time>
      </trkpt>
      <trkpt lat="48.33719" lon="5.48245">
        <ele>422.67</ele>
        <time>2025-01-04T15:08:18.051Z</time>
      </trkpt>
      <trkpt lat="48.33693" lon="5.48254">
        <ele>422.56</ele>
        <time>2025-01-04T15:08:23.633Z</time>
      </trkpt>
      <trkpt lat="48.33664" lon="5.48264">
        <ele>422.47</ele>
        <time>2025-01-04T15:08:29.220Z</time>
      </trkpt>
      <trkpt lat="48.33635" lon="5.48274">
        <ele>422.29</ele>
        <time>2025-01-04T15:08:34.812Z</time>
      </trkpt>
      <trkpt lat="48.33627" lon="5.48277">
        <ele>422.22</ele>
        <time>2025-01-04T15:08:40.405Z</time>
      </trkpt>
      <trkpt lat="48.33598" lon="5.48287">
        <ele>422.13</ele>
        <time>2025-01-04T15:08:46.003Z</time>
      </trkpt>
      <trkpt lat="48.33569" lon="5.48297">
        <ele>422.1</ele>
        <time>2025-01-04T15:08:51.606Z</time>
      </trkpt>
      <trkpt lat="48.33546" lon="5.48308">
        <ele>422.13</ele>
        <time>2025-01-04T15:08:57.213Z</time>
      </trkpt>
      <trkpt lat="48.33523" lon="5.48318">
        <ele>422.16</ele>
        <time>2025-01-04T15:09:02.824Z</time>
      </trkpt>
      <trkpt lat="48.33503" lon="5.48329">
        <ele>422.15</ele>
        <time>2025-01-04T15:09:08.438Z</time>
      </trkpt>
      <trkpt lat="48.33483" lon="5.48339">
        <ele>422.15</ele>
        <time>2025-01-04T15:09:14.055Z</time>
      </trkpt>
      <trkpt lat="48.33465" lon="5.48348">
        <ele>422.16</ele>
        <time>2025-01-04T15:09:19.675Z</time>
      </trkpt>
      <trkpt lat="48.33448" lon="5.48358">
        <ele>422.19</ele>
        <time>2025-01-04T15:09:25.298Z</time>
      </trkpt>
      <trkpt lat="48.33429" lon="5.48367">
        <ele>422.19</ele>
        <time>2025-01-04T15:09:30.925Z</time>
      </trkpt>
      <trkpt lat="48.3341" lon="5.48377">
        <ele>422.16</ele>
        <time>2025-01-04T15:09:36.555Z</time>
      </trkpt>
      <trkpt lat="48.33392" lon="5.48385">
        <ele>422.03</ele>
        <time>2025-01-04T15:09:42.188Z</time>
      </trkpt>
      <trkpt lat="48.33373" lon="5.48394">
        <ele>421.87</ele>
        <time>2025-01-04T15:09:47.824Z</time>
      </trkpt>
      <trkpt lat="48.33357" lon="5.48401">
        <ele>421.65</ele>
        <time>2025-01-04T15:09:53.463Z</time>
      </trkpt>
      <trkpt lat="48.3334" lon="5.48408">
        <ele>421.36</ele>
        <time>2025-01-04T15:09:59.104Z</time>
      </trkpt>
      <trkpt lat="48.33321" lon="5.4842">
        <ele>421.04</ele>
        <time>2025-01-04T15:10:04.749Z</time>
      </trkpt>
      <trkpt lat="48.33301" lon="5.48431">
        <ele>420.66</ele>
        <time>2025-01-04T15:10:10.397Z</time>
      </trkpt>
      <trkpt lat="48.33282" lon="5.48444">
        <ele>420.2</ele>
        <time>2025-01-04T15:10:16.049Z</time>
      </trkpt>
      <trkpt lat="48.33262" lon="5.48457">
        <ele>419.68</ele>
        <time>2025-01-04T15:10:21.704Z</time>
      </trkpt>
      <trkpt lat="48.33242" lon="5.4847">
        <ele>419.05</ele>
        <time>2025-01-04T15:10:27.363Z</time>
      </trkpt>
      <trkpt lat="48.33221" lon="5.48484">
        <ele>418.39</ele>
        <time>2025-01-04T15:10:33.025Z</time>
      </trkpt>
      <trkpt lat="48.33193" lon="5.48502">
        <ele>417.65</ele>
        <time>2025-01-04T15:10:38.692Z</time>
      </trkpt>
      <trkpt lat="48.33165" lon="5.4852">
        <ele>416.83</ele>
        <time>2025-01-04T15:10:44.364Z</time>
      </trkpt>
      <trkpt lat="48.33156" lon="5.48526">
        <ele>416.02</ele>
        <time>2025-01-04T15:10:50.038Z</time>
      </trkpt>
      <trkpt lat="48.33129" lon="5.4854">
        <ele>415.12</ele>
        <time>2025-01-04T15:10:55.716Z</time>
      </trkpt>
      <trkpt lat="48.33102" lon="5.48553">
        <ele>414.21</ele>
        <time>2025-01-04T15:11:01.399Z</time>
      </trkpt>
      <trkpt lat="48.33094" lon="5.48558">
        <ele>413.28</ele>
        <time>2025-01-04T15:11:07.083Z</time>
      </trkpt>
      <trkpt lat="48.33064" lon="5.48573">
        <ele>412.28</ele>
        <time>2025-01-04T15:11:12.772Z</time>
      </trkpt>
      <trkpt lat="48.33034" lon="5.48588">
        <ele>411.29</ele>
        <time>2025-01-04T15:11:18.466Z</time>
      </trkpt>
      <trkpt lat="48.33026" lon="5.48592">
        <ele>410.27</ele>
        <time>2025-01-04T15:11:24.162Z</time>
      </trkpt>
      <trkpt lat="48.33" lon="5.48606">
        <ele>409.18</ele>
        <time>2025-01-04T15:11:29.862Z</time>
      </trkpt>
      <trkpt lat="48.32975" lon="5.48619">
        <ele>408.02</ele>
        <time>2025-01-04T15:11:35.566Z</time>
      </trkpt>
      <trkpt lat="48.32958" lon="5.48627">
        <ele>406.83</ele>
        <time>2025-01-04T15:11:41.273Z</time>
      </trkpt>
      <trkpt lat="48.3293" lon="5.48642">
        <ele>405.64</ele>
        <time>2025-01-04T15:11:46.985Z</time>
      </trkpt>
      <trkpt lat="48.32902" lon="5.48658">
        <ele>404.38</ele>
        <time>2025-01-04T15:11:52.701Z</time>
      </trkpt>
      <trkpt lat="48.32876" lon="5.48676">
        <ele>403.07</ele>
        <time>2025-01-04T15:11:58.422Z</time>
      </trkpt>
      <trkpt lat="48.3285" lon="5.48694">
        <ele>401.78</ele>
        <time>2025-01-04T15:12:04.148Z</time>
      </trkpt>
      <trkpt lat="48.32842" lon="5.487">
        <ele>400.47</ele>
        <time>2025-01-04T15:12:09.875Z</time>
      </trkpt>
      <trkpt lat="48.32816" lon="5.48718">
        <ele>399.14</ele>
        <time>2025-01-04T15:12:15.607Z</time>
      </trkpt>
      <trkpt lat="48.3279" lon="5.48736">
        <ele>397.83</ele>
        <time>2025-01-04T15:12:21.343Z</time>
      </trkpt>
      <trkpt lat="48.32767" lon="5.48752">
        <ele>396.48</ele>
        <time>2025-01-04T15:12:27.083Z</time>
      </trkpt>
      <trkpt lat="48.32743" lon="5.48768">
        <ele>395.06</ele>
        <time>2025-01-04T15:12:32.828Z</time>
      </trkpt>
      <trkpt lat="48.32718" lon="5.48786">
        <ele>393.64</ele>
        <time>2025-01-04T15:12:38.577Z</time>
      </trkpt>
      <trkpt lat="48.32693" lon="5.48803">
        <ele>392.18</ele>
        <time>2025-01-04T15:12:44.330Z</time>
      </trkpt>
      <trkpt lat="48.32675" lon="5.48814">
        <ele>390.75</ele>
        <time>2025-01-04T15:12:50.087Z</time>
      </trkpt>
      <trkpt lat="48.32649" lon="5.48831">
        <ele>389.35</ele>
        <time>2025-01-04T15:12:55.848Z</time>
      </trkpt>
      <trkpt lat="48.32622" lon="5.48848">
        <ele>388.02</ele>
        <time>2025-01-04T15:13:01.614Z</time>
      </trkpt>
      <trkpt lat="48.32595" lon="5.48866">
        <ele>386.75</ele>
        <time>2025-01-04T15:13:07.384Z</time>
      </trkpt>
      <trkpt lat="48.32568" lon="5.48883">
        <ele>385.51</ele>
        <time>2025-01-04T15:13:13.159Z</time>
      </trkpt>
      <trkpt lat="48.3254" lon="5.48901">
        <ele>384.29</ele>
        <time>2025-01-04T15:13:18.939Z</time>
      </trkpt>
      <trkpt lat="48.32521" lon="5.48914">
        <ele>383.18</ele>
        <time>2025-01-04T15:13:24.722Z</time>
      </trkpt>
      <trkpt lat="48.32502" lon="5.48926">
        <ele>382.12</ele>
        <time>2025-01-04T15:13:30.509Z</time>
      </trkpt>
      <trkpt lat="48.32482" lon="5.48939">
        <ele>381.14</ele>
        <time>2025-01-04T15:13:36.299Z</time>
      </trkpt>
      <trkpt lat="48.32463" lon="5.48952">
        <ele>380.25</ele>
        <time>2025-01-04T15:13:42.093Z</time>
      </trkpt>
      <trkpt lat="48.32444" lon="5.48965">
        <ele>379.48</ele>
        <time>2025-01-04T15:13:47.890Z</time>
      </trkpt>
      <trkpt lat="48.32424" lon="5.48977">
        <ele>378.87</ele>
        <time>2025-01-04T15:13:53.690Z</time>
      </trkpt>
      <trkpt lat="48.32403" lon="5.48995">
        <ele>378.38</ele>
        <time>2025-01-04T15:13:59.494Z</time>
      </trkpt>
      <trkpt lat="48.32382" lon="5.49013">
        <ele>377.97</ele>
        <time>2025-01-04T15:14:05.302Z</time>
      </trkpt>
      <trkpt lat="48.32375" lon="5.4902">
        <ele>377.69</ele>
        <time>2025-01-04T15:14:11.111Z</time>
      </trkpt>
      <trkpt lat="48.32354" lon="5.49039">
        <ele>377.57</ele>
        <time>2025-01-04T15:14:16.924Z</time>
      </trkpt>
      <trkpt lat="48.32334" lon="5.49058">
        <ele>377.56</ele>
        <time>2025-01-04T15:14:22.741Z</time>
      </trkpt>
      <trkpt lat="48.32313" lon="5.49077">
        <ele>377.63</ele>
        <time>2025-01-04T15:14:28.562Z</time>
      </trkpt>
      <trkpt lat="48.32291" lon="5.49097">
        <ele>377.73</ele>
        <time>2025-01-04T15:14:34.387Z</time>
      </trkpt>
      <trkpt lat="48.32268" lon="5.49119">
        <ele>377.9</ele>
        <time>2025-01-04T15:14:40.217Z</time>
      </trkpt>
      <trkpt lat="48.32244" lon="5.4914">
        <ele>378.16</ele>
        <time>2025-01-04T15:14:46.051Z</time>
      </trkpt>
      <trkpt lat="48.32219" lon="5.4916">
        <ele>378.45</ele>
        <time>2025-01-04T15:14:51.889Z</time>
      </trkpt>
      <trkpt lat="48.32195" lon="5.4918">
        <ele>378.89</ele>
        <time>2025-01-04T15:14:57.732Z</time>
      </trkpt>
      <trkpt lat="48.32169" lon="5.49197">
        <ele>379.49</ele>
        <time>2025-01-04T15:15:03.579Z</time>
      </trkpt>
      <trkpt lat="48.32143" lon="5.49213">
        <ele>380.26</ele>
        <time>2025-01-04T15:15:09.431Z</time>
      </trkpt>
      <trkpt lat="48.32136" lon="5.49218">
        <ele>381</ele>
        <time>2025-01-04T15:15:15.284Z</time>
      </trkpt>
      <trkpt lat="48.32112" lon="5.49232">
        <ele>381.88</ele>
        <time>2025-01-04T15:15:21.141Z</time>
      </trkpt>
      <trkpt lat="48.32088" lon="5.49246">
        <ele>382.7</ele>
        <time>2025-01-04T15:15:27.002Z</time>
      </trkpt>
      <trkpt lat="48.32075" lon="5.49254">
        <ele>383.5</ele>
        <time>2025-01-04T15:15:32.866Z</time>
      </trkpt>
      <trkpt lat="48.32057" lon="5.49264">
        <ele>384.35</ele>
        <time>2025-01-04T15:15:38.733Z</time>
      </trkpt>
      <trkpt lat="48.32036" lon="5.49276">
        <ele>385.18</ele>
        <time>2025-01-04T15:15:44.603Z</time>
      </trkpt>
      <trkpt lat="48.32031" lon="5.49279">
        <ele>386.03</ele>
        <time>2025-01-04T15:15:50.474Z</time>
      </trkpt>
      <trkpt lat="48.32016" lon="5.49288">
        <ele>386.9</ele>
        <time>2025-01-04T15:15:56.348Z</time>
      </trkpt>
      <trkpt lat="48.32001" lon="5.49296">
        <ele>387.76</ele>
        <time>2025-01-04T15:16:02.224Z</time>
      </trkpt>
      <trkpt lat="48.31975" lon="5.49311">
        <ele>388.64</ele>
        <time>2025-01-04T15:16:08.105Z</time>
      </trkpt>
      <trkpt lat="48.31952" lon="5.49325">
        <ele>389.54</ele>
        <time>2025-01-04T15:16:13.990Z</time>
      </trkpt>
      <trkpt lat="48.31923" lon="5.49341">
        <ele>390.43</ele>
        <time>2025-01-04T15:16:19.880Z</time>
      </trkpt>
      <trkpt lat="48.31898" lon="5.49355">
        <ele>391.27</ele>
        <time>2025-01-04T15:16:25.774Z</time>
      </trkpt>
      <trkpt lat="48.31883" lon="5.49364">
        <ele>392.04</ele>
        <time>2025-01-04T15:16:31.671Z</time>
      </trkpt>
      <trkpt lat="48.3186" lon="5.49377">
        <ele>392.8</ele>
        <time>2025-01-04T15:16:37.572Z</time>
      </trkpt>
      <trkpt lat="48.31833" lon="5.49393">
        <ele>393.57</ele>
        <time>2025-01-04T15:16:43.477Z</time>
      </trkpt>
      <trkpt lat="48.31807" lon="5.49408">
        <ele>394.29</ele>
        <time>2025-01-04T15:16:49.387Z</time>
      </trkpt>
      <trkpt lat="48.31803" lon="5.4941">
        <ele>394.94</ele>
        <time>2025-01-04T15:16:55.297Z</time>
      </trkpt>
      <trkpt lat="48.31775" lon="5.49426">
        <ele>395.56</ele>
        <time>2025-01-04T15:17:01.212Z</time>
      </trkpt>
      <trkpt lat="48.31771" lon="5.49428">
        <ele>396.15</ele>
        <time>2025-01-04T15:17:07.128Z</time>
      </trkpt>
      <trkpt lat="48.31761" lon="5.49434">
        <ele>396.72</ele>
        <time>2025-01-04T15:17:13.046Z</time>
      </trkpt>
      <trkpt lat="48.31756" lon="5.49437">
        <ele>397.26</ele>
        <time>2025-01-04T15:17:18.964Z</time>
      </trkpt>
      <trkpt lat="48.3174" lon="5.49446">
        <ele>397.81</ele>
        <time>2025-01-04T15:17:24.885Z</time>
      </trkpt>
      <trkpt lat="48.31725" lon="5.49455">
        <ele>398.28</ele>
        <time>2025-01-04T15:17:30.809Z</time>
      </trkpt>
      <trkpt lat="48.317" lon="5.49466">
        <ele>398.74</ele>
        <time>2025-01-04T15:17:36.737Z</time>
      </trkpt>
      <trkpt lat="48.31676" lon="5.49476">
        <ele>399.23</ele>
        <time>2025-01-04T15:17:42.669Z</time>
      </trkpt>
      <trkpt lat="48.31656" lon="5.49482">
        <ele>399.69</ele>
        <time>2025-01-04T15:17:48.604Z</time>
      </trkpt>
      <trkpt lat="48.31637" lon="5.49487">
        <ele>400.09</ele>
        <time>2025-01-04T15:17:54.542Z</time>
      </trkpt>
      <trkpt lat="48.3161" lon="5.49492">
        <ele>400.46</ele>
        <time>2025-01-04T15:18:00.485Z</time>
      </trkpt>
      <trkpt lat="48.31583" lon="5.49496">
        <ele>400.87</ele>
        <time>2025-01-04T15:18:06.432Z</time>
      </trkpt>
      <trkpt lat="48.31561" lon="5.495">
        <ele>401.33</ele>
        <time>2025-01-04T15:18:12.382Z</time>
      </trkpt>
      <trkpt lat="48.31539" lon="5.49504">
        <ele>401.86</ele>
        <time>2025-01-04T15:18:18.336Z</time>
      </trkpt>
      <trkpt lat="48.3152" lon="5.49507">
        <ele>402.42</ele>
        <time>2025-01-04T15:18:24.293Z</time>
      </trkpt>
      <trkpt lat="48.315" lon="5.4951">
        <ele>403.01</ele>
        <time>2025-01-04T15:18:30.253Z</time>
      </trkpt>
      <trkpt lat="48.31482" lon="5.49513">
        <ele>403.67</ele>
        <time>2025-01-04T15:18:36.216Z</time>
      </trkpt>
      <trkpt lat="48.31464" lon="5.49516">
        <ele>404.34</ele>
        <time>2025-01-04T15:18:42.182Z</time>
      </trkpt>
      <trkpt lat="48.31438" lon="5.49521">
        <ele>405.09</ele>
        <time>2025-01-04T15:18:48.152Z</time>
      </trkpt>
      <trkpt lat="48.31411" lon="5.49525">
        <ele>405.82</ele>
        <time>2025-01-04T15:18:54.127Z</time>
      </trkpt>
      <trkpt lat="48.31384" lon="5.4953">
        <ele>406.51</ele>
        <time>2025-01-04T15:19:00.106Z</time>
      </trkpt>
      <trkpt lat="48.31367" lon="5.49533">
        <ele>407.19</ele>
        <time>2025-01-04T15:19:06.088Z</time>
      </trkpt>
      <trkpt lat="48.31341" lon="5.49541">
        <ele>407.95</ele>
        <time>2025-01-04T15:19:12.074Z</time>
      </trkpt>
      <trkpt lat="48.31318" lon="5.4955">
        <ele>408.67</ele>
        <time>2025-01-04T15:19:18.064Z</time>
      </trkpt>
      <trkpt lat="48.31298" lon="5.49557">
        <ele>409.3</ele>
        <time>2025-01-04T15:19:24.057Z</time>
      </trkpt>
      <trkpt lat="48.31282" lon="5.49562">
        <ele>409.98</ele>
        <time>2025-01-04T15:19:30.053Z</time>
      </trkpt>
      <trkpt lat="48.31265" lon="5.49568">
        <ele>410.63</ele>
        <time>2025-01-04T15:19:36.051Z</time>
      </trkpt>
      <trkpt lat="48.31249" lon="5.49575">
        <ele>411.3</ele>
        <time>2025-01-04T15:19:42.052Z</time>
      </trkpt>
      <trkpt lat="48.31233" lon="5.49581">
        <ele>411.97</ele>
        <time>2025-01-04T15:19:48.056Z</time>
      </trkpt>
      <trkpt lat="48.31208" lon="5.49593">
        <ele>412.68</ele>
        <time>2025-01-04T15:19:54.064Z</time>
      </trkpt>
      <trkpt lat="48.31185" lon="5.49603">
        <ele>413.35</ele>
        <time>2025-01-04T15:20:00.076Z</time>
      </trkpt>
      <trkpt lat="48.31177" lon="5.49607">
        <ele>414</ele>
        <time>2025-01-04T15:20:06.089Z</time>
      </trkpt>
      <trkpt lat="48.31159" lon="5.49615">
        <ele>414.67</ele>
        <time>2025-01-04T15:20:12.105Z</time>
      </trkpt>
      <trkpt lat="48.31141" lon="5.49624">
        <ele>415.31</ele>
        <time>2025-01-04T15:20:18.124Z</time>
      </trkpt>
      <trkpt lat="48.31122" lon="5.49634">
        <ele>415.86</ele>
        <time>2025-01-04T15:20:24.146Z</time>
      </trkpt>
      <trkpt lat="48.31104" lon="5.49645">
        <ele>416.4</ele>
        <time>2025-01-04T15:20:30.172Z</time>
      </trkpt>
      <trkpt lat="48.31086" lon="5.49655">
        <ele>416.89</ele>
        <time>2025-01-04T15:20:36.201Z</time>
      </trkpt>
      <trkpt lat="48.31067" lon="5.49666">
        <ele>417.36</ele>
        <time>2025-01-04T15:20:42.233Z</time>
      </trkpt>
      <trkpt lat="48.31044" lon="5.49668">
        <ele>417.76</ele>
        <time>2025-01-04T15:20:48.269Z</time>
      </trkpt>
      <trkpt lat="48.3102" lon="5.49671">
        <ele>418.15</ele>
        <time>2025-01-04T15:20:54.308Z</time>
      </trkpt>
      <trkpt lat="48.30996" lon="5.49671">
        <ele>418.61</ele>
        <time>2025-01-04T15:21:00.351Z</time>
      </trkpt>
      <trkpt lat="48.30971" lon="5.49671">
        <ele>419.15</ele>
        <time>2025-01-04T15:21:06.398Z</time>
      </trkpt>
      <trkpt lat="48.30953" lon="5.49671">
        <ele>419.59</ele>
        <time>2025-01-04T15:21:12.448Z</time>
      </trkpt>
      <trkpt lat="48.30934" lon="5.49672">
        <ele>419.96</ele>
        <time>2025-01-04T15:21:18.501Z</time>
      </trkpt>
      <trkpt lat="48.30905" lon="5.49672">
        <ele>420.25</ele>
        <time>2025-01-04T15:21:24.559Z</time>
      </trkpt>
      <trkpt lat="48.30883" lon="5.49672">
        <ele>420.42</ele>
        <time>2025-01-04T15:21:30.620Z</time>
      </trkpt>
      <trkpt lat="48.30862" lon="5.49672">
        <ele>420.55</ele>
        <time>2025-01-04T15:21:36.685Z</time>
      </trkpt>
      <trkpt lat="48.30843" lon="5.49672">
        <ele>420.48</ele>
        <time>2025-01-04T15:21:42.753Z</time>
      </trkpt>
      <trkpt lat="48.30823" lon="5.49672">
        <ele>420.32</ele>
        <time>2025-01-04T15:21:48.824Z</time>
      </trkpt>
      <trkpt lat="48.30802" lon="5.4967">
        <ele>420.09</ele>
        <time>2025-01-04T15:21:54.898Z</time>
      </trkpt>
      <trkpt lat="48.30781" lon="5.49669">
        <ele>419.68</ele>
        <time>2025-01-04T15:22:00.976Z</time>
      </trkpt>
      <trkpt lat="48.30759" lon="5.49668">
        <ele>419.2</ele>
        <time>2025-01-04T15:22:07.057Z</time>
      </trkpt>
      <trkpt lat="48.30737" lon="5.49666">
        <ele>418.62</ele>
        <time>2025-01-04T15:22:13.142Z</time>
      </trkpt>
      <trkpt lat="48.30715" lon="5.49665">
        <ele>417.91</ele>
        <time>2025-01-04T15:22:19.230Z</time>
      </trkpt>
      <trkpt lat="48.30694" lon="5.49664">
        <ele>417.14</ele>
        <time>2025-01-04T15:22:25.322Z</time>
      </trkpt>
      <trkpt lat="48.3067" lon="5.49666">
        <ele>416.26</ele>
        <time>2025-01-04T15:22:31.418Z</time>
      </trkpt>
      <trkpt lat="48.30645" lon="5.49667">
        <ele>415.25</ele>
        <time>2025-01-04T15:22:37.517Z</time>
      </trkpt>
      <trkpt lat="48.30623" lon="5.49679">
        <ele>414.15</ele>
        <time>2025-01-04T15:22:43.620Z</time>
      </trkpt>
      <trkpt lat="48.306" lon="5.49691">
        <ele>412.96</ele>
        <time>2025-01-04T15:22:49.727Z</time>
      </trkpt>
      <trkpt lat="48.30577" lon="5.49706">
        <ele>411.65</ele>
        <time>2025-01-04T15:22:55.838Z</time>
      </trkpt>
      <trkpt lat="48.30554" lon="5.49721">
        <ele>410.34</ele>
        <time>2025-01-04T15:23:01.953Z</time>
      </trkpt>
      <trkpt lat="48.30529" lon="5.4974">
        <ele>408.91</ele>
        <time>2025-01-04T15:23:08.073Z</time>
      </trkpt>
      <trkpt lat="48.30504" lon="5.49759">
        <ele>407.32</ele>
        <time>2025-01-04T15:23:14.197Z</time>
      </trkpt>
      <trkpt lat="48.3049" lon="5.49776">
        <ele>405.73</ele>
        <time>2025-01-04T15:23:20.324Z</time>
      </trkpt>
      <trkpt lat="48.30477" lon="5.49796">
        <ele>404.12</ele>
        <time>2025-01-04T15:23:26.454Z</time>
      </trkpt>
      <trkpt lat="48.30457" lon="5.49831">
        <ele>402.45</ele>
        <time>2025-01-04T15:23:32.589Z</time>
      </trkpt>
      <trkpt lat="48.30438" lon="5.49866">
        <ele>400.66</ele>
        <time>2025-01-04T15:23:38.729Z</time>
      </trkpt>
      <trkpt lat="48.30432" lon="5.49878">
        <ele>398.86</ele>
        <time>2025-01-04T15:23:44.870Z</time>
      </trkpt>
      <trkpt lat="48.30417" lon="5.49897">
        <ele>397.04</ele>
        <time>2025-01-04T15:23:51.015Z</time>
      </trkpt>
      <trkpt lat="48.30402" lon="5.49916">
        <ele>395.15</ele>
        <time>2025-01-04T15:23:57.163Z</time>
      </trkpt>
      <trkpt lat="48.30381" lon="5.49936">
        <ele>393.19</ele>
        <time>2025-01-04T15:24:03.315Z</time>
      </trkpt>
      <trkpt lat="48.3036" lon="5.49955">
        <ele>391.16</ele>
        <time>2025-01-04T15:24:09.471Z</time>
      </trkpt>
      <trkpt lat="48.30352" lon="5.49962">
        <ele>389.12</ele>
        <time>2025-01-04T15:24:15.628Z</time>
      </trkpt>
      <trkpt lat="48.30334" lon="5.49966">
        <ele>387.02</ele>
        <time>2025-01-04T15:24:21.788Z</time>
      </trkpt>
      <trkpt lat="48.30325" lon="5.49968">
        <ele>384.93</ele>
        <time>2025-01-04T15:24:27.949Z</time>
      </trkpt>
      <trkpt lat="48.30306" lon="5.49973">
        <ele>382.74</ele>
        <time>2025-01-04T15:24:34.113Z</time>
      </trkpt>
      <trkpt lat="48.3029" lon="5.49969">
        <ele>380.58</ele>
        <time>2025-01-04T15:24:40.280Z</time>
      </trkpt>
      <trkpt lat="48.30273" lon="5.4996">
        <ele>378.44</ele>
        <time>2025-01-04T15:24:46.450Z</time>
      </trkpt>
      <trkpt lat="48.30265" lon="5.49953">
        <ele>376.39</ele>
        <time>2025-01-04T15:24:52.621Z</time>
      </trkpt>
      <trkpt lat="48.3025" lon="5.49934">
        <ele>374.35</ele>
        <time>2025-01-04T15:24:58.796Z</time>
      </trkpt>
      <trkpt lat="48.30234" lon="5.49914">
        <ele>372.31</ele>
        <time>2025-01-04T15:25:04.974Z</time>
      </trkpt>
      <trkpt lat="48.30218" lon="5.49885">
        <ele>370.31</ele>
        <time>2025-01-04T15:25:11.156Z</time>
      </trkpt>
      <trkpt lat="48.30202" lon="5.49857">
        <ele>368.25</ele>
        <time>2025-01-04T15:25:17.342Z</time>
      </trkpt>
      <trkpt lat="48.30186" lon="5.49824">
        <ele>366.27</ele>
        <time>2025-01-04T15:25:23.532Z</time>
      </trkpt>
      <trkpt lat="48.30171" lon="5.4979">
        <ele>364.28</ele>
        <time>2025-01-04T15:25:29.727Z</time>
      </trkpt>
      <trkpt lat="48.30165" lon="5.49776">
        <ele>362.42</ele>
        <time>2025-01-04T15:25:35.923Z</time>
      </trkpt>
      <trkpt lat="48.30154" lon="5.49749">
        <ele>360.67</ele>
        <time>2025-01-04T15:25:42.123Z</time>
      </trkpt>
      <trkpt lat="48.30143" lon="5.49722">
        <ele>358.93</ele>
        <time>2025-01-04T15:25:48.326Z</time>
      </trkpt>
      <trkpt lat="48.3013" lon="5.4969">
        <ele>357.21</ele>
        <time>2025-01-04T15:25:54.533Z</time>
      </trkpt>
      <trkpt lat="48.30117" lon="5.49657">
        <ele>355.55</ele>
        <time>2025-01-04T15:26:00.744Z</time>
      </trkpt>
      <trkpt lat="48.30103" lon="5.4963">
        <ele>354.01</ele>
        <time>2025-01-04T15:26:06.959Z</time>
      </trkpt>
      <trkpt lat="48.30089" lon="5.49603">
        <ele>352.58</ele>
        <time>2025-01-04T15:26:13.178Z</time>
      </trkpt>
      <trkpt lat="48.30066" lon="5.49586">
        <ele>351.2</ele>
        <time>2025-01-04T15:26:19.401Z</time>
      </trkpt>
      <trkpt lat="48.30051" lon="5.49578">
        <ele>350.1</ele>
        <time>2025-01-04T15:26:25.626Z</time>
      </trkpt>
      <trkpt lat="48.30044" lon="5.49574">
        <ele>349.24</ele>
        <time>2025-01-04T15:26:31.852Z</time>
      </trkpt>
      <trkpt lat="48.30027" lon="5.49579">
        <ele>348.49</ele>
        <time>2025-01-04T15:26:38.081Z</time>
      </trkpt>
      <trkpt lat="48.30009" lon="5.49583">
        <ele>347.92</ele>
        <time>2025-01-04T15:26:44.313Z</time>
      </trkpt>
      <trkpt lat="48.29989" lon="5.4959">
        <ele>347.52</ele>
        <time>2025-01-04T15:26:50.548Z</time>
      </trkpt>
      <trkpt lat="48.2997" lon="5.49597">
        <ele>347.3</ele>
        <time>2025-01-04T15:26:56.787Z</time>
      </trkpt>
      <trkpt lat="48.29955" lon="5.49608">
        <ele>347.3</ele>
        <time>2025-01-04T15:27:03.028Z</time>
      </trkpt>
      <trkpt lat="48.2994" lon="5.4962">
        <ele>347.46</ele>
        <time>2025-01-04T15:27:09.272Z</time>
      </trkpt>
      <trkpt lat="48.29927" lon="5.49637">
        <ele>347.79</ele>
        <time>2025-01-04T15:27:15.519Z</time>
      </trkpt>
      <trkpt lat="48.29923" lon="5.49643">
        <ele>348.17</ele>
        <time>2025-01-04T15:27:21.767Z</time>
      </trkpt>
      <trkpt lat="48.29915" lon="5.49663">
        <ele>348.67</ele>
        <time>2025-01-04T15:27:28.017Z</time>
      </trkpt>
      <trkpt lat="48.29911" lon="5.49676">
        <ele>349.27</ele>
        <time>2025-01-04T15:27:34.269Z</time>
      </trkpt>
      <trkpt lat="48.29903" lon="5.49705">
        <ele>350.03</ele>
        <time>2025-01-04T15:27:40.524Z</time>
      </trkpt>
      <trkpt lat="48.29896" lon="5.49728">
        <ele>350.88</ele>
        <time>2025-01-04T15:27:46.782Z</time>
      </trkpt>
      <trkpt lat="48.29886" lon="5.49761">
        <ele>351.77</ele>
        <time>2025-01-04T15:27:53.044Z</time>
      </trkpt>
      <trkpt lat="48.29877" lon="5.49786">
        <ele>352.8</ele>
        <time>2025-01-04T15:27:59.309Z</time>
      </trkpt>
      <trkpt lat="48.29867" lon="5.49813">
        <ele>353.87</ele>
        <time>2025-01-04T15:28:05.577Z</time>
      </trkpt>
      <trkpt lat="48.29857" lon="5.49839">
        <ele>354.9</ele>
        <time>2025-01-04T15:28:11.848Z</time>
      </trkpt>
      <trkpt lat="48.2985" lon="5.49857">
        <ele>355.87</ele>
        <time>2025-01-04T15:28:18.121Z</time>
      </trkpt>
      <trkpt lat="48.29847" lon="5.49866">
        <ele>356.76</ele>
        <time>2025-01-04T15:28:24.395Z</time>
      </trkpt>
      <trkpt lat="48.29838" lon="5.49887">
        <ele>357.64</ele>
        <time>2025-01-04T15:28:30.672Z</time>
      </trkpt>
      <trkpt lat="48.29828" lon="5.49914">
        <ele>358.51</ele>
        <time>2025-01-04T15:28:36.952Z</time>
      </trkpt>
      <trkpt lat="48.2982" lon="5.49935">
        <ele>359.25</ele>
        <time>2025-01-04T15:28:43.235Z</time>
      </trkpt>
      <trkpt lat="48.29813" lon="5.49954">
        <ele>359.89</ele>
        <time>2025-01-04T15:28:49.520Z</time>
      </trkpt>
      <trkpt lat="48.29801" lon="5.4996">
        <ele>360.44</ele>
        <time>2025-01-04T15:28:55.807Z</time>
      </trkpt>
      <trkpt lat="48.2978" lon="5.49958">
        <ele>360.89</ele>
        <time>2025-01-04T15:29:02.098Z</time>
      </trkpt>
      <trkpt lat="48.29777" lon="5.49957">
        <ele>361.25</ele>
        <time>2025-01-04T15:29:08.389Z</time>
      </trkpt>
      <trkpt lat="48.29774" lon="5.49956">
        <ele>361.51</ele>
        <time>2025-01-04T15:29:14.681Z</time>
      </trkpt>
      <trkpt lat="48.29761" lon="5.49945">
        <ele>361.67</ele>
        <time>2025-01-04T15:29:20.975Z</time>
      </trkpt>
      <trkpt lat="48.29753" lon="5.49938">
        <ele>361.71</ele>
        <time>2025-01-04T15:29:27.271Z</time>
      </trkpt>
      <trkpt lat="48.29746" lon="5.49932">
        <ele>361.63</ele>
        <time>2025-01-04T15:29:33.568Z</time>
      </trkpt>
      <trkpt lat="48.29732" lon="5.4992">
        <ele>361.36</ele>
        <time>2025-01-04T15:29:39.867Z</time>
      </trkpt>
      <trkpt lat="48.29716" lon="5.49911">
        <ele>360.9</ele>
        <time>2025-01-04T15:29:46.169Z</time>
      </trkpt>
      <trkpt lat="48.29695" lon="5.499">
        <ele>360.34</ele>
        <time>2025-01-04T15:29:52.475Z</time>
      </trkpt>
      <trkpt lat="48.29672" lon="5.49889">
        <ele>359.69</ele>
        <time>2025-01-04T15:29:58.784Z</time>
      </trkpt>
      <trkpt lat="48.2966" lon="5.49887">
        <ele>358.87</ele>
        <time>2025-01-04T15:30:05.095Z</time>
      </trkpt>
      <trkpt lat="48.29634" lon="5.49883">
        <ele>357.87</ele>
        <time>2025-01-04T15:30:11.411Z</time>
      </trkpt>
      <trkpt lat="48.29622" lon="5.49881">
        <ele>356.78</ele>
        <time>2025-01-04T15:30:17.729Z</time>
      </trkpt>
      <trkpt lat="48.2962" lon="5.49898">
        <ele>355.54</ele>
        <time>2025-01-04T15:30:24.048Z</time>
      </trkpt>
      <trkpt lat="48.29621" lon="5.49899">
        <ele>354.33</ele>
        <time>2025-01-04T15:30:30.368Z</time>
      </trkpt>
      <trkpt lat="48.29621" lon="5.49901">
        <ele>353.01</ele>
        <time>2025-01-04T15:30:36.688Z</time>
      </trkpt>
      <trkpt lat="48.29617" lon="5.49881">
        <ele>351.72</ele>
        <time>2025-01-04T15:30:43.010Z</time>
      </trkpt>
      <trkpt lat="48.29611" lon="5.4988">
        <ele>350.21</ele>
        <time>2025-01-04T15:30:49.333Z</time>
      </trkpt>
      <trkpt lat="48.29592" lon="5.49877">
        <ele>348.52</ele>
        <time>2025-01-04T15:30:55.659Z</time>
      </trkpt>
      <trkpt lat="48.29568" lon="5.49874">
        <ele>346.78</ele>
        <time>2025-01-04T15:31:01.989Z</time>
      </trkpt>
      <trkpt lat="48.29542" lon="5.49874">
        <ele>345</ele>
        <time>2025-01-04T15:31:08.323Z</time>
      </trkpt>
      <trkpt lat="48.2952" lon="5.49876">
        <ele>343.22</ele>
        <time>2025-01-04T15:31:14.661Z</time>
      </trkpt>
      <trkpt lat="48.29498" lon="5.49879">
        <ele>341.42</ele>
        <time>2025-01-04T15:31:21.002Z</time>
      </trkpt>
      <trkpt lat="48.29477" lon="5.49881">
        <ele>339.59</ele>
        <time>2025-01-04T15:31:27.346Z</time>
      </trkpt>
      <trkpt lat="48.29456" lon="5.49884">
        <ele>337.8</ele>
        <time>2025-01-04T15:31:33.694Z</time>
      </trkpt>
      <trkpt lat="48.29434" lon="5.49891">
        <ele>336.03</ele>
        <time>2025-01-04T15:31:40.046Z</time>
      </trkpt>
      <trkpt lat="48.29411" lon="5.49898">
        <ele>334.31</ele>
        <time>2025-01-04T15:31:46.401Z</time>
      </trkpt>
      <trkpt lat="48.29387" lon="5.49904">
        <ele>332.64</ele>
        <time>2025-01-04T15:31:52.760Z</time>
      </trkpt>
      <trkpt lat="48.29364" lon="5.4991">
        <ele>331.03</ele>
        <time>2025-01-04T15:31:59.123Z</time>
      </trkpt>
      <trkpt lat="48.29364" lon="5.4991">
        <ele>329.56</ele>
        <time>2025-01-04T15:32:05.486Z</time>
      </trkpt>
      <trkpt lat="48.29333" lon="5.49911">
        <ele>328.07</ele>
        <time>2025-01-04T15:32:11.854Z</time>
      </trkpt>
      <trkpt lat="48.29303" lon="5.49911">
        <ele>326.65</ele>
        <time>2025-01-04T15:32:18.227Z</time>
      </trkpt>
      <trkpt lat="48.29275" lon="5.49909">
        <ele>325.35</ele>
        <time>2025-01-04T15:32:24.604Z</time>
      </trkpt>
      <trkpt lat="48.29248" lon="5.49907">
        <ele>324.07</ele>
        <time>2025-01-04T15:32:30.986Z</time>
      </trkpt>
      <trkpt lat="48.29221" lon="5.49905">
        <ele>322.94</ele>
        <time>2025-01-04T15:32:37.372Z</time>
      </trkpt>
      <trkpt lat="48.29195" lon="5.49903">
        <ele>321.93</ele>
        <time>2025-01-04T15:32:43.762Z</time>
      </trkpt>
      <trkpt lat="48.29174" lon="5.49901">
        <ele>321.06</ele>
        <time>2025-01-04T15:32:50.155Z</time>
      </trkpt>
      <trkpt lat="48.29153" lon="5.49899">
        <ele>320.33</ele>
        <time>2025-01-04T15:32:56.552Z</time>
      </trkpt>
      <trkpt lat="48.29134" lon="5.49897">
        <ele>319.72</ele>
        <time>2025-01-04T15:33:02.952Z</time>
      </trkpt>
      <trkpt lat="48.29115" lon="5.49894">
        <ele>319.19</ele>
        <time>2025-01-04T15:33:09.355Z</time>
      </trkpt>
      <trkpt lat="48.29099" lon="5.49888">
        <ele>318.74</ele>
        <time>2025-01-04T15:33:15.760Z</time>
      </trkpt>
      <trkpt lat="48.29084" lon="5.49883">
        <ele>318.36</ele>
        <time>2025-01-04T15:33:22.168Z</time>
      </trkpt>
      <trkpt lat="48.29073" lon="5.49873">
        <ele>318.07</ele>
        <time>2025-01-04T15:33:28.578Z</time>
      </trkpt>
      <trkpt lat="48.29065" lon="5.49858">
        <ele>317.85</ele>
        <time>2025-01-04T15:33:34.990Z</time>
      </trkpt>
      <trkpt lat="48.29055" lon="5.49832">
        <ele>317.68</ele>
        <time>2025-01-04T15:33:41.405Z</time>
      </trkpt>
      <trkpt lat="48.29045" lon="5.49806">
        <ele>317.58</ele>
        <time>2025-01-04T15:33:47.823Z</time>
      </trkpt>
      <trkpt lat="48.29034" lon="5.49782">
        <ele>317.52</ele>
        <time>2025-01-04T15:33:54.244Z</time>
      </trkpt>
      <trkpt lat="48.29031" lon="5.49774">
        <ele>317.54</ele>
        <time>2025-01-04T15:34:00.667Z</time>
      </trkpt>
      <trkpt lat="48.29024" lon="5.4976">
        <ele>317.61</ele>
        <time>2025-01-04T15:34:07.091Z</time>
      </trkpt>
      <trkpt lat="48.29021" lon="5.49754">
        <ele>317.73</ele>
        <time>2025-01-04T15:34:13.516Z</time>
      </trkpt>
      <trkpt lat="48.29015" lon="5.49741">
        <ele>317.88</ele>
        <time>2025-01-04T15:34:19.943Z</time>
      </trkpt>
      <trkpt lat="48.29" lon="5.49711">
        <ele>318.08</ele>
        <time>2025-01-04T15:34:26.374Z</time>
      </trkpt>
      <trkpt lat="48.28992" lon="5.49688">
        <ele>318.31</ele>
        <time>2025-01-04T15:34:32.808Z</time>
      </trkpt>
      <trkpt lat="48.28984" lon="5.49665">
        <ele>318.56</ele>
        <time>2025-01-04T15:34:39.244Z</time>
      </trkpt>
      <trkpt lat="48.28976" lon="5.49638">
        <ele>318.85</ele>
        <time>2025-01-04T15:34:45.684Z</time>
      </trkpt>
      <trkpt lat="48.28967" lon="5.49612">
        <ele>319.19</ele>
        <time>2025-01-04T15:34:52.127Z</time>
      </trkpt>
      <trkpt lat="48.28955" lon="5.49571">
        <ele>319.54</ele>
        <time>2025-01-04T15:34:58.574Z</time>
      </trkpt>
      <trkpt lat="48.28943" lon="5.49531">
        <ele>319.88</ele>
        <time>2025-01-04T15:35:05.026Z</time>
      </trkpt>
      <trkpt lat="48.28937" lon="5.49512">
        <ele>320.24</ele>
        <time>2025-01-04T15:35:11.480Z</time>
      </trkpt>
      <trkpt lat="48.28931" lon="5.49494">
        <ele>320.65</ele>
        <time>2025-01-04T15:35:17.937Z</time>
      </trkpt>
      <trkpt lat="48.28925" lon="5.49486">
        <ele>321.1</ele>
        <time>2025-01-04T15:35:24.395Z</time>
      </trkpt>
      <trkpt lat="48.28921" lon="5.49487">
        <ele>321.57</ele>
        <time>2025-01-04T15:35:30.854Z</time>
      </trkpt>
      <trkpt lat="48.28917" lon="5.49487">
        <ele>322.05</ele>
        <time>2025-01-04T15:35:37.313Z</time>
      </trkpt>
      <trkpt lat="48.28902" lon="5.49496">
        <ele>322.57</ele>
        <time>2025-01-04T15:35:43.775Z</time>
      </trkpt>
      <trkpt lat="48.28883" lon="5.49509">
        <ele>323.11</ele>
        <time>2025-01-04T15:35:50.240Z</time>
      </trkpt>
      <trkpt lat="48.28864" lon="5.49521">
        <ele>323.63</ele>
        <time>2025-01-04T15:35:56.708Z</time>
      </trkpt>
      <trkpt lat="48.28836" lon="5.49539">
        <ele>324.18</ele>
        <time>2025-01-04T15:36:03.181Z</time>
      </trkpt>
      <trkpt lat="48.28814" lon="5.49554">
        <ele>324.73</ele>
        <time>2025-01-04T15:36:09.658Z</time>
      </trkpt>
      <trkpt lat="48.28792" lon="5.49569">
        <ele>325.3</ele>
        <time>2025-01-04T15:36:16.139Z</time>
      </trkpt>
      <trkpt lat="48.28772" lon="5.49583">
        <ele>325.89</ele>
        <time>2025-01-04T15:36:22.624Z</time>
      </trkpt>
      <trkpt lat="48.28768" lon="5.49585">
        <ele>326.42</ele>
        <time>2025-01-04T15:36:29.109Z</time>
      </trkpt>
      <trkpt lat="48.28752" lon="5.49596">
        <ele>326.97</ele>
        <time>2025-01-04T15:36:35.597Z</time>
      </trkpt>
      <trkpt lat="48.28737" lon="5.49606">
        <ele>327.52</ele>
        <time>2025-01-04T15:36:42.088Z</time>
      </trkpt>
      <trkpt lat="48.28718" lon="5.49619">
        <ele>328.08</ele>
        <time>2025-01-04T15:36:48.582Z</time>
      </trkpt>
      <trkpt lat="48.28711" lon="5.49624">
        <ele>328.57</ele>
        <time>2025-01-04T15:36:55.077Z</time>
      </trkpt>
      <trkpt lat="48.28709" lon="5.49625">
        <ele>329.03</ele>
        <time>2025-01-04T15:37:01.572Z</time>
      </trkpt>
      <trkpt lat="48.28705" lon="5.49628">
        <ele>329.48</ele>
        <time>2025-01-04T15:37:08.068Z</time>
      </trkpt>
      <trkpt lat="48.28696" lon="5.49615">
        <ele>329.92</ele>
        <time>2025-01-04T15:37:14.566Z</time>
      </trkpt>
      <trkpt lat="48.2869" lon="5.49589">
        <ele>330.32</ele>
        <time>2025-01-04T15:37:21.067Z</time>
      </trkpt>
      <trkpt lat="48.28685" lon="5.49564">
        <ele>330.7</ele>
        <time>2025-01-04T15:37:27.571Z</time>
      </trkpt>
      <trkpt lat="48.2868" lon="5.49539">
        <ele>331.01</ele>
        <time>2025-01-04T15:37:34.078Z</time>
      </trkpt>
      <trkpt lat="48.28672" lon="5.49502">
        <ele>331.32</ele>
        <time>2025-01-04T15:37:40.589Z</time>
      </trkpt>
      <trkpt lat="48.28665" lon="5.49466">
        <ele>331.58</ele>
        <time>2025-01-04T15:37:47.104Z</time>
      </trkpt>
      <trkpt lat="48.28658" lon="5.49431">
        <ele>331.81</ele>
        <time>2025-01-04T15:37:53.623Z</time>
      </trkpt>
      <trkpt lat="48.28652" lon="5.49398">
        <ele>332.02</ele>
        <time>2025-01-04T15:38:00.145Z</time>
      </trkpt>
      <trkpt lat="48.2865" lon="5.49391">
        <ele>332.21</ele>
        <time>2025-01-04T15:38:06.668Z</time>
      </trkpt>
      <trkpt lat="48.28646" lon="5.49368">
        <ele>332.4</ele>
        <time>2025-01-04T15:38:13.194Z</time>
      </trkpt>
      <trkpt lat="48.28643" lon="5.49354">
        <ele>332.55</ele>
        <time>2025-01-04T15:38:19.721Z</time>
      </trkpt>
      <trkpt lat="48.28634" lon="5.49312">
        <ele>332.71</ele>
        <time>2025-01-04T15:38:26.253Z</time>
      </trkpt>
      <trkpt lat="48.28629" lon="5.49285">
        <ele>332.81</ele>
        <time>2025-01-04T15:38:32.788Z</time>
      </trkpt>
      <trkpt lat="48.28627" lon="5.49271">
        <ele>332.86</ele>
        <time>2025-01-04T15:38:39.325Z</time>
      </trkpt>
      <trkpt lat="48.28621" lon="5.49242">
        <ele>332.86</ele>
        <time>2025-01-04T15:38:45.865Z</time>
      </trkpt>
      <trkpt lat="48.28616" lon="5.49214">
        <ele>332.85</ele>
        <time>2025-01-04T15:38:52.408Z</time>
      </trkpt>
      <trkpt lat="48.2861" lon="5.49182">
        <ele>332.87</ele>
        <time>2025-01-04T15:38:58.955Z</time>
      </trkpt>
      <trkpt lat="48.28604" lon="5.49151">
        <ele>332.87</ele>
        <time>2025-01-04T15:39:05.505Z</time>
      </trkpt>
      <trkpt lat="48.28598" lon="5.49119">
        <ele>332.86</ele>
        <time>2025-01-04T15:39:12.059Z</time>
      </trkpt>
      <trkpt lat="48.28592" lon="5.49087">
        <ele>332.84</ele>
        <time>2025-01-04T15:39:18.616Z</time>
      </trkpt>
      <trkpt lat="48.28587" lon="5.49057">
        <ele>332.76</ele>
        <time>2025-01-04T15:39:25.176Z</time>
      </trkpt>
      <trkpt lat="48.28581" lon="5.49027">
        <ele>332.72</ele>
        <time>2025-01-04T15:39:31.740Z</time>
      </trkpt>
      <trkpt lat="48.28575" lon="5.48998">
        <ele>332.73</ele>
        <time>2025-01-04T15:39:38.307Z</time>
      </trkpt>
      <trkpt lat="48.28569" lon="5.48969">
        <ele>332.72</ele>
        <time>2025-01-04T15:39:44.877Z</time>
      </trkpt>
      <trkpt lat="48.28562" lon="5.48936">
        <ele>332.66</ele>
        <time>2025-01-04T15:39:51.451Z</time>
      </trkpt>
      <trkpt lat="48.28558" lon="5.48912">
        <ele>332.58</ele>
        <time>2025-01-04T15:39:58.028Z</time>
      </trkpt>
      <trkpt lat="48.28553" lon="5.48889">
        <ele>332.49</ele>
        <time>2025-01-04T15:40:04.607Z</time>
      </trkpt>
      <trkpt lat="48.28549" lon="5.48872">
        <ele>332.45</ele>
        <time>2025-01-04T15:40:11.188Z</time>
      </trkpt>
      <trkpt lat="48.28543" lon="5.48843">
        <ele>332.4</ele>
        <time>2025-01-04T15:40:17.772Z</time>
      </trkpt>
      <trkpt lat="48.28537" lon="5.48815">
        <ele>332.34</ele>
        <time>2025-01-04T15:40:24.359Z</time>
      </trkpt>
      <trkpt lat="48.28528" lon="5.4877">
        <ele>332.33</ele>
        <time>2025-01-04T15:40:30.951Z</time>
      </trkpt>
      <trkpt lat="48.28522" lon="5.48744">
        <ele>332.3</ele>
        <time>2025-01-04T15:40:37.546Z</time>
      </trkpt>
      <trkpt lat="48.28517" lon="5.48717">
        <ele>332.28</ele>
        <time>2025-01-04T15:40:44.144Z</time>
      </trkpt>
      <trkpt lat="48.2851" lon="5.48683">
        <ele>332.28</ele>
        <time>2025-01-04T15:40:50.746Z</time>
      </trkpt>
      <trkpt lat="48.28502" lon="5.48649">
        <ele>332.36</ele>
        <time>2025-01-04T15:40:57.352Z</time>
      </trkpt>
      <trkpt lat="48.28493" lon="5.48611">
        <ele>332.51</ele>
        <time>2025-01-04T15:41:03.962Z</time>
      </trkpt>
      <trkpt lat="48.28484" lon="5.48573">
        <ele>332.63</ele>
        <time>2025-01-04T15:41:10.577Z</time>
      </trkpt>
      <trkpt lat="48.28476" lon="5.48546">
        <ele>332.75</ele>
        <time>2025-01-04T15:41:17.195Z</time>
      </trkpt>
      <trkpt lat="48.28469" lon="5.48518">
        <ele>332.88</ele>
        <time>2025-01-04T15:41:23.816Z</time>
      </trkpt>
      <trkpt lat="48.28458" lon="5.48479">
        <ele>333.11</ele>
        <time>2025-01-04T15:41:30.442Z</time>
      </trkpt>
      <trkpt lat="48.28447" lon="5.4844">
        <ele>333.35</ele>
        <time>2025-01-04T15:41:37.072Z</time>
      </trkpt>
      <trkpt lat="48.28437" lon="5.48406">
        <ele>333.6</ele>
        <time>2025-01-04T15:41:43.706Z</time>
      </trkpt>
      <trkpt lat="48.28428" lon="5.48372">
        <ele>333.8</ele>
        <time>2025-01-04T15:41:50.344Z</time>
      </trkpt>
      <trkpt lat="48.28417" lon="5.48334">
        <ele>334.05</ele>
        <time>2025-01-04T15:41:56.986Z</time>
      </trkpt>
      <trkpt lat="48.28406" lon="5.48296">
        <ele>334.33</ele>
        <time>2025-01-04T15:42:03.633Z</time>
      </trkpt>
      <trkpt lat="48.28394" lon="5.48255">
        <ele>334.68</ele>
        <time>2025-01-04T15:42:10.285Z</time>
      </trkpt>
      <trkpt lat="48.28383" lon="5.48214">
        <ele>334.94</ele>
        <time>2025-01-04T15:42:16.941Z</time>
      </trkpt>
      <trkpt lat="48.28373" lon="5.4818">
        <ele>335.24</ele>
        <time>2025-01-04T15:42:23.601Z</time>
      </trkpt>
      <trkpt lat="48.28363" lon="5.48146">
        <ele>335.56</ele>
        <time>2025-01-04T15:42:30.265Z</time>
      </trkpt>
      <trkpt lat="48.28352" lon="5.48105">
        <ele>335.93</ele>
        <time>2025-01-04T15:42:36.934Z</time>
      </trkpt>
      <trkpt lat="48.28341" lon="5.48065">
        <ele>336.28</ele>
        <time>2025-01-04T15:42:43.608Z</time>
      </trkpt>
      <trkpt lat="48.28331" lon="5.48031">
        <ele>336.67</ele>
        <time>2025-01-04T15:42:50.286Z</time>
      </trkpt>
      <trkpt lat="48.28321" lon="5.47997">
        <ele>337.06</ele>
        <time>2025-01-04T15:42:56.968Z</time>
      </trkpt>
      <trkpt lat="48.2831" lon="5.47959">
        <ele>337.43</ele>
        <time>2025-01-04T15:43:03.654Z</time>
      </trkpt>
      <trkpt lat="48.28299" lon="5.47921">
        <ele>337.76</ele>
        <time>2025-01-04T15:43:10.344Z</time>
      </trkpt>
      <trkpt lat="48.28287" lon="5.47882">
        <ele>338.06</ele>
        <time>2025-01-04T15:43:17.039Z</time>
      </trkpt>
      <trkpt lat="48.28276" lon="5.47843">
        <ele>338.34</ele>
        <time>2025-01-04T15:43:23.739Z</time>
      </trkpt>
      <trkpt lat="48.28273" lon="5.47835">
        <ele>338.64</ele>
        <time>2025-01-04T15:43:30.439Z</time>
      </trkpt>
      <trkpt lat="48.28262" lon="5.47797">
        <ele>338.94</ele>
        <time>2025-01-04T15:43:37.144Z</time>
      </trkpt>
      <trkpt lat="48.28251" lon="5.47759">
        <ele>339.26</ele>
        <time>2025-01-04T15:43:43.853Z</time>
      </trkpt>
      <trkpt lat="48.28241" lon="5.47726">
        <ele>339.57</ele>
        <time>2025-01-04T15:43:50.566Z</time>
      </trkpt>
      <trkpt lat="48.28231" lon="5.47693">
        <ele>339.84</ele>
        <time>2025-01-04T15:43:57.283Z</time>
      </trkpt>
      <trkpt lat="48.28223" lon="5.47665">
        <ele>340.05</ele>
        <time>2025-01-04T15:44:04.003Z</time>
      </trkpt>
      <trkpt lat="48.28214" lon="5.47637">
        <ele>340.32</ele>
        <time>2025-01-04T15:44:10.727Z</time>
      </trkpt>
      <trkpt lat="48.28205" lon="5.47606">
        <ele>340.59</ele>
        <time>2025-01-04T15:44:17.454Z</time>
      </trkpt>
      <trkpt lat="48.28196" lon="5.47575">
        <ele>340.85</ele>
        <time>2025-01-04T15:44:24.185Z</time>
      </trkpt>
      <trkpt lat="48.28187" lon="5.47544">
        <ele>341.11</ele>
        <time>2025-01-04T15:44:30.920Z</time>
      </trkpt>
      <trkpt lat="48.28178" lon="5.47513">
        <ele>341.34</ele>
        <time>2025-01-04T15:44:37.658Z</time>
      </trkpt>
      <trkpt lat="48.28169" lon="5.47483">
        <ele>341.57</ele>
        <time>2025-01-04T15:44:44.400Z</time>
      </trkpt>
      <trkpt lat="48.2816" lon="5.47453">
        <ele>341.78</ele>
        <time>2025-01-04T15:44:51.145Z</time>
      </trkpt>
      <trkpt lat="48.28151" lon="5.47421">
        <ele>341.99</ele>
        <time>2025-01-04T15:44:57.894Z</time>
      </trkpt>
      <trkpt lat="48.28141" lon="5.4739">
        <ele>342.23</ele>
        <time>2025-01-04T15:45:04.647Z</time>
      </trkpt>
      <trkpt lat="48.28133" lon="5.47361">
        <ele>342.43</ele>
        <time>2025-01-04T15:45:11.403Z</time>
      </trkpt>
      <trkpt lat="48.28124" lon="5.47332">
        <ele>342.67</ele>
        <time>2025-01-04T15:45:18.162Z</time>
      </trkpt>
      <trkpt lat="48.28116" lon="5.47303">
        <ele>342.85</ele>
        <time>2025-01-04T15:45:24.925Z</time>
      </trkpt>
      <trkpt lat="48.28107" lon="5.47274">
        <ele>343.02</ele>
        <time>2025-01-04T15:45:31.691Z</time>
      </trkpt>
      <trkpt lat="48.28096" lon="5.47238">
        <ele>343.15</ele>
        <time>2025-01-04T15:45:38.461Z</time>
      </trkpt>
      <trkpt lat="48.28086" lon="5.47202">
        <ele>343.27</ele>
        <time>2025-01-04T15:45:45.235Z</time>
      </trkpt>
      <trkpt lat="48.28079" lon="5.47179">
        <ele>343.37</ele>
        <time>2025-01-04T15:45:52.012Z</time>
      </trkpt>
      <trkpt lat="48.28072" lon="5.47156">
        <ele>343.45</ele>
        <time>2025-01-04T15:45:58.792Z</time>
      </trkpt>
      <trkpt lat="48.28063" lon="5.47127">
        <ele>343.51</ele>
        <time>2025-01-04T15:46:05.575Z</time>
      </trkpt>
      <trkpt lat="48.28055" lon="5.47097">
        <ele>343.58</ele>
        <time>2025-01-04T15:46:12.362Z</time>
      </trkpt>
      <trkpt lat="48.28045" lon="5.47064">
        <ele>343.64</ele>
        <time>2025-01-04T15:46:19.153Z</time>
      </trkpt>
      <trkpt lat="48.28035" lon="5.47031">
        <ele>343.64</ele>
        <time>2025-01-04T15:46:25.948Z</time>
      </trkpt>
      <trkpt lat="48.28025" lon="5.46996">
        <ele>343.58</ele>
        <time>2025-01-04T15:46:32.747Z</time>
      </trkpt>
      <trkpt lat="48.28015" lon="5.46962">
        <ele>343.5</ele>
        <time>2025-01-04T15:46:39.550Z</time>
      </trkpt>
      <trkpt lat="48.28007" lon="5.46931">
        <ele>343.46</ele>
        <time>2025-01-04T15:46:46.356Z</time>
      </trkpt>
      <trkpt lat="48.27998" lon="5.46901">
        <ele>343.4</ele>
        <time>2025-01-04T15:46:53.166Z</time>
      </trkpt>
      <trkpt lat="48.27988" lon="5.46868">
        <ele>343.3</ele>
        <time>2025-01-04T15:46:59.979Z</time>
      </trkpt>
      <trkpt lat="48.27979" lon="5.46836">
        <ele>343.22</ele>
        <time>2025-01-04T15:47:06.796Z</time>
      </trkpt>
      <trkpt lat="48.27969" lon="5.46801">
        <ele>343.14</ele>
        <time>2025-01-04T15:47:13.617Z</time>
      </trkpt>
      <trkpt lat="48.27959" lon="5.46767">
        <ele>343.07</ele>
        <time>2025-01-04T15:47:20.442Z</time>
      </trkpt>
      <trkpt lat="48.27948" lon="5.46728">
        <ele>342.9</ele>
        <time>2025-01-04T15:47:27.272Z</time>
      </trkpt>
      <trkpt lat="48.27936" lon="5.4669">
        <ele>342.69</ele>
        <time>2025-01-04T15:47:34.106Z</time>
      </trkpt>
      <trkpt lat="48.27928" lon="5.4666">
        <ele>342.55</ele>
        <time>2025-01-04T15:47:40.944Z</time>
      </trkpt>
      <trkpt lat="48.27919" lon="5.46631">
        <ele>342.4</ele>
        <time>2025-01-04T15:47:47.785Z</time>
      </trkpt>
      <trkpt lat="48.27909" lon="5.46596">
        <ele>342.24</ele>
        <time>2025-01-04T15:47:54.630Z</time>
      </trkpt>
      <trkpt lat="48.27899" lon="5.4656">
        <ele>342.06</ele>
        <time>2025-01-04T15:48:01.479Z</time>
      </trkpt>
      <trkpt lat="48.27891" lon="5.46525">
        <ele>341.89</ele>
        <time>2025-01-04T15:48:08.332Z</time>
      </trkpt>
      <trkpt lat="48.27883" lon="5.4649">
        <ele>341.64</ele>
        <time>2025-01-04T15:48:15.189Z</time>
      </trkpt>
      <trkpt lat="48.27877" lon="5.46452">
        <ele>341.34</ele>
        <time>2025-01-04T15:48:22.050Z</time>
      </trkpt>
      <trkpt lat="48.27872" lon="5.46414">
        <ele>341.07</ele>
        <time>2025-01-04T15:48:28.916Z</time>
      </trkpt>
      <trkpt lat="48.27867" lon="5.4638">
        <ele>340.84</ele>
        <time>2025-01-04T15:48:35.785Z</time>
      </trkpt>
      <trkpt lat="48.27862" lon="5.46347">
        <ele>340.59</ele>
        <time>2025-01-04T15:48:42.658Z</time>
      </trkpt>
      <trkpt lat="48.27855" lon="5.46302">
        <ele>340.29</ele>
        <time>2025-01-04T15:48:49.536Z</time>
      </trkpt>
      <trkpt lat="48.27848" lon="5.46257">
        <ele>339.96</ele>
        <time>2025-01-04T15:48:56.419Z</time>
      </trkpt>
      <trkpt lat="48.27843" lon="5.46222">
        <ele>339.65</ele>
        <time>2025-01-04T15:49:03.306Z</time>
      </trkpt>
      <trkpt lat="48.27838" lon="5.46187">
        <ele>339.39</ele>
        <time>2025-01-04T15:49:10.196Z</time>
      </trkpt>
      <trkpt lat="48.27834" lon="5.46162">
        <ele>339.13</ele>
        <time>2025-01-04T15:49:17.089Z</time>
      </trkpt>
      <trkpt lat="48.27831" lon="5.46137">
        <ele>338.88</ele>
        <time>2025-01-04T15:49:23.985Z</time>
      </trkpt>
      <trkpt lat="48.27826" lon="5.46106">
        <ele>338.62</ele>
        <time>2025-01-04T15:49:30.884Z</time>
      </trkpt>
      <trkpt lat="48.27821" lon="5.46074">
        <ele>338.34</ele>
        <time>2025-01-04T15:49:37.787Z</time>
      </trkpt>
      <trkpt lat="48.27815" lon="5.46033">
        <ele>338.04</ele>
        <time>2025-01-04T15:49:44.694Z</time>
      </trkpt>
      <trkpt lat="48.27809" lon="5.45992">
        <ele>337.78</ele>
        <time>2025-01-04T15:49:51.606Z</time>
      </trkpt>
      <trkpt lat="48.27803" lon="5.45952">
        <ele>337.51</ele>
        <time>2025-01-04T15:49:58.522Z</time>
      </trkpt>
      <trkpt lat="48.27797" lon="5.45911">
        <ele>337.25</ele>
        <time>2025-01-04T15:50:05.443Z</time>
      </trkpt>
      <trkpt lat="48.27793" lon="5.45886">
        <ele>336.99</ele>
        <time>2025-01-04T15:50:12.366Z</time>
      </trkpt>
      <trkpt lat="48.2779" lon="5.45861">
        <ele>336.73</ele>
        <time>2025-01-04T15:50:19.292Z</time>
      </trkpt>
      <trkpt lat="48.27784" lon="5.45823">
        <ele>336.42</ele>
        <time>2025-01-04T15:50:26.222Z</time>
      </trkpt>
      <trkpt lat="48.27778" lon="5.45785">
        <ele>336.09</ele>
        <time>2025-01-04T15:50:33.156Z</time>
      </trkpt>
      <trkpt lat="48.27774" lon="5.45752">
        <ele>335.77</ele>
        <time>2025-01-04T15:50:40.094Z</time>
      </trkpt>
      <trkpt lat="48.27769" lon="5.45719">
        <ele>335.5</ele>
        <time>2025-01-04T15:50:47.036Z</time>
      </trkpt>
      <trkpt lat="48.27763" lon="5.45679">
        <ele>335.29</ele>
        <time>2025-01-04T15:50:53.982Z</time>
      </trkpt>
      <trkpt lat="48.27757" lon="5.45639">
        <ele>335.04</ele>
        <time>2025-01-04T15:51:00.932Z</time>
      </trkpt>
      <trkpt lat="48.2775" lon="5.45596">
        <ele>334.76</ele>
        <time>2025-01-04T15:51:07.887Z</time>
      </trkpt>
      <trkpt lat="48.27744" lon="5.45553">
        <ele>334.47</ele>
        <time>2025-01-04T15:51:14.847Z</time>
      </trkpt>
      <trkpt lat="48.27739" lon="5.4552">
        <ele>334.18</ele>
        <time>2025-01-04T15:51:21.810Z</time>
      </trkpt>
      <trkpt lat="48.27734" lon="5.45488">
        <ele>333.88</ele>
        <time>2025-01-04T15:51:28.777Z</time>
      </trkpt>
      <trkpt lat="48.27729" lon="5.45453">
        <ele>333.49</ele>
        <time>2025-01-04T15:51:35.748Z</time>
      </trkpt>
      <trkpt lat="48.27724" lon="5.45419">
        <ele>333.11</ele>
        <time>2025-01-04T15:51:42.723Z</time>
      </trkpt>
      <trkpt lat="48.2772" lon="5.45392">
        <ele>332.75</ele>
        <time>2025-01-04T15:51:49.701Z</time>
      </trkpt>
      <trkpt lat="48.27716" lon="5.45365">
        <ele>332.43</ele>
        <time>2025-01-04T15:51:56.681Z</time>
      </trkpt>
      <trkpt lat="48.27711" lon="5.45334">
        <ele>332.1</ele>
        <time>2025-01-04T15:52:03.665Z</time>
      </trkpt>
      <trkpt lat="48.27707" lon="5.45303">
        <ele>331.77</ele>
        <time>2025-01-04T15:52:10.652Z</time>
      </trkpt>
      <trkpt lat="48.277" lon="5.4526">
        <ele>331.39</ele>
        <time>2025-01-04T15:52:17.644Z</time>
      </trkpt>
      <trkpt lat="48.27694" lon="5.45216">
        <ele>331.04</ele>
        <time>2025-01-04T15:52:24.641Z</time>
      </trkpt>
      <trkpt lat="48.27689" lon="5.45181">
        <ele>330.69</ele>
        <time>2025-01-04T15:52:31.642Z</time>
      </trkpt>
      <trkpt lat="48.27683" lon="5.45145">
        <ele>330.37</ele>
        <time>2025-01-04T15:52:38.647Z</time>
      </trkpt>
      <trkpt lat="48.27678" lon="5.45107">
        <ele>330.06</ele>
        <time>2025-01-04T15:52:45.656Z</time>
      </trkpt>
      <trkpt lat="48.27672" lon="5.45069">
        <ele>329.73</ele>
        <time>2025-01-04T15:52:52.669Z</time>
      </trkpt>
      <trkpt lat="48.27666" lon="5.45031">
        <ele>329.4</ele>
        <time>2025-01-04T15:52:59.686Z</time>
      </trkpt>
      <trkpt lat="48.27661" lon="5.44992">
        <ele>329.13</ele>
        <time>2025-01-04T15:53:06.707Z</time>
      </trkpt>
      <trkpt lat="48.27655" lon="5.44957">
        <ele>328.88</ele>
        <time>2025-01-04T15:53:13.732Z</time>
      </trkpt>
      <trkpt lat="48.2765" lon="5.44921">
        <ele>328.62</ele>
        <time>2025-01-04T15:53:20.761Z</time>
      </trkpt>
      <trkpt lat="48.27645" lon="5.44887">
        <ele>328.38</ele>
        <time>2025-01-04T15:53:27.794Z</time>
      </trkpt>
      <trkpt lat="48.2764" lon="5.44852">
        <ele>328.16</ele>
        <time>2025-01-04T15:53:34.831Z</time>
      </trkpt>
      <trkpt lat="48.27635" lon="5.44817">
        <ele>327.9</ele>
        <time>2025-01-04T15:53:41.872Z</time>
      </trkpt>
      <trkpt lat="48.27629" lon="5.44781">
        <ele>327.67</ele>
        <time>2025-01-04T15:53:48.916Z</time>
      </trkpt>
      <trkpt lat="48.27623" lon="5.44741">
        <ele>327.51</ele>
        <time>2025-01-04T15:53:55.965Z</time>
      </trkpt>
      <trkpt lat="48.27617" lon="5.44701">
        <ele>327.33</ele>
        <time>2025-01-04T15:54:03.018Z</time>
      </trkpt>
      <trkpt lat="48.27612" lon="5.44667">
        <ele>327.24</ele>
        <time>2025-01-04T15:54:10.075Z</time>
      </trkpt>
      <trkpt lat="48.27607" lon="5.44633">
        <ele>327.13</ele>
        <time>2025-01-04T15:54:17.136Z</time>
      </trkpt>
      <trkpt lat="48.276" lon="5.44589">
        <ele>327.07</ele>
        <time>2025-01-04T15:54:24.201Z</time>
      </trkpt>
      <trkpt lat="48.27594" lon="5.44545">
        <ele>327.05</ele>
        <time>2025-01-04T15:54:31.271Z</time>
      </trkpt>
      <trkpt lat="48.27594" lon="5.44545">
        <ele>327.07</ele>
        <time>2025-01-04T15:54:38.341Z</time>
      </trkpt>
      <trkpt lat="48.27589" lon="5.44514">
        <ele>327.19</ele>
        <time>2025-01-04T15:54:45.415Z</time>
      </trkpt>
      <trkpt lat="48.27584" lon="5.44483">
        <ele>327.32</ele>
        <time>2025-01-04T15:54:52.492Z</time>
      </trkpt>
      <trkpt lat="48.27579" lon="5.4445">
        <ele>327.47</ele>
        <time>2025-01-04T15:54:59.573Z</time>
      </trkpt>
      <trkpt lat="48.27574" lon="5.44416">
        <ele>327.57</ele>
        <time>2025-01-04T15:55:06.657Z</time>
      </trkpt>
      <trkpt lat="48.2757" lon="5.44387">
        <ele>327.73</ele>
        <time>2025-01-04T15:55:13.745Z</time>
      </trkpt>
      <trkpt lat="48.27565" lon="5.44357">
        <ele>327.84</ele>
        <time>2025-01-04T15:55:20.836Z</time>
      </trkpt>
      <trkpt lat="48.2756" lon="5.44323">
        <ele>327.97</ele>
        <time>2025-01-04T15:55:27.931Z</time>
      </trkpt>
      <trkpt lat="48.27555" lon="5.44289">
        <ele>328.09</ele>
        <time>2025-01-04T15:55:35.029Z</time>
      </trkpt>
      <trkpt lat="48.2755" lon="5.44254">
        <ele>328.2</ele>
        <time>2025-01-04T15:55:42.131Z</time>
      </trkpt>
      <trkpt lat="48.27544" lon="5.44218">
        <ele>328.29</ele>
        <time>2025-01-04T15:55:49.237Z</time>
      </trkpt>
      <trkpt lat="48.27541" lon="5.44198">
        <ele>328.37</ele>
        <time>2025-01-04T15:55:56.345Z</time>
      </trkpt>
      <trkpt lat="48.27539" lon="5.44185">
        <ele>328.44</ele>
        <time>2025-01-04T15:56:03.455Z</time>
      </trkpt>
      <trkpt lat="48.27535" lon="5.44153">
        <ele>328.49</ele>
        <time>2025-01-04T15:56:10.568Z</time>
      </trkpt>
      <trkpt lat="48.27532" lon="5.44134">
        <ele>328.5</ele>
        <time>2025-01-04T15:56:17.683Z</time>
      </trkpt>
      <trkpt lat="48.27531" lon="5.4413">
        <ele>328.52</ele>
        <time>2025-01-04T15:56:24.799Z</time>
      </trkpt>
      <trkpt lat="48.27541" lon="5.44114">
        <ele>328.47</ele>
        <time>2025-01-04T15:56:31.917Z</time>
      </trkpt>
      <trkpt lat="48.27553" lon="5.44106">
        <ele>328.4</ele>
        <time>2025-01-04T15:56:39.037Z</time>
      </trkpt>
      <trkpt lat="48.27568" lon="5.44096">
        <ele>328.33</ele>
        <time>2025-01-04T15:56:46.160Z</time>
      </trkpt>
      <trkpt lat="48.27582" lon="5.44086">
        <ele>328.26</ele>
        <time>2025-01-04T15:56:53.285Z</time>
      </trkpt>
      <trkpt lat="48.27607" lon="5.44069">
        <ele>328.16</ele>
        <time>2025-01-04T15:57:00.415Z</time>
      </trkpt>
      <trkpt lat="48.27633" lon="5.44051">
        <ele>328.09</ele>
        <time>2025-01-04T15:57:07.549Z</time>
      </trkpt>
      <trkpt lat="48.27656" lon="5.44035">
        <ele>327.97</ele>
        <time>2025-01-04T15:57:14.687Z</time>
      </trkpt>
      <trkpt lat="48.27679" lon="5.44019">
        <ele>327.83</ele>
        <time>2025-01-04T15:57:21.829Z</time>
      </trkpt>
      <trkpt lat="48.27704" lon="5.44003">
        <ele>327.69</ele>
        <time>2025-01-04T15:57:28.976Z</time>
      </trkpt>
      <trkpt lat="48.27728" lon="5.43986">
        <ele>327.56</ele>
        <time>2025-01-04T15:57:36.127Z</time>
      </trkpt>
      <trkpt lat="48.27748" lon="5.43966">
        <ele>327.45</ele>
        <time>2025-01-04T15:57:43.282Z</time>
      </trkpt>
      <trkpt lat="48.27767" lon="5.43946">
        <ele>327.31</ele>
        <time>2025-01-04T15:57:50.441Z</time>
      </trkpt>
      <trkpt lat="48.27787" lon="5.43925">
        <ele>327.16</ele>
        <time>2025-01-04T15:57:57.603Z</time>
      </trkpt>
      <trkpt lat="48.27807" lon="5.43904">
        <ele>326.98</ele>
        <time>2025-01-04T15:58:04.769Z</time>
      </trkpt>
      <trkpt lat="48.27824" lon="5.43884">
        <ele>326.79</ele>
        <time>2025-01-04T15:58:11.939Z</time>
      </trkpt>
      <trkpt lat="48.27841" lon="5.43864">
        <ele>326.63</ele>
        <time>2025-01-04T15:58:19.112Z</time>
      </trkpt>
      <trkpt lat="48.27856" lon="5.43844">
        <ele>326.46</ele>
        <time>2025-01-04T15:58:26.289Z</time>
      </trkpt>
      <trkpt lat="48.27871" lon="5.43824">
        <ele>326.3</ele>
        <time>2025-01-04T15:58:33.469Z</time>
      </trkpt>
      <trkpt lat="48.27885" lon="5.43805">
        <ele>326.13</ele>
        <time>2025-01-04T15:58:40.652Z</time>
      </trkpt>
      <trkpt lat="48.279" lon="5.43786">
        <ele>325.96</ele>
        <time>2025-01-04T15:58:47.838Z</time>
      </trkpt>
      <trkpt lat="48.27915" lon="5.43765">
        <ele>325.8</ele>
        <time>2025-01-04T15:58:55.027Z</time>
      </trkpt>
      <trkpt lat="48.2793" lon="5.43743">
        <ele>325.6</ele>
        <time>2025-01-04T15:59:02.220Z</time>
      </trkpt>
      <trkpt lat="48.27945" lon="5.43717">
        <ele>325.39</ele>
        <time>2025-01-04T15:59:09.416Z</time>
      </trkpt>
      <trkpt lat="48.27961" lon="5.4369">
        <ele>325.22</ele>
        <time>2025-01-04T15:59:16.616Z</time>
      </trkpt>
      <trkpt lat="48.27979" lon="5.4366">
        <ele>325.1</ele>
        <time>2025-01-04T15:59:23.820Z</time>
      </trkpt>
      <trkpt lat="48.27998" lon="5.43629">
        <ele>324.98</ele>
        <time>2025-01-04T15:59:31.029Z</time>
      </trkpt>
      <trkpt lat="48.28013" lon="5.43604">
        <ele>324.84</ele>
        <time>2025-01-04T15:59:38.241Z</time>
      </trkpt>
      <trkpt lat="48.28028" lon="5.43579">
        <ele>324.64</ele>
        <time>2025-01-04T15:59:45.457Z</time>
      </trkpt>
      <trkpt lat="48.28041" lon="5.43555">
        <ele>324.48</ele>
        <time>2025-01-04T15:59:52.676Z</time>
      </trkpt>
      <trkpt lat="48.28054" lon="5.43531">
        <ele>324.39</ele>
        <time>2025-01-04T15:59:59.899Z</time>
      </trkpt>
      <trkpt lat="48.28074" lon="5.43496">
        <ele>324.27</ele>
        <time>2025-01-04T16:00:07.127Z</time>
      </trkpt>
      <trkpt lat="48.2809" lon="5.43484">
        <ele>324.15</ele>
        <time>2025-01-04T16:00:14.357Z</time>
      </trkpt>
      <trkpt lat="48.28109" lon="5.4348">
        <ele>323.99</ele>
        <time>2025-01-04T16:00:21.591Z</time>
      </trkpt>
      <trkpt lat="48.2811" lon="5.43488">
        <ele>323.89</ele>
        <time>2025-01-04T16:00:28.825Z</time>
      </trkpt>
      <trkpt lat="48.2811" lon="5.43492">
        <ele>323.79</ele>
        <time>2025-01-04T16:00:36.060Z</time>
      </trkpt>
      <trkpt lat="48.28106" lon="5.4351">
        <ele>323.71</ele>
        <time>2025-01-04T16:00:43.297Z</time>
      </trkpt>
      <trkpt lat="48.28103" lon="5.43523">
        <ele>323.6</ele>
        <time>2025-01-04T16:00:50.535Z</time>
      </trkpt>
      <trkpt lat="48.28095" lon="5.43542">
        <ele>323.53</ele>
        <time>2025-01-04T16:00:57.776Z</time>
      </trkpt>
      <trkpt lat="48.28097" lon="5.43536">
        <ele>323.4</ele>
        <time>2025-01-04T16:01:05.017Z</time>
      </trkpt>
      <trkpt lat="48.28103" lon="5.43523">
        <ele>323.6</ele>
        <time>2025-01-04T16:01:12.260Z</time>
      </trkpt>
      <trkpt lat="48.28106" lon="5.43508">
        <ele>323.12</ele>
        <time>2025-01-04T16:01:19.505Z</time>
      </trkpt>
      <trkpt lat="48.2811" lon="5.43489">
        <ele>322.96</ele>
        <time>2025-01-04T16:01:26.752Z</time>
      </trkpt>
      <trkpt lat="48.28111" lon="5.43484">
        <ele>322.82</ele>
        <time>2025-01-04T16:01:33.999Z</time>
      </trkpt>
      <trkpt lat="48.28113" lon="5.4347">
        <ele>322.67</ele>
        <time>2025-01-04T16:01:41.248Z</time>
      </trkpt>
      <trkpt lat="48.28119" lon="5.43464">
        <ele>322.52</ele>
        <time>2025-01-04T16:01:48.498Z</time>
      </trkpt>
      <trkpt lat="48.28131" lon="5.43453">
        <ele>322.36</ele>
        <time>2025-01-04T16:01:55.750Z</time>
      </trkpt>
      <trkpt lat="48.28141" lon="5.43443">
        <ele>322.21</ele>
        <time>2025-01-04T16:02:03.004Z</time>
      </trkpt>
      <trkpt lat="48.28152" lon="5.43423">
        <ele>322.07</ele>
        <time>2025-01-04T16:02:10.261Z</time>
      </trkpt>
      <trkpt lat="48.28161" lon="5.43402">
        <ele>321.92</ele>
        <time>2025-01-04T16:02:17.521Z</time>
      </trkpt>
      <trkpt lat="48.28162" lon="5.43399">
        <ele>321.77</ele>
        <time>2025-01-04T16:02:24.781Z</time>
      </trkpt>
      <trkpt lat="48.28157" lon="5.43388">
        <ele>321.62</ele>
        <time>2025-01-04T16:02:32.043Z</time>
      </trkpt>
      <trkpt lat="48.28139" lon="5.43365">
        <ele>321.42</ele>
        <time>2025-01-04T16:02:39.308Z</time>
      </trkpt>
      <trkpt lat="48.28125" lon="5.43345">
        <ele>321.26</ele>
        <time>2025-01-04T16:02:46.576Z</time>
      </trkpt>
      <trkpt lat="48.2811" lon="5.43325">
        <ele>321.09</ele>
        <time>2025-01-04T16:02:53.848Z</time>
      </trkpt>
      <trkpt lat="48.28087" lon="5.43294">
        <ele>320.88</ele>
        <time>2025-01-04T16:03:01.124Z</time>
      </trkpt>
      <trkpt lat="48.28078" lon="5.43272">
        <ele>320.7</ele>
        <time>2025-01-04T16:03:08.403Z</time>
      </trkpt>
      <trkpt lat="48.28068" lon="5.43249">
        <ele>320.59</ele>
        <time>2025-01-04T16:03:15.685Z</time>
      </trkpt>
      <trkpt lat="48.28059" lon="5.43225">
        <ele>320.44</ele>
        <time>2025-01-04T16:03:22.970Z</time>
      </trkpt>
      <trkpt lat="48.28049" lon="5.43202">
        <ele>320.31</ele>
        <time>2025-01-04T16:03:30.258Z</time>
      </trkpt>
      <trkpt lat="48.28043" lon="5.43191">
        <ele>320.16</ele>
        <time>2025-01-04T16:03:37.548Z</time>
      </trkpt>
      <trkpt lat="48.28031" lon="5.43176">
        <ele>319.97</ele>
        <time>2025-01-04T16:03:44.840Z</time>
      </trkpt>
      <trkpt lat="48.28016" lon="5.43163">
        <ele>319.78</ele>
        <time>2025-01-04T16:03:52.135Z</time>
      </trkpt>
      <trkpt lat="48.28001" lon="5.4315">
        <ele>319.61</ele>
        <time>2025-01-04T16:03:59.433Z</time>
      </trkpt>
      <trkpt lat="48.27979" lon="5.43135">
        <ele>319.46</ele>
        <time>2025-01-04T16:04:06.735Z</time>
      </trkpt>
      <trkpt lat="48.27957" lon="5.43119">
        <ele>319.28</ele>
        <time>2025-01-04T16:04:14.040Z</time>
      </trkpt>
      <trkpt lat="48.2793" lon="5.43103">
        <ele>319.06</ele>
        <time>2025-01-04T16:04:21.350Z</time>
      </trkpt>
      <trkpt lat="48.27925" lon="5.431">
        <ele>318.86</ele>
        <time>2025-01-04T16:04:28.661Z</time>
      </trkpt>
      <trkpt lat="48.27905" lon="5.4309">
        <ele>318.62</ele>
        <time>2025-01-04T16:04:35.975Z</time>
      </trkpt>
      <trkpt lat="48.27899" lon="5.43087">
        <ele>318.44</ele>
        <time>2025-01-04T16:04:43.290Z</time>
      </trkpt>
      <trkpt lat="48.27877" lon="5.4309">
        <ele>318.24</ele>
        <time>2025-01-04T16:04:50.609Z</time>
      </trkpt>
      <trkpt lat="48.27855" lon="5.43092">
        <ele>318.07</ele>
        <time>2025-01-04T16:04:57.931Z</time>
      </trkpt>
      <trkpt lat="48.27839" lon="5.43094">
        <ele>317.94</ele>
        <time>2025-01-04T16:05:05.256Z</time>
      </trkpt>
      <trkpt lat="48.27824" lon="5.43096">
        <ele>317.77</ele>
        <time>2025-01-04T16:05:12.583Z</time>
      </trkpt>
      <trkpt lat="48.27817" lon="5.43094">
        <ele>317.6</ele>
        <time>2025-01-04T16:05:19.911Z</time>
      </trkpt>
      <trkpt lat="48.27801" lon="5.43086">
        <ele>317.45</ele>
        <time>2025-01-04T16:05:27.242Z</time>
      </trkpt>
      <trkpt lat="48.27784" lon="5.43079">
        <ele>317.29</ele>
        <time>2025-01-04T16:05:34.576Z</time>
      </trkpt>
      <trkpt lat="48.27766" lon="5.43069">
        <ele>317.11</ele>
        <time>2025-01-04T16:05:41.913Z</time>
      </trkpt>
      <trkpt lat="48.27748" lon="5.4306">
        <ele>316.94</ele>
        <time>2025-01-04T16:05:49.253Z</time>
      </trkpt>
      <trkpt lat="48.27728" lon="5.43047">
        <ele>316.73</ele>
        <time>2025-01-04T16:05:56.597Z</time>
      </trkpt>
      <trkpt lat="48.27709" lon="5.43033">
        <ele>316.53</ele>
        <time>2025-01-04T16:06:03.944Z</time>
      </trkpt>
      <trkpt lat="48.27683" lon="5.43018">
        <ele>316.36</ele>
        <time>2025-01-04T16:06:11.296Z</time>
      </trkpt>
      <trkpt lat="48.27671" lon="5.43015">
        <ele>316.18</ele>
        <time>2025-01-04T16:06:18.649Z</time>
      </trkpt>
      <trkpt lat="48.27648" lon="5.43017">
        <ele>315.99</ele>
        <time>2025-01-04T16:06:26.006Z</time>
      </trkpt>
      <trkpt lat="48.27631" lon="5.43021">
        <ele>315.77</ele>
        <time>2025-01-04T16:06:33.366Z</time>
      </trkpt>
      <trkpt lat="48.27609" lon="5.43029">
        <ele>315.63</ele>
        <time>2025-01-04T16:06:40.729Z</time>
      </trkpt>
      <trkpt lat="48.27593" lon="5.43035">
        <ele>315.45</ele>
        <time>2025-01-04T16:06:48.095Z</time>
      </trkpt>
      <trkpt lat="48.27577" lon="5.4304">
        <ele>315.31</ele>
        <time>2025-01-04T16:06:55.464Z</time>
      </trkpt>
      <trkpt lat="48.2756" lon="5.43038">
        <ele>315.14</ele>
        <time>2025-01-04T16:07:02.836Z</time>
      </trkpt>
      <trkpt lat="48.27542" lon="5.43036">
        <ele>314.98</ele>
        <time>2025-01-04T16:07:10.210Z</time>
      </trkpt>
      <trkpt lat="48.27526" lon="5.43029">
        <ele>314.84</ele>
        <time>2025-01-04T16:07:17.587Z</time>
      </trkpt>
      <trkpt lat="48.2751" lon="5.43022">
        <ele>314.72</ele>
        <time>2025-01-04T16:07:24.967Z</time>
      </trkpt>
      <trkpt lat="48.27487" lon="5.43009">
        <ele>314.6</ele>
        <time>2025-01-04T16:07:32.351Z</time>
      </trkpt>
      <trkpt lat="48.27463" lon="5.42996">
        <ele>314.48</ele>
        <time>2025-01-04T16:07:39.739Z</time>
      </trkpt>
      <trkpt lat="48.27448" lon="5.42987">
        <ele>314.44</ele>
        <time>2025-01-04T16:07:47.129Z</time>
      </trkpt>
      <trkpt lat="48.27433" lon="5.42979">
        <ele>314.38</ele>
        <time>2025-01-04T16:07:54.522Z</time>
      </trkpt>
      <trkpt lat="48.27404" lon="5.42969">
        <ele>314.3</ele>
        <time>2025-01-04T16:08:01.920Z</time>
      </trkpt>
      <trkpt lat="48.27386" lon="5.42965">
        <ele>314.21</ele>
        <time>2025-01-04T16:08:09.321Z</time>
      </trkpt>
      <trkpt lat="48.2737" lon="5.42966">
        <ele>314.09</ele>
        <time>2025-01-04T16:08:16.724Z</time>
      </trkpt>
      <trkpt lat="48.2734" lon="5.42973">
        <ele>313.93</ele>
        <time>2025-01-04T16:08:24.132Z</time>
      </trkpt>
      <trkpt lat="48.27321" lon="5.42981">
        <ele>313.83</ele>
        <time>2025-01-04T16:08:31.543Z</time>
      </trkpt>
      <trkpt lat="48.27303" lon="5.42988">
        <ele>313.76</ele>
        <time>2025-01-04T16:08:38.957Z</time>
      </trkpt>
      <trkpt lat="48.27298" lon="5.4299">
        <ele>313.68</ele>
        <time>2025-01-04T16:08:46.372Z</time>
      </trkpt>
      <trkpt lat="48.27291" lon="5.42989">
        <ele>313.61</ele>
        <time>2025-01-04T16:08:53.788Z</time>
      </trkpt>
      <trkpt lat="48.27284" lon="5.42963">
        <ele>313.52</ele>
        <time>2025-01-04T16:09:01.207Z</time>
      </trkpt>
      <trkpt lat="48.27277" lon="5.42938">
        <ele>313.45</ele>
        <time>2025-01-04T16:09:08.629Z</time>
      </trkpt>
      <trkpt lat="48.27271" lon="5.42914">
        <ele>313.36</ele>
        <time>2025-01-04T16:09:16.054Z</time>
      </trkpt>
      <trkpt lat="48.27261" lon="5.42876">
        <ele>313.15</ele>
        <time>2025-01-04T16:09:23.483Z</time>
      </trkpt>
      <trkpt lat="48.2725" lon="5.42838">
        <ele>312.97</ele>
        <time>2025-01-04T16:09:30.916Z</time>
      </trkpt>
      <trkpt lat="48.27248" lon="5.4283">
        <ele>312.81</ele>
        <time>2025-01-04T16:09:38.350Z</time>
      </trkpt>
      <trkpt lat="48.27241" lon="5.42802">
        <ele>312.62</ele>
        <time>2025-01-04T16:09:45.788Z</time>
      </trkpt>
      <trkpt lat="48.27233" lon="5.42774">
        <ele>312.45</ele>
        <time>2025-01-04T16:09:53.229Z</time>
      </trkpt>
      <trkpt lat="48.27224" lon="5.42739">
        <ele>312.23</ele>
        <time>2025-01-04T16:10:00.674Z</time>
      </trkpt>
      <trkpt lat="48.27215" lon="5.42704">
        <ele>312.06</ele>
        <time>2025-01-04T16:10:08.123Z</time>
      </trkpt>
      <trkpt lat="48.27204" lon="5.42665">
        <ele>311.9</ele>
        <time>2025-01-04T16:10:15.576Z</time>
      </trkpt>
      <trkpt lat="48.27194" lon="5.42625">
        <ele>311.68</ele>
        <time>2025-01-04T16:10:23.034Z</time>
      </trkpt>
      <trkpt lat="48.27183" lon="5.42587">
        <ele>311.41</ele>
        <time>2025-01-04T16:10:30.496Z</time>
      </trkpt>
      <trkpt lat="48.27173" lon="5.42549">
        <ele>311.13</ele>
        <time>2025-01-04T16:10:37.963Z</time>
      </trkpt>
      <trkpt lat="48.27163" lon="5.42508">
        <ele>310.88</ele>
        <time>2025-01-04T16:10:45.434Z</time>
      </trkpt>
      <trkpt lat="48.27152" lon="5.42468">
        <ele>310.6</ele>
        <time>2025-01-04T16:10:52.910Z</time>
      </trkpt>
      <trkpt lat="48.27149" lon="5.42458">
        <ele>310.33</ele>
        <time>2025-01-04T16:11:00.387Z</time>
      </trkpt>
      <trkpt lat="48.2714" lon="5.42423">
        <ele>310</ele>
        <time>2025-01-04T16:11:07.868Z</time>
      </trkpt>
      <trkpt lat="48.2713" lon="5.42387">
        <ele>309.74</ele>
        <time>2025-01-04T16:11:15.353Z</time>
      </trkpt>
      <trkpt lat="48.27121" lon="5.42353">
        <ele>309.38</ele>
        <time>2025-01-04T16:11:22.842Z</time>
      </trkpt>
      <trkpt lat="48.27112" lon="5.4232">
        <ele>308.98</ele>
        <time>2025-01-04T16:11:30.335Z</time>
      </trkpt>
      <trkpt lat="48.27101" lon="5.42278">
        <ele>308.56</ele>
        <time>2025-01-04T16:11:37.833Z</time>
      </trkpt>
      <trkpt lat="48.2709" lon="5.42237">
        <ele>308.09</ele>
        <time>2025-01-04T16:11:45.336Z</time>
      </trkpt>
      <trkpt lat="48.27082" lon="5.42208">
        <ele>307.6</ele>
        <time>2025-01-04T16:11:52.842Z</time>
      </trkpt>
      <trkpt lat="48.27075" lon="5.42178">
        <ele>307.02</ele>
        <time>2025-01-04T16:12:00.351Z</time>
      </trkpt>
      <trkpt lat="48.27066" lon="5.42146">
        <ele>306.35</ele>
        <time>2025-01-04T16:12:07.864Z</time>
      </trkpt>
      <trkpt lat="48.27057" lon="5.42114">
        <ele>305.56</ele>
        <time>2025-01-04T16:12:15.381Z</time>
      </trkpt>
      <trkpt lat="48.27047" lon="5.42075">
        <ele>304.74</ele>
        <time>2025-01-04T16:12:22.902Z</time>
      </trkpt>
      <trkpt lat="48.27037" lon="5.42037">
        <ele>303.84</ele>
        <time>2025-01-04T16:12:30.428Z</time>
      </trkpt>
      <trkpt lat="48.27034" lon="5.42026">
        <ele>302.92</ele>
        <time>2025-01-04T16:12:37.955Z</time>
      </trkpt>
      <trkpt lat="48.27023" lon="5.41985">
        <ele>301.86</ele>
        <time>2025-01-04T16:12:45.487Z</time>
      </trkpt>
      <trkpt lat="48.27012" lon="5.41944">
        <ele>300.77</ele>
        <time>2025-01-04T16:12:53.023Z</time>
      </trkpt>
      <trkpt lat="48.27001" lon="5.41904">
        <ele>299.7</ele>
        <time>2025-01-04T16:13:00.564Z</time>
      </trkpt>
      <trkpt lat="48.26991" lon="5.41863">
        <ele>298.69</ele>
        <time>2025-01-04T16:13:08.110Z</time>
      </trkpt>
      <trkpt lat="48.26987" lon="5.41851">
        <ele>297.82</ele>
        <time>2025-01-04T16:13:15.657Z</time>
      </trkpt>
      <trkpt lat="48.26981" lon="5.41825">
        <ele>296.95</ele>
        <time>2025-01-04T16:13:23.207Z</time>
      </trkpt>
      <trkpt lat="48.26975" lon="5.418">
        <ele>296.15</ele>
        <time>2025-01-04T16:13:30.760Z</time>
      </trkpt>
      <trkpt lat="48.26969" lon="5.41775">
        <ele>295.39</ele>
        <time>2025-01-04T16:13:38.316Z</time>
      </trkpt>
      <trkpt lat="48.26966" lon="5.4174">
        <ele>294.73</ele>
        <time>2025-01-04T16:13:45.876Z</time>
      </trkpt>
      <trkpt lat="48.26963" lon="5.41706">
        <ele>294.1</ele>
        <time>2025-01-04T16:13:53.439Z</time>
      </trkpt>
      <trkpt lat="48.26965" lon="5.41666">
        <ele>293.57</ele>
        <time>2025-01-04T16:14:01.006Z</time>
      </trkpt>
      <trkpt lat="48.26966" lon="5.41626">
        <ele>293.13</ele>
        <time>2025-01-04T16:14:08.578Z</time>
      </trkpt>
      <trkpt lat="48.26967" lon="5.41586">
        <ele>292.76</ele>
        <time>2025-01-04T16:14:16.154Z</time>
      </trkpt>
      <trkpt lat="48.26969" lon="5.41547">
        <ele>292.43</ele>
        <time>2025-01-04T16:14:23.734Z</time>
      </trkpt>
      <trkpt lat="48.26968" lon="5.41517">
        <ele>292.18</ele>
        <time>2025-01-04T16:14:31.317Z</time>
      </trkpt>
      <trkpt lat="48.26967" lon="5.41486">
        <ele>291.98</ele>
        <time>2025-01-04T16:14:38.904Z</time>
      </trkpt>
      <trkpt lat="48.26965" lon="5.41457">
        <ele>291.74</ele>
        <time>2025-01-04T16:14:46.494Z</time>
      </trkpt>
      <trkpt lat="48.26963" lon="5.41428">
        <ele>291.48</ele>
        <time>2025-01-04T16:14:54.087Z</time>
      </trkpt>
      <trkpt lat="48.2696" lon="5.41393">
        <ele>291.17</ele>
        <time>2025-01-04T16:15:01.684Z</time>
      </trkpt>
      <trkpt lat="48.26958" lon="5.41359">
        <ele>290.85</ele>
        <time>2025-01-04T16:15:09.284Z</time>
      </trkpt>
      <trkpt lat="48.26957" lon="5.41344">
        <ele>290.57</ele>
        <time>2025-01-04T16:15:16.886Z</time>
      </trkpt>
      <trkpt lat="48.26956" lon="5.4133">
        <ele>290.28</ele>
        <time>2025-01-04T16:15:24.489Z</time>
      </trkpt>
      <trkpt lat="48.26964" lon="5.41317">
        <ele>290.01</ele>
        <time>2025-01-04T16:15:32.094Z</time>
      </trkpt>
      <trkpt lat="48.26969" lon="5.41318">
        <ele>289.77</ele>
        <time>2025-01-04T16:15:39.700Z</time>
      </trkpt>
      <trkpt lat="48.2699" lon="5.41319">
        <ele>289.51</ele>
        <time>2025-01-04T16:15:47.310Z</time>
      </trkpt>
      <trkpt lat="48.27012" lon="5.4132">
        <ele>289.28</ele>
        <time>2025-01-04T16:15:54.923Z</time>
      </trkpt>
      <trkpt lat="48.2703" lon="5.41319">
        <ele>289.11</ele>
        <time>2025-01-04T16:16:02.539Z</time>
      </trkpt>
      <trkpt lat="48.27047" lon="5.41318">
        <ele>289</ele>
        <time>2025-01-04T16:16:10.158Z</time>
      </trkpt>
      <trkpt lat="48.27065" lon="5.41316">
        <ele>288.98</ele>
        <time>2025-01-04T16:16:17.780Z</time>
      </trkpt>
      <trkpt lat="48.27084" lon="5.41313">
        <ele>288.99</ele>
        <time>2025-01-04T16:16:25.405Z</time>
      </trkpt>
      <trkpt lat="48.27098" lon="5.41311">
        <ele>288.99</ele>
        <time>2025-01-04T16:16:33.032Z</time>
      </trkpt>
      <trkpt lat="48.27102" lon="5.4131">
        <ele>288.99</ele>
        <time>2025-01-04T16:16:40.660Z</time>
      </trkpt>
      <trkpt lat="48.27104" lon="5.4131">
        <ele>288.99</ele>
        <time>2025-01-04T16:16:48.288Z</time>
      </trkpt>
      <trkpt lat="48.27117" lon="5.41337">
        <ele>289.01</ele>
        <time>2025-01-04T16:16:55.919Z</time>
      </trkpt>
      <trkpt lat="48.27117" lon="5.41343">
        <ele>289.04</ele>
        <time>2025-01-04T16:17:03.551Z</time>
      </trkpt>
    </trkseg>
  </trk>
</gpx>